[[{"header":{"parameterUnit":"m.s-1","parameterCategory":1,"la1":30.6,"la2":29.2853,"lo1":-89.7004,"lo2":-87.6739,"dy":0.0162,"dx":0.0183,"nx":112,"ny":82,"refTime":"2023-04-30T12:00:00:Z","depth":0,"parameterNumber":2,"parameterNumberName":"U-component_of_WINDS"},"data":[0.0,0.0,0.0,0.0,0.0,0.0,0.0,0.0,0.0,0.0,0.0,0.0,0.0,0.0,0.0,0.0,0.0,0.0,0.0,0.0,0.0,0.0,0.0,0.0,0.0,0.0,0.0,0.0,0.0,0.0,0.0,0.0,0.0,0.0,0.0,0.0,0.0,0.0,0.0,0.0,0.0,0.0,0.0,0.0,0.0,0.0,0.0,0.0,0.0,0.0,0.0,0.0,0.0,0.0,0.0,0.0,0.0,0.0,0.0,0.0,0.0,0.0,0.0,0.0,0.0,0.0,0.0,0.0,0.0,0.0,0.0,0.0,0.0,0.0,0.0,0.0,0.0,0.0,0.0,0.0,0.0,0.0,0.0,0.0,0.0,0.0,0.0,0.0,0.0,0.0,1.1223,1.0681,1.0842,1.1758,1.3727,1.2996,1.3186,1.4967,0.0,0.0,0.0,0.0,0.0,0.0,0.0,0.0,0.0,0.0,0.0,0.0,0.0,0.0,0.0,0.0,0.0,0.0,0.0,0.0,0.0,0.0,0.0,0.0,0.0,0.0,0.0,0.0,0.0,0.0,0.0,0.0,0.0,0.0,0.0,0.0,0.0,0.0,0.0,0.0,0.0,0.0,0.0,0.0,0.0,0.0,0.0,0.0,0.0,0.0,0.0,0.0,0.0,0.0,0.0,0.0,0.0,0.0,0.0,0.0,0.0,0.0,0.0,0.0,0.0,0.0,0.0,0.0,0.0,0.0,0.0,0.0,0.0,0.0,0.0,0.0,0.0,0.0,0.0,0.0,0.0,0.0,0.0,0.0,0.0,0.0,0.0,0.0,0.0,0.0,0.0,0.0,0.0,0.0,0.0,0.0,0.0,0.0,0.0,0.0,0.0,0.0,0.0,0.0,1.1296,1.0962,1.0969,1.1508,1.2818,1.1931,1.1969,1.3688,0.0,0.0,0.0,0.0,0.0,0.0,0.0,0.0,0.0,0.0,0.0,0.0,0.0,0.0,0.0,0.0,0.0,0.0,0.0,0.0,0.0,0.0,0.0,0.0,0.0,0.0,0.0,0.0,0.0,0.0,0.0,0.0,0.0,0.0,0.0,0.0,0.0,0.0,0.0,0.0,0.0,0.0,0.0,0.0,0.0,0.0,0.0,0.0,0.0,0.0,0.0,0.0,0.0,0.0,0.0,0.0,0.0,0.0,0.0,0.0,0.0,0.0,0.0,0.0,0.0,0.0,0.0,0.0,0.0,0.0,0.0,0.0,0.0,0.0,0.0,0.0,0.0,0.0,0.0,0.0,0.0,0.0,0.0,0.0,0.0,0.0,0.0,0.0,0.0,0.0,0.0,0.0,0.0,0.0,0.0,0.0,0.0,0.0,0.0,0.0,0.0,0.0,0.0,1.1136,1.0909,1.0775,1.0755,1.1382,1.2733,1.2348,1.2814,1.4584,1.4395,0.0,0.0,0.0,0.0,0.0,0.0,0.0,0.0,0.0,0.0,0.0,0.0,0.0,0.0,0.0,0.0,0.0,0.0,0.0,0.0,0.0,0.0,0.0,0.0,0.0,0.0,0.0,0.0,0.0,0.0,0.0,0.0,0.0,0.0,0.0,0.0,0.0,0.0,0.0,0.0,0.0,0.0,0.0,0.0,0.0,0.0,0.0,0.0,0.0,0.0,0.0,0.0,0.0,0.0,0.0,0.0,0.0,0.0,0.0,0.0,0.0,0.0,0.0,0.0,0.0,0.0,0.0,0.0,0.0,0.0,0.0,0.0,0.0,0.0,0.0,0.0,0.0,0.0,0.0,0.0,0.0,0.0,0.0,0.0,0.0,0.0,0.0,0.0,0.0,0.0,0.0,0.0,0.0,0.0,0.0,0.0,0.0,0.0,0.0,0.0,0.0,0.0,1.0782,1.0624,1.0624,1.0624,1.1233,1.2887,1.2826,1.3547,1.5491,1.4841,0.0,0.0,0.0,0.0,0.0,0.0,0.0,0.0,0.0,0.0,0.0,0.0,0.0,0.0,0.0,0.0,0.0,0.0,0.0,0.0,0.0,0.0,0.0,0.0,0.0,0.0,0.0,0.0,0.0,0.0,0.0,0.0,0.0,0.0,0.0,0.0,0.0,0.0,0.0,0.0,0.0,0.0,0.0,0.0,0.0,0.0,0.0,0.0,0.0,0.0,0.0,0.0,0.0,0.0,0.0,0.0,0.0,0.0,0.0,0.0,0.0,0.0,0.0,0.0,0.0,0.0,0.0,0.0,0.0,0.0,0.0,0.0,0.0,0.0,0.0,0.0,0.0,0.0,0.0,0.0,0.0,0.0,0.0,0.0,0.0,0.0,0.0,0.0,0.0,0.0,0.0,0.0,0.0,0.0,0.0,0.0,0.0,0.0,0.0,0.0,0.0,0.0,1.0909,1.0624,1.0624,1.0624,1.1233,1.2887,1.2328,1.2869,1.5183,1.4765,0.0,0.0,0.0,0.0,0.0,0.0,0.0,0.0,0.0,0.0,0.0,0.0,0.0,0.0,0.0,0.0,0.0,0.0,0.0,0.0,0.0,0.0,0.0,0.0,0.0,0.0,0.0,0.0,0.0,0.0,0.0,0.0,0.0,0.0,0.0,0.0,0.0,0.0,0.0,0.0,0.0,0.0,0.0,0.0,0.0,0.0,0.0,0.0,0.0,0.0,0.0,0.0,0.0,0.0,0.0,0.0,0.0,0.0,0.0,0.0,0.0,0.0,0.0,0.0,0.0,0.0,0.0,0.0,0.0,0.0,0.0,0.0,0.0,0.0,0.0,0.0,0.0,0.0,0.0,0.0,0.0,0.0,0.0,0.0,0.0,0.0,0.0,0.0,0.0,0.0,0.0,0.0,0.0,0.0,0.0,0.0,0.0,0.0,0.0,0.0,0.0,0.0,1.1076,1.0762,0.0,1.0394,1.0941,1.25,1.2155,1.3008,1.5656,0.0,0.0,0.0,0.0,0.0,0.0,0.0,0.0,0.0,0.0,0.0,0.0,0.0,0.0,0.0,0.0,0.0,0.0,0.0,0.0,0.0,0.0,0.0,0.0,0.0,0.0,0.0,0.0,0.0,0.0,0.0,0.0,0.0,0.0,0.0,0.0,0.0,0.0,0.0,0.0,0.0,0.0,0.0,0.0,0.0,0.0,0.0,0.0,0.0,0.0,0.0,0.0,0.0,0.0,0.0,0.0,0.0,0.0,0.0,0.0,0.0,0.0,0.0,0.0,0.0,0.0,0.0,0.0,0.0,0.0,0.0,0.0,0.0,0.0,0.0,0.0,0.0,0.0,0.0,0.0,0.0,0.0,0.0,0.0,0.0,0.0,0.0,0.0,0.0,0.0,0.0,0.0,0.0,0.0,0.0,0.0,0.0,0.0,0.0,0.0,0.0,0.0,1.145,1.1089,1.0782,0.0,1.0472,1.0936,1.2305,1.2295,1.3182,1.5352,0.0,0.0,0.0,0.0,0.0,0.0,0.0,0.0,0.0,0.0,0.0,0.0,0.0,0.0,0.0,0.0,0.0,0.0,0.0,0.0,0.0,0.0,0.0,0.0,0.0,0.0,0.0,0.0,0.0,0.0,0.0,0.0,0.0,0.0,0.0,0.0,0.0,0.0,0.0,0.0,0.0,0.0,0.0,0.0,0.0,0.0,0.0,0.0,0.0,0.0,0.0,0.0,0.0,0.0,0.0,0.0,0.0,0.0,0.0,0.0,0.0,0.0,0.0,0.0,0.0,0.0,0.0,0.0,0.0,0.0,0.0,0.0,0.0,0.0,0.0,0.0,0.0,0.0,0.0,0.0,0.0,0.0,0.0,0.0,0.0,0.0,0.0,0.0,0.0,0.0,0.0,0.0,0.0,0.0,0.0,0.0,0.0,0.0,0.0,0.0,0.0,0.0,1.1423,1.0915,1.0618,1.0611,1.0873,1.1449,1.2347,1.269,1.3244,0.0,0.0,0.0,0.0,0.0,0.0,0.0,0.0,0.0,0.0,0.0,0.0,0.0,0.0,0.0,0.0,0.0,0.0,0.0,0.0,0.0,0.0,0.0,0.0,0.0,0.0,0.0,0.0,0.0,0.0,0.0,0.0,0.0,0.0,0.0,0.0,0.0,0.0,0.0,0.0,0.0,0.0,0.0,0.0,0.0,0.0,0.0,0.0,0.0,0.0,0.0,0.0,0.0,0.0,0.0,0.0,0.0,0.0,0.0,0.0,0.0,0.0,0.0,0.0,0.0,0.0,0.0,0.0,0.0,0.0,0.0,0.0,0.0,0.0,0.0,0.0,0.0,0.0,0.0,0.0,0.0,0.0,0.0,0.0,0.0,0.0,0.0,0.0,0.0,0.0,0.0,0.0,0.0,0.0,0.0,0.0,0.0,0.0,0.0,0.0,0.0,0.0,0.0,1.1149,1.0608,1.0343,1.0651,1.0572,1.1043,1.2204,1.2201,1.2855,1.4544,0.0,0.0,0.0,0.0,0.0,0.0,0.0,0.0,0.0,0.0,0.0,0.0,0.0,0.0,0.0,0.0,0.0,0.0,0.0,0.0,0.0,0.0,0.0,0.0,0.0,0.0,0.0,0.0,0.0,0.0,0.0,0.0,0.0,0.0,0.0,0.0,0.0,0.0,0.0,0.0,0.0,0.0,0.0,0.0,0.0,0.0,0.0,0.0,0.0,0.0,0.0,0.0,0.0,0.0,0.0,0.0,0.0,0.0,0.0,0.0,0.0,0.0,0.0,0.0,0.0,0.0,0.0,0.0,0.0,0.0,0.0,0.0,0.0,0.0,0.0,0.0,0.0,0.0,0.0,0.0,0.0,0.0,0.0,0.0,0.0,0.0,0.0,0.0,0.0,0.0,0.0,0.0,0.0,0.0,0.0,0.0,0.0,0.0,0.0,0.0,0.0,0.0,1.1029,1.0481,1.0233,1.0659,1.0722,1.1108,1.2193,1.2278,1.2679,1.3714,0.0,0.0,0.0,0.0,0.0,0.0,0.0,0.0,0.0,0.0,0.0,0.0,0.0,0.0,0.0,0.0,0.0,0.0,0.0,0.0,0.0,0.0,0.0,0.0,0.0,0.0,0.0,0.0,0.0,0.0,0.0,0.0,0.0,0.0,0.0,0.0,0.0,0.0,0.0,0.0,0.0,0.0,0.0,0.0,0.0,0.0,0.0,0.0,0.0,0.0,0.0,0.0,0.0,0.0,0.0,0.0,0.0,0.0,0.0,0.0,0.0,0.0,0.0,0.0,0.0,0.0,0.0,0.0,0.0,0.0,0.0,0.0,0.0,0.0,0.0,0.0,0.0,0.0,0.0,0.0,0.0,0.0,0.0,0.0,0.0,0.0,0.0,0.0,0.0,0.0,0.0,0.0,0.0,0.0,0.0,0.0,0.0,0.0,0.0,0.0,0.0,0.0,1.085,1.0289,1.0091,1.0457,1.0973,1.1536,1.2183,1.2638,1.275,1.2428,0.0,0.0,0.0,0.0,0.0,0.0,0.0,0.0,0.0,0.0,0.0,0.0,0.0,0.0,0.0,0.0,0.0,0.0,0.0,0.0,0.0,0.0,0.0,0.0,0.0,0.0,0.0,0.0,0.0,0.0,0.0,0.0,0.0,0.0,0.0,0.0,0.0,0.0,0.0,0.0,0.0,0.0,0.0,0.0,0.0,0.0,0.0,0.0,0.0,0.0,0.0,0.0,0.0,0.0,0.0,0.0,0.0,0.0,0.0,0.0,0.3291,0.0,0.0,0.0,0.0,0.0,0.0,0.0,0.0,0.0,0.0,0.0,0.0,0.0,0.0,0.0,0.0,0.0,0.0,0.0,0.0,0.0,0.0,0.0,0.0,0.0,0.0,0.0,0.0,0.0,0.0,0.0,0.0,0.0,0.0,0.0,0.0,0.0,0.0,0.0,0.0,0.0,0.9768,0.9083,0.8727,0.9065,1.0187,1.1192,1.1849,1.2508,1.3007,1.3221,1.2553,0.0,0.0,0.0,0.0,0.0,0.0,0.0,0.0,0.0,0.0,0.0,0.0,0.0,0.0,0.0,0.0,0.0,0.0,0.0,0.0,0.0,0.0,0.0,0.0,0.0,0.0,0.0,0.0,0.0,0.0,0.0,0.0,0.0,0.0,0.0,0.0,0.0,0.0,0.0,0.0,0.0,0.0,0.0,0.0,0.0,0.0,0.0,0.0,0.0,0.0,0.0,0.0,0.0,0.0,0.0,0.0,0.0,0.0,0.0,0.0,0.2261,0.0,0.0,0.0,0.0,0.0,0.0,0.0,0.0,0.0,0.0,0.0,0.0,0.0,0.0,0.0,0.0,0.0,0.0,0.0,0.0,0.0,0.0,0.0,0.0,0.0,0.0,0.0,0.0,0.0,0.0,0.0,0.0,0.0,0.0,0.0,0.0,0.0,0.0,0.0,0.0,0.8816,0.8215,0.8056,0.8762,0.9396,1.0238,1.1216,1.1981,1.2438,1.2645,1.192,0.0,0.0,0.0,0.0,0.0,0.0,0.0,0.0,0.0,0.0,0.0,0.0,0.0,0.0,0.0,0.0,0.0,0.0,0.0,0.0,0.0,0.0,0.0,0.0,0.0,0.0,0.0,0.0,0.0,0.0,0.0,0.0,0.0,0.0,0.0,0.0,0.0,0.0,0.0,0.0,0.0,0.0,0.0,0.0,0.0,0.0,0.0,0.0,0.0,0.0,0.0,0.0,0.0,-0.6208,-0.6505,-0.6097,-0.7739,-0.8473,-0.8275,-0.5006,-0.2252,-0.0136,0.0069,0.0,0.0,0.0,0.0,0.0,0.0,0.0,0.0,0.0,0.0,0.0,0.0,0.0,0.0,0.0,0.0,0.0,0.0,0.0,0.0,0.0,0.0,0.0,0.0,0.7966,0.8102,0.0,0.0,0.0,0.0,0.0,0.0,0.0,0.0,0.0,0.0,0.0,0.0,0.8078,0.7341,0.7206,0.8131,0.853,0.9148,1.0348,1.1157,1.1616,1.1616,1.1316,1.1359,0.0,0.0,0.0,0.0,0.0,0.0,0.0,0.0,0.0,0.0,0.0,0.0,0.0,0.0,0.0,0.0,0.0,0.0,0.0,0.0,0.0,0.0,0.0,0.0,0.0,0.0,0.0,0.0,0.0,0.0,0.0,0.0,1.2104,1.3449,0.0,0.0,0.0,0.0,0.0,0.0,0.0,0.0,0.0,0.0,0.0,0.0,0.0,-0.368,-0.4221,-0.7578,-0.9114,-0.878,-1.135,-1.2287,-1.1705,-1.1981,-1.2027,-1.1879,-1.1363,0.0,-0.5421,-0.5641,0.0,0.0,0.0,0.0,0.0,0.0,0.0,0.0,0.0,0.0,0.0,0.0,0.0,0.0,0.0,0.0,0.0,0.0,0.0,0.0,0.0,0.0,0.1947,0.5224,0.6128,0.5703,0.0,0.6726,0.9458,0.8797,0.9001,0.0,0.0,0.0,0.0,0.0,0.0,0.0,0.7361,0.6092,0.5139,0.5106,0.7258,0.8783,0.894,1.0187,1.0914,1.0914,1.0643,1.0654,1.1189,1.0822,0.0,0.0,0.0,0.0,0.0,0.0,0.0,0.0,0.0,0.0,0.0,0.0,0.0,0.0,0.0,0.0,0.0,0.0,0.0,0.0,0.0,0.0,0.0,0.0,0.0,0.0,0.0,0.0,0.0,1.2095,1.0856,1.2157,0.9244,0.7756,0.0,0.0,0.0,0.0,0.0,0.0,0.0,0.0,0.0,-0.5876,-0.704,-0.8453,-1.034,-1.1871,-1.2538,-1.2426,-1.3494,-1.37,-1.3216,-1.2981,-1.2972,-1.3159,-1.2578,-1.12,-0.9226,-0.8351,-0.64,-0.3954,0.0,0.0,0.0,0.0,-0.0514,-0.1024,-0.2607,-0.3124,0.0,-0.4268,0.0,0.0,0.0,0.0,0.0,0.0,0.0,0.0,0.0,0.0,0.0918,0.3591,0.4924,0.5348,0.4389,0.5046,0.5674,0.0,0.6364,0.7004,0.5912,0.0,0.0,0.0,0.0,0.5544,0.5044,0.4487,0.4273,0.4611,0.6128,0.7351,0.8084,0.9051,0.9859,1.0491,1.0386,1.0543,1.1071,1.076,1.0815,0.0,0.0,0.0,0.0,0.0,0.0,0.0,0.0,0.0,0.0,0.0,0.0,0.0,0.0,0.0,0.0,0.0,0.0,0.0,0.0,0.0,0.0,0.0,0.0,0.0,0.0,0.0,0.0,1.0823,0.8973,1.0239,0.7016,0.5222,0.0,0.0,0.0,0.0,0.0,0.0,-0.3845,-0.5896,-0.8034,-1.026,-1.1106,-1.2652,-1.5031,-1.4883,-1.4715,-1.4597,-1.4181,-1.3631,-1.307,-1.265,-1.2617,-1.2854,-1.1992,-1.1461,-1.1012,-0.9713,-0.8081,-0.6225,-0.5287,-0.495,-0.4879,-0.3658,-0.3512,-0.4089,-0.5962,-0.6425,-0.6318,-0.6988,-0.675,-0.581,-0.3654,0.0,0.0,0.0,0.0,-0.1487,-0.0453,-0.0648,-0.0325,0.2387,0.3549,0.4255,0.5215,0.3601,0.1987,0.0,0.3251,0.4029,0.3163,0.0,0.0,0.0,0.0,0.5351,0.3887,0.31,0.3229,0.4671,0.5232,0.5971,0.7311,0.8072,0.8878,0.9966,1.0122,1.047,1.113,1.0822,1.0823,1.1304,0.0,0.0,0.0,0.0,0.0,0.0,0.0,0.0,0.0,0.0,0.0,0.0,0.0,0.0,0.0,0.0,0.0,0.0,0.0,0.0,0.0,0.0,0.0,0.0,0.0,0.0,0.0,0.0,0.0,0.766,0.3931,0.0,0.0,0.0,0.0,-0.1451,-0.4971,-0.7593,-0.8963,-1.2111,-1.4319,-1.5323,-1.5603,-1.568,-1.5352,-1.5546,-1.5137,-1.4189,-1.3563,-1.2818,-1.2074,-1.1392,-1.1038,-1.0933,-1.0629,-1.0194,-0.982,-0.9888,-0.9616,-0.9069,-0.8501,-0.8371,-0.8339,-0.689,-0.6379,-0.65,-0.7288,-0.7111,-0.6944,-0.9051,-0.9305,-0.8387,-0.6018,-0.4846,0.0,0.0,-0.3758,-0.4725,-0.2458,-0.2976,-0.2918,0.1666,0.1476,0.1214,0.4684,0.2622,0.014,0.0,0.0211,0.0787,0.247,0.0,0.098,0.2948,0.4975,0.6032,0.538,0.2271,0.1399,0.4528,0.4713,0.5106,0.6549,0.7343,0.8159,0.9218,0.9563,1.0189,1.1264,1.0822,1.1065,1.2121,1.139,0.0,0.0,0.0,0.0,0.0,0.0,0.0,0.0,0.0,0.0,0.0,0.0,0.0,0.0,0.0,0.0,0.0,0.0,0.0,0.0,0.0,0.0,0.0,0.0,0.0,0.0,0.0,0.0,0.6736,0.0616,0.0,-0.1651,-0.2085,-0.3458,-0.5666,-0.9132,-1.1609,-1.2873,-1.4557,-1.5642,-1.5951,-1.5894,-1.5778,-1.5604,-1.4579,-1.3923,-1.3563,-1.2565,-1.1826,-1.1197,-1.0623,-1.0166,-0.9716,-0.889,-0.8485,-0.8466,-0.8064,-0.8281,-0.8845,-0.828,-0.8371,-0.8694,-0.8084,-0.8047,-0.8355,-0.8725,-0.8598,-0.8388,-0.8831,-0.8959,-0.8618,-0.6772,-0.6136,-0.5899,-0.4781,-0.5293,-0.6191,-0.6205,-0.6584,-0.5624,-0.0333,0.0469,0.0337,0.1619,0.2719,0.3507,0.3494,0.1563,0.0217,0.0881,0.0442,0.0224,0.1001,0.1721,0.2179,0.1942,0.0764,0.0463,0.1611,0.3527,0.4841,0.5226,0.6303,0.7449,0.8484,0.9284,0.9924,1.0509,1.0581,1.0792,1.1142,1.09,1.1189,0.0,0.0,0.0,0.0,0.0,0.0,0.0,0.0,0.0,0.0,0.0,0.0,0.0,0.0,0.0,0.0,0.0,0.0,0.0,0.0,0.0,0.0,0.0,0.0,0.0,0.0,-0.2749,0.0855,-0.3981,-0.7026,-0.549,-0.5898,-0.7267,-0.9646,-1.2192,-1.4127,-1.5274,-1.5806,-1.6056,-1.5951,-1.572,-1.5362,-1.4883,-1.3734,-1.2879,-1.2304,-1.1384,-1.0524,-0.9856,-0.9395,-0.8886,-0.8336,-0.7529,-0.7254,-0.7257,-0.6501,-0.6857,-0.7803,-0.7573,-0.7741,-0.8078,-0.8021,-0.8172,-0.849,-0.8549,-0.849,-0.8366,-0.7982,-0.8022,-0.7945,-0.6998,-0.6814,-0.682,-0.6185,-0.6345,-0.6898,-0.7686,-0.8184,-0.73,-0.2604,-0.0738,-0.0,-0.0,0.2829,0.5373,0.5398,0.3559,0.1751,0.1175,0.1038,0.1059,0.1182,0.0529,-0.0,-0.0,-0.0,0.0201,0.0682,0.2644,0.4249,0.512,0.6267,0.7343,0.8447,0.9467,1.0133,1.0516,1.0708,1.0985,1.1302,1.1145,1.143,1.2305,0.0,0.0,0.0,0.0,0.0,0.0,0.0,0.0,0.0,0.0,0.0,0.0,0.0,0.0,0.0,0.0,0.0,0.0,0.0,0.0,0.0,0.0,0.0,-0.5015,-0.8637,-1.1096,-0.9933,-0.988,-1.0481,-1.192,-0.9584,-0.9497,-1.3245,-1.4085,-1.4942,-1.5999,-1.6056,-1.5951,-1.5672,-1.542,-1.4628,-1.3191,-1.3009,-1.2058,-1.0425,-0.9945,-0.9109,-0.7928,-0.7604,-0.7157,-0.6584,-0.6538,-0.6429,-0.623,-0.5541,-0.5506,-0.603,-0.6634,-0.6806,-0.6683,-0.6858,-0.6859,-0.6859,-0.6736,-0.6675,-0.6675,-0.6675,-0.6679,-0.6745,-0.6863,-0.6863,-0.6868,-0.6863,-0.6863,-0.6872,-0.6679,-0.7569,-0.7764,-0.4976,-0.2083,-0.0,0.0135,0.2896,0.5339,0.5396,0.564,0.5225,0.3456,0.3228,0.3304,0.3628,0.1675,0.0,0.0075,0.0071,0.066,0.2047,0.2279,0.347,0.6315,0.7119,0.798,0.9092,1.006,1.0774,1.1227,1.1314,1.1812,1.2631,1.2144,1.2024,1.2305,0.0,0.0,0.0,0.0,0.0,0.0,0.0,0.0,0.0,0.0,0.0,0.0,0.0,0.0,0.0,0.0,0.0,0.0,0.0,0.0,0.0,0.0,-1.3317,-0.7001,-1.105,-1.3385,-0.9972,-1.2716,-1.4307,-1.2987,-1.1759,-1.1705,-1.329,-1.3892,-1.4419,-1.5059,-1.5059,-1.4815,-1.4255,-1.3846,-1.3235,-1.2358,-1.1114,-1.0179,-0.9545,-0.8538,-0.7462,-0.6375,-0.6117,-0.5387,-0.4284,-0.4108,-0.3906,-0.3758,-0.3691,-0.364,-0.3872,-0.5236,-0.6081,-0.6465,-0.651,-0.6531,-0.6531,-0.6465,-0.6465,-0.6465,-0.6465,-0.6626,-0.6713,-0.6573,-0.6693,-0.6709,-0.5969,-0.6226,-0.6527,-0.5984,-0.6395,-0.6557,-0.472,-0.2075,0.069,0.3318,0.3632,0.3825,0.5179,0.5616,0.5686,0.5295,0.5346,0.5481,0.5529,0.4994,0.0,0.2205,0.1984,0.2181,0.2761,0.3866,0.4804,0.5426,0.6727,0.7555,0.7677,0.926,1.0323,1.0409,1.0674,1.1026,1.1434,1.1959,1.2225,0.0,0.0,0.0,0.0,0.0,0.0,0.0,0.0,0.0,0.0,0.0,0.0,0.0,0.0,0.0,0.0,0.0,0.0,0.0,0.0,0.0,0.0,-1.7978,-1.989,-1.5703,-1.7781,-1.857,-1.53,-1.627,-1.6441,-1.4376,-1.2771,-1.2249,-1.3269,-1.3314,-1.3623,-1.4341,-1.4085,-1.3768,-1.327,-1.2533,-1.1727,-1.0857,-0.9336,-0.8318,-0.7678,-0.6772,-0.5776,-0.4737,-0.4672,-0.4085,-0.3136,-0.3055,-0.2927,-0.2833,-0.2884,-0.2833,0.0,0.0,0.0,0.0,0.0,-0.5209,-0.514,-0.555,-0.5348,-0.5077,-0.5477,-0.5473,-0.5258,-0.5372,-0.5383,-0.5205,-0.4645,-0.4855,-0.5096,-0.4604,-0.5182,-0.5444,-0.3802,-0.0489,0.2858,0.4965,0.4579,0.4156,0.5176,0.5559,0.0,0.5882,0.6159,0.6287,0.6349,0.6357,0.5728,0.4291,0.3935,0.3858,0.3904,0.4634,0.5244,0.543,0.6842,0.0,0.0,0.0,1.0595,1.0842,1.1015,0.0,0.0,0.0,1.2425,1.2305,0.0,0.0,0.0,1.1042,1.0894,0.0,0.0,0.0,0.0,0.0,0.0,0.0,0.0,0.0,0.0,0.0,0.0,0.0,0.0,0.0,0.0,-2.3076,-2.5929,-2.6589,-2.5677,-2.4259,-2.2425,-1.9597,-1.7144,-1.5475,-1.2806,-1.1673,-1.2841,-1.2358,-1.2496,-1.3537,0.0,0.0,0.0,0.0,-1.0084,-0.8849,-0.7663,-0.6494,-0.5328,-0.48,-0.4012,-0.3085,-0.3243,-0.3061,-0.2602,-0.2617,-0.2548,-0.2485,-0.2422,-0.2334,-0.2332,-0.2988,-0.3105,-0.3049,-0.3524,-0.342,-0.3218,-0.4167,0.0,0.0,-0.4092,-0.3825,-0.3228,-0.3708,-0.3566,-0.3215,-0.3225,-0.322,-0.3212,-0.3065,-0.4111,-0.4692,-0.2839,0.1547,0.5408,0.5379,0.5393,0.5379,0.5376,0.5504,0.5654,0.5779,0.604,0.6285,0.6427,0.6377,0.6193,0.602,0.5639,0.5372,0.5162,0.0,0.0,0.5876,0.7212,0.8097,0.8297,0.9971,1.1196,1.175,1.1804,1.2078,1.2714,1.2755,1.2565,1.2305,1.2718,1.1854,0.9685,0.9383,0.9413,0.0,0.0,0.0,0.0,0.0,0.0,0.0,0.0,0.0,0.0,0.0,0.0,0.0,0.0,0.0,-2.0519,-2.4132,-2.6604,-2.6079,-2.4726,-2.3175,-2.1383,-1.9105,-1.6592,-1.3914,-1.1963,-1.0856,-1.0806,-1.1001,-1.108,-1.1017,-1.0801,-1.0418,-0.9736,-0.9093,-0.8066,-0.6706,-0.5636,-0.4578,-0.3661,0.0,0.0,-0.1863,-0.1918,-0.1846,-0.1538,-0.0592,-0.0332,-0.0463,0.0132,0.0332,0.0133,-0.2277,-0.3215,-0.3135,-0.2679,-0.2415,-0.2415,-0.3224,-0.3768,-0.3974,-0.3291,-0.3496,-0.3922,-0.3174,-0.2856,0.0,-0.2584,-0.2723,-0.3003,-0.3306,-0.4204,-0.4923,-0.4559,0.0578,0.5383,0.5393,0.5389,0.5376,0.5432,0.5579,0.5769,0.5796,0.5952,0.6125,0.6278,0.6149,0.5989,0.5864,0.5701,0.5572,0.5511,0.5481,0.548,0.5545,0.7122,0.8057,0.7824,0.9643,1.0802,1.1149,1.139,1.1677,1.2031,1.2271,1.2358,1.2305,1.1725,1.0785,0.9533,1.011,0.9371,0.0,0.0,0.0,0.0,0.0,0.0,0.0,0.0,0.0,0.0,0.0,-1.3671,0.0,0.0,-2.1723,-2.4027,-2.6109,-2.7063,-2.5942,-2.3412,-2.1297,-2.0286,-1.7308,-1.4457,-1.2322,-0.9801,-0.8466,-0.8856,-0.8753,-0.8907,-0.9366,-0.8703,-0.8184,-0.7931,-0.6612,-0.5432,-0.4521,-0.3193,-0.2264,-0.1732,-0.0801,-0.0395,-0.0386,-0.0065,-0.0065,-0.0194,0.0458,0.0861,0.1138,0.1873,0.1941,0.1475,-0.0067,-0.0871,-0.1006,-0.0805,-0.0805,-0.0939,-0.161,-0.2083,-0.2288,-0.1744,-0.1677,-0.1751,-0.1295,-0.0976,-0.0715,-0.0579,-0.0672,-0.0769,-0.1,-0.1631,-0.2098,-0.2097,0.1615,0.5135,0.5067,0.5287,0.546,0.5442,0.6077,0.6462,0.5885,0.643,0.6771,0.6325,0.6196,0.6091,0.5935,0.5786,0.5671,0.5596,0.5454,0.5362,0.5428,0.7078,0.8424,0.9137,1.0084,1.0755,1.1189,1.1349,1.1637,1.2078,1.2231,1.2305,1.2305,1.2056,1.1331,1.025,1.0228,0.9079,0.0,0.0,0.0,0.0,0.0,0.0,0.0,0.0,-1.2878,-1.4221,-1.5864,-1.8093,-2.1589,-2.267,-2.4199,-2.7742,-2.7805,-2.6833,-2.515,-2.0825,-1.7431,-1.6424,-1.3727,-1.1371,-0.9695,-0.6938,-0.5661,-0.6634,-0.6155,-0.6298,-0.7261,-0.6221,-0.5698,-0.5952,-0.4043,-0.279,-0.2262,-0.0801,0.0067,0.0467,0.1469,0.1714,0.1221,0.1798,0.1728,0.1211,0.1409,0.1951,0.2718,0.3326,0.3266,0.2739,0.2538,0.2274,0.1811,0.1142,0.0941,0.0806,-0.0,-0.0201,-0.0067,-0.0,0.0609,0.1222,0.0959,0.1345,0.1687,0.1474,0.1597,0.1724,0.1489,0.1411,0.14,0.151,0.3263,0.4882,0.4944,0.5319,0.5628,0.573,0.6714,0.7256,0.6577,0.7331,0.7706,0.649,0.6338,0.6207,0.6051,0.5922,0.5779,0.5606,0.5365,0.5383,0.5877,0.7377,0.8935,1.0498,1.0624,1.0822,1.1403,1.1423,1.1703,1.2291,1.2305,1.2305,1.2305,1.2545,1.2113,1.0952,1.0169,0.8973,0.1836,0.0297,-0.2163,-0.488,-0.7345,-0.9799,0.0,0.0,-1.9682,-2.0927,-2.4564,-2.7737,-2.8578,-2.8885,-2.9211,-3.0071,-2.7844,-2.5006,-2.2113,-1.5355,-0.9329,-0.5571,-0.7121,-0.7323,-0.4448,-0.3577,-0.33,-0.3443,-0.3379,-0.3247,-0.3109,-0.2913,-0.2783,-0.2654,-0.1795,-0.0866,0.0133,0.0933,0.1934,0.3072,0.3207,0.3226,0.3073,0.32,0.29,0.246,0.3286,0.4038,0.4708,0.4957,0.5005,0.4938,0.4938,0.4872,0.4541,0.2482,0.2221,0.2695,0.1075,0.0941,0.1419,0.1592,0.2374,0.3174,0.3171,0.3454,0.3563,0.232,0.2735,0.3299,0.2275,0.2746,0.3573,0.408,0.4609,0.5129,0.5527,0.5599,0.5894,0.6917,0.7199,0.7646,0.8602,0.8981,0.8466,0.6567,0.6338,0.6207,0.6051,0.6013,0.5898,0.562,0.5559,0.6158,0.7587,0.8619,0.9594,1.0561,1.0624,1.0822,1.1403,1.1423,1.1703,1.2291,1.2305,1.2305,1.2305,1.2338,1.1819,1.0836,0.9932,0.9076,-0.2546,-0.4243,0.0,0.0,-1.551,-1.687,-2.0587,-2.3098,-2.4863,-2.5664,-2.7739,-2.9282,-2.8842,-2.9317,-2.9207,0.0,-2.7623,-2.517,-1.6946,-1.0458,-0.4508,0.1078,0.1957,0.2081,0.1922,0.2103,0.1821,0.0851,0.0394,-0.0066,-0.0661,-0.0331,-0.0,0.0199,0.1195,0.1997,0.2533,0.359,0.4389,0.4926,0.5172,0.5121,0.4729,0.4588,0.4276,0.3811,0.5029,0.5593,0.5702,0.684,0.681,0.6001,0.626,0.5932,0.5143,0.3885,0.3422,0.3355,0.2619,0.2622,0.2965,0.354,0.4079,0.4644,0.4736,0.5012,0.5124,0.4425,0.4618,0.4882,0.4285,0.4201,0.4425,0.4921,0.4837,0.4991,0.6118,0.6478,0.6917,0.7967,0.8821,0.928,0.9108,0.9659,0.9664,0.8237,0.8008,0.7977,0.7895,0.769,0.7446,0.7241,0.6642,0.6989,0.8816,0.9162,0.9658,1.0561,1.0624,1.0822,1.1403,1.1423,1.1703,1.2291,1.2305,1.2305,1.2305,1.2305,1.2077,1.162,1.0668,0.9823,-0.4875,0.0,0.0,-1.8571,-2.0563,-2.1629,-2.5568,-2.6909,-2.735,-2.7593,-2.8147,-2.8396,-2.7949,-2.6714,-2.4986,-2.2686,-2.263,-1.952,-0.9995,-0.4385,0.0851,0.662,0.9695,1.059,0.8777,0.7701,0.6434,0.481,0.424,0.3472,0.2306,0.2711,0.3045,0.3302,0.4082,0.4602,0.4801,0.5732,0.6293,0.6421,0.6795,0.6745,0.6307,0.6173,0.5854,0.5579,0.6695,0.7024,0.6931,0.8364,0.8328,0.7307,0.7697,0.7177,0.6195,0.5738,0.4942,0.4077,0.409,0.4164,0.437,0.494,0.5294,0.5527,0.5627,0.5854,0.6005,0.583,0.5798,0.5852,0.5679,0.5222,0.5032,0.5638,0.5532,0.5678,0.7208,0.7671,0.8084,0.9143,1.0109,1.0574,1.0092,1.0666,1.0938,1.0276,1.0126,0.99,0.9372,0.8958,0.8725,0.8631,0.7952,0.8113,0.9571,0.9681,0.9919,1.0561,1.0698,1.0902,1.1403,1.1503,1.1784,1.2291,1.2305,1.2305,1.2305,1.2305,1.2305,1.2305,1.1242,1.0503,0.0,0.0,-1.3182,-1.6569,-1.9522,-2.2143,-2.4448,-2.5633,-2.6145,-2.5839,-2.5838,-2.6221,-2.7324,-2.1088,-1.5923,-1.6195,-1.0401,-0.4588,-0.0947,0.3619,0.796,1.1764,1.4693,1.6247,0.0,1.2503,0.9604,0.7964,0.7848,0.7501,0.6742,0.6555,0.6555,0.6746,0.6641,0.6675,0.692,0.6973,0.724,0.7731,0.7785,0.7835,0.7925,0.7841,0.783,0.7854,0.8366,0.8651,0.864,0.9226,0.9448,0.939,0.9454,0.9128,0.8613,0.8091,0.678,0.5276,0.5276,0.5411,0.5509,0.5518,0.5562,0.5658,0.56,0.5718,0.5868,0.5653,0.5721,0.5864,0.5653,0.5581,0.5864,0.6861,0.7275,0.7699,0.8807,0.9025,0.9374,1.049,1.0657,1.0948,1.2018,1.2218,1.2224,1.2224,1.2224,1.1477,0.9523,0.9168,0.9093,0.9088,0.9386,0.9644,0.9716,1.0199,1.0561,1.0624,1.0822,1.1116,1.1416,1.1703,1.1997,1.2291,1.2305,1.2305,1.2305,1.2305,1.2305,1.2305,1.1242,1.1059,0.0,0.0,-1.4172,-1.7164,-1.9263,-2.0824,-2.1703,-2.1278,-2.0469,-2.0042,-1.8709,-1.7599,-1.7505,-1.3552,-0.9745,-0.8162,-0.4045,0.0569,0.5303,0.9298,1.205,1.2658,1.3895,0.0,0.0,0.0,0.0,1.1813,1.0733,0.9825,0.9156,0.8372,0.8004,0.7975,0.8032,0.8048,0.7887,0.828,0.8598,0.8657,0.8598,0.8367,0.7955,0.8154,0.8094,0.7955,0.894,0.9176,0.8968,1.008,1.0292,0.9894,1.0205,1.0078,0.9594,0.9509,0.9102,0.8276,0.6626,0.6398,0.6953,0.7096,0.7815,0.8558,0.8704,0.8754,0.8641,0.8217,0.7934,0.7663,0.7129,0.6718,0.6639,0.7372,0.7456,0.7863,0.9306,0.9878,1.0417,1.1569,1.1771,1.1819,1.2211,1.2305,1.2305,1.2305,1.2305,1.2004,1.1155,1.0472,1.0205,1.06,1.006,0.9922,1.052,1.0593,1.0705,1.0835,1.0942,1.1209,1.1697,1.1817,1.2004,1.2291,1.2305,1.2305,1.2305,1.2305,1.2305,1.2311,1.2192,1.1845,-0.864,-1.2043,-1.4441,-1.6148,-1.6958,-1.7249,-1.6943,-1.5938,-1.4744,-1.3716,-1.2172,-1.037,-0.842,-0.5189,-0.1335,0.3325,0.5257,0.7611,1.1693,1.3038,1.3442,1.3003,1.2989,1.3184,0.0,0.0,0.0,1.4012,1.2679,1.1706,1.1207,1.0079,0.9525,0.9528,0.9471,0.9271,0.9014,0.9225,0.9289,0.9276,0.9363,0.9173,0.8784,0.9072,0.9043,0.8948,1.0058,1.0275,0.9937,1.1212,1.1348,1.078,1.1163,1.0968,1.0504,1.0607,1.0573,1.0157,0.8482,0.8213,0.8696,0.8744,0.9321,1.0102,1.0143,1.0125,1.0045,0.9655,0.9358,0.899,0.8275,0.7842,0.7729,0.8358,0.8467,0.8831,1.0379,1.0973,1.1417,1.2191,1.2305,1.2305,1.2305,1.2305,1.2305,1.2305,1.2305,1.2231,1.2051,1.1584,1.1369,1.1686,1.0987,1.0647,1.1089,1.0975,1.0909,1.0989,1.1189,1.1476,1.1857,1.1971,1.2111,1.2298,1.2305,1.2305,1.2305,1.2305,1.2358,1.2465,1.2735,1.255,-0.9395,-1.1966,-1.3924,-1.3456,-1.2646,-1.1638,-1.0356,-0.9745,-0.9016,-0.7118,-0.6187,-0.4465,0.0,0.0,0.9099,1.699,1.6972,1.6443,1.8037,1.4961,1.2682,0.0,0.0,0.0,0.0,0.0,0.0,1.4772,0.0,1.3126,1.2963,1.1716,1.1175,1.1441,1.0905,1.0494,1.0301,0.9714,0.9517,0.9614,0.9982,1.0206,1.0359,1.0617,1.0701,1.0773,1.1709,1.1799,1.151,1.2437,1.2536,1.2182,1.212,1.1809,1.1409,1.1531,1.1304,1.0883,1.0716,1.0679,1.0698,1.0227,1.0292,1.0444,1.0232,1.0159,1.0086,1.0074,1.0062,0.9862,0.9085,0.8888,0.9085,0.9892,1.0158,1.0621,1.1817,1.2177,1.2305,1.2305,1.2305,1.2305,1.2305,1.2305,1.2305,1.2305,1.2285,1.2285,1.2298,1.2285,1.2271,1.2258,1.1997,1.1703,1.141,1.1396,1.1289,1.1035,1.155,1.1877,1.1891,1.2151,1.2305,1.2305,1.2305,1.2305,1.2305,1.2318,1.2472,1.2822,1.2856,1.31,-1.041,-1.1133,-1.021,-0.9021,-0.7534,-0.5982,-0.4222,-0.2763,-0.1258,0.0377,0.2225,0.4381,0.0,0.0,0.0,1.8967,2.0645,0.0,2.0355,1.7711,0.0,1.432,0.0,1.3169,1.4585,1.4983,0.0,0.0,1.5026,1.3716,1.3974,1.3152,1.2384,1.1963,1.1894,1.148,1.0506,1.0075,0.9888,0.9895,1.0283,1.0664,1.1048,1.1668,1.1991,1.2072,1.2781,1.2966,1.2805,1.2929,1.2956,1.2964,1.2613,1.2375,1.229,1.2439,1.236,1.2305,1.2611,1.2319,1.1774,1.1416,1.1964,1.265,1.234,1.1915,1.152,1.122,1.0741,1.0242,0.9964,1.0005,1.0188,1.0672,1.1064,1.141,1.176,1.2024,1.2305,1.2305,1.2305,1.2305,1.2305,1.2305,1.2305,1.2305,1.2118,1.2058,1.2271,1.2118,1.1897,1.1677,1.139,1.1096,1.0808,1.0982,1.1162,1.1309,1.1663,1.1964,1.2184,1.2265,1.2305,1.2305,1.2305,1.2305,1.2305,1.2525,1.2748,1.2835,1.3206,1.3494,-0.5969,-0.5914,-0.4531,-0.3057,-0.1644,-0.0191,0.1348,0.282,0.425,0.5596,0.6986,0.0,0.0,0.0,0.0,0.0,0.0,0.0,2.2157,1.9991,1.7868,0.0,1.5078,0.0,1.5752,1.6128,1.6775,0.0,1.5939,1.5056,1.5603,1.4531,1.3579,1.2813,1.2752,1.2167,1.0863,1.071,1.0659,1.0667,1.0968,1.1336,1.1873,1.241,1.2723,1.2952,0.0,1.3749,1.3514,1.3656,1.3563,1.3268,1.3033,1.2805,1.2607,1.2758,1.292,1.3041,1.3218,1.3031,1.2762,1.2527,1.2917,1.3393,1.3067,1.2868,1.2508,1.2053,1.1737,1.1452,1.0856,1.0943,1.1243,1.1375,1.1629,1.1846,1.2222,1.2284,1.2305,1.2305,1.2305,1.2305,1.2305,1.2305,1.2305,1.2305,1.2164,1.2118,1.2278,1.1937,1.161,1.1443,1.1283,1.1116,1.0955,1.1209,1.145,1.161,1.1897,1.2349,1.2872,1.2519,1.2519,1.2879,1.2519,1.2365,1.2498,1.2741,1.2879,1.3146,1.3487,1.3714,0.1554,0.161,0.2329,0.4072,0.4899,0.557,0.6438,0.7307,0.819,0.9075,0.0,1.0763,1.4639,0.0,1.7959,2.3339,0.0,2.375,2.3888,2.2232,2.0374,1.8796,1.7861,1.7412,1.7625,1.808,1.834,1.8265,1.7568,1.7175,1.7256,1.5953,1.48,1.3965,1.3461,1.2661,1.1506,1.1565,1.1648,1.1657,1.1826,1.2156,1.2714,1.2989,1.3316,1.3733,1.4323,1.435,1.3983,1.4469,1.4231,1.3511,1.345,1.3155,1.2846,1.3012,1.3178,1.3349,1.3227,1.3384,1.3646,1.3422,1.3297,1.3304,1.3201,1.3256,1.3237,1.2802,1.2829,1.2826,1.184,1.197,1.2244,1.2095,1.2102,1.2287,1.2933,1.2776,1.2586,1.2659,1.2659,1.2659,1.2659,1.2592,1.2519,1.2519,1.2338,1.2245,1.2245,1.1797,1.147,1.143,1.139,1.1369,1.1369,1.1643,1.183,1.1864,1.2283,1.2879,1.3673,1.2994,1.2942,1.374,1.291,1.2552,1.2882,1.2923,1.3133,1.3559,1.3687,1.3841,0.844,0.8533,0.9374,1.2496,1.1947,1.0721,1.1033,1.0868,0.0,0.0,0.0,1.2823,1.6529,1.8879,0.0,2.569,0.0,0.0,0.0,0.0,2.3982,0.0,0.0,0.0,0.0,0.0,0.0,0.0,0.0,2.039,1.7699,1.7092,1.6358,1.5362,1.3887,1.3105,1.3092,1.257,1.2355,1.2355,1.2687,1.2969,1.3209,1.3786,1.4318,1.4743,1.5081,0.0,1.5059,1.4824,1.4656,1.4597,1.4061,1.3872,1.3967,1.4179,1.4108,1.3934,1.4095,1.4346,1.453,1.3754,1.3507,1.3552,1.3818,1.3719,1.3499,1.3438,1.3264,1.3135,1.3156,1.3239,1.3352,1.3415,1.3295,1.3266,1.3411,1.3715,1.4091,1.4593,1.4665,1.4665,1.4665,1.4027,1.3455,1.3455,1.2597,1.1944,1.1944,1.1857,1.1697,1.145,1.1209,1.1069,1.1069,1.1336,1.1603,1.1857,1.2855,1.3528,1.3673,1.3793,1.3932,1.4082,1.3376,1.308,1.3133,1.3367,1.354,1.3654,1.3895,1.4041,1.5282,1.5225,1.5478,1.6765,1.5705,1.4194,1.3733,0.0,0.0,0.0,0.0,1.3889,1.7733,0.0,0.0,0.0,0.0,0.0,0.0,0.0,0.0,0.0,0.0,0.0,0.0,0.0,0.0,0.0,0.0,2.2764,2.0378,1.8608,1.7322,1.6578,1.5049,1.4292,1.444,1.3863,1.3609,1.3609,1.3766,1.4051,1.434,1.4656,1.5049,1.5489,1.5573,0.0,1.5662,1.543,1.5245,1.5001,1.4765,1.4529,1.4369,1.4508,1.4529,1.454,1.4656,1.4848,1.5094,1.4816,1.4584,1.4348,1.4155,1.403,1.3947,1.3707,1.3584,1.3592,1.3584,1.3706,1.3874,1.3962,1.4209,1.4274,1.3977,1.453,1.5092,1.5163,1.5234,1.5234,1.5234,1.4807,1.4314,1.3818,1.3187,1.2662,1.2163,1.2091,1.1924,1.147,1.1296,1.1283,1.1436,1.2054,1.2543,1.2856,1.3863,1.4665,1.5226,1.5073,1.4969,1.4895,1.433,1.3822,1.344,1.3574,1.3728,1.3874,1.4021,1.4088,2.1219,2.0882,2.0417,1.9648,1.8207,1.6741,1.5684,1.4453,0.0,0.0,0.0,1.4603,0.0,0.0,0.0,0.0,0.0,0.0,0.0,0.0,0.0,0.0,0.0,0.0,0.0,0.0,0.0,0.0,0.0,0.0,2.2392,1.9758,1.8029,1.7489,1.6271,1.5658,1.5701,1.5173,1.4963,1.5068,1.4856,1.4945,1.5352,1.5345,1.5477,1.583,1.5816,0.0,0.0,1.5856,1.5662,1.541,1.5352,1.5118,1.4834,1.4928,1.5055,1.5209,1.5099,1.5394,1.579,1.5725,1.554,1.5238,1.4744,1.4633,1.4514,1.4112,1.408,1.4148,1.3893,1.4016,1.4201,1.4346,1.4848,1.5267,1.495,1.5446,1.5956,1.5807,1.5799,1.5799,1.5799,1.5658,1.5234,1.445,1.4171,1.3665,1.2732,1.2592,1.2335,1.1663,1.1557,1.1686,1.2127,1.2917,1.3542,1.4011,1.495,1.5903,1.6693,1.6416,1.6218,1.6154,1.5605,1.4981,1.4377,1.4377,1.442,1.4412,1.4412,1.4362,2.5111,2.45,2.3268,2.239,2.0434,1.8488,1.7396,0.0,0.0,0.0,1.4138,1.5197,1.779,0.0,0.0,0.0,0.0,2.762,0.0,0.0,0.0,0.0,0.0,0.0,0.0,0.0,0.0,0.0,0.0,0.0,2.1077,1.9564,1.8578,1.8024,1.7129,1.6763,1.7015,1.6178,1.6074,1.6607,1.5608,1.5303,1.5674,1.5463,1.5406,1.5467,1.5666,0.0,0.0,1.5798,1.5836,1.5999,1.5904,1.5894,1.5992,1.6228,1.6098,1.5791,1.5575,1.6172,1.6855,1.5781,1.5614,1.5804,1.5992,1.5762,1.5426,1.5321,1.4974,1.4561,1.453,1.4545,1.4641,1.4991,1.5551,1.6035,1.6585,1.6872,1.7166,1.7647,1.7725,1.7725,1.7725,1.707,1.6428,1.6349,1.5579,1.4665,1.3673,1.36,1.3215,1.2298,1.1984,1.2184,1.312,1.3259,1.3816,1.4996,1.593,1.6659,1.7108,1.7367,1.7658,1.8006,1.7372,1.7009,1.6968,1.6968,1.6487,1.5538,1.5538,1.5127,2.6774,2.615,2.5034,2.3902,2.1925,1.9911,1.8643,0.0,0.0,1.4982,1.4914,1.5623,1.7719,0.0,0.0,0.0,0.0,0.0,0.0,0.0,0.0,0.0,0.0,0.0,0.0,0.0,0.0,0.0,0.0,0.0,2.216,2.0706,1.9658,1.9162,1.8337,1.7855,1.7875,1.7367,1.7158,1.7321,1.6885,1.6787,1.6882,1.6841,1.6609,1.6343,1.643,0.0,0.0,1.6009,1.5999,1.6114,1.6066,1.6066,1.6134,1.6338,1.6229,1.607,1.6277,1.6665,1.701,1.6809,1.6921,1.703,1.6627,1.6245,1.5965,1.5965,1.5824,1.5542,1.5213,1.4856,1.4641,1.4713,1.548,1.6237,1.6515,1.7157,1.7725,1.794,1.8008,1.8008,1.8008,1.7716,1.7285,1.6706,1.628,1.572,1.4736,1.4099,1.381,1.4019,1.341,1.2913,1.2697,1.4308,1.5286,1.5226,1.6872,1.7877,1.8048,1.8692,1.8816,1.8285,1.8355,1.7989,1.7342,1.7342,1.6764,1.5703,1.5898,1.5397,2.7813,2.7227,2.6064,2.4923,2.2875,2.0795,0.0,0.0,0.0,1.569,1.548,1.5969,1.7814,1.9386,2.139,2.4288,0.0,3.0093,0.0,0.0,0.0,0.0,0.0,0.0,0.0,0.0,0.0,0.0,0.0,0.0,2.3511,2.1779,2.051,1.9798,1.9239,1.8815,1.8494,1.817,1.7995,1.8104,1.7765,1.7722,1.7886,1.7611,1.739,1.7168,1.6888,0.0,0.0,1.6228,1.6114,1.6181,1.6181,1.6253,1.6376,1.6512,1.6595,1.6622,1.6829,1.7102,1.7336,1.7506,1.7846,1.7998,1.7295,1.6872,1.6524,1.6376,1.6026,1.5683,1.5355,1.5133,1.5054,1.4982,1.5895,1.6802,1.6802,1.7442,1.8008,1.8008,1.8008,1.8008,1.8008,1.8008,1.7794,1.7139,1.6991,1.6636,1.5728,1.5111,1.4856,1.518,1.4904,1.4416,1.3665,1.5429,1.6473,1.6245,1.7736,1.875,1.9004,1.959,1.9583,1.9007,1.9293,1.9116,1.831,1.8423,1.7736,1.6353,1.6599,1.5994,2.85,2.7967,2.6387,2.5496,2.3208,2.0922,0.0,0.0,0.0,1.5855,1.5715,1.6279,1.8126,1.9855,2.1713,2.3863,2.6072,0.0,0.0,0.0,0.0,0.0,0.0,0.0,0.0,0.0,0.0,0.0,0.0,0.0,2.4567,2.2546,2.0921,1.985,1.9798,1.954,1.8987,1.8375,1.8375,1.8987,1.7941,1.7722,1.8278,1.739,1.7279,1.7611,0.0,0.0,0.0,1.6343,1.6239,1.6384,1.6384,1.6653,1.6977,1.6977,1.7265,1.7657,1.7284,1.7567,1.806,1.7735,1.7912,1.8269,1.8269,1.7784,1.7097,1.6446,1.5471,1.4641,1.4641,1.5471,1.6306,1.6306,1.7157,1.8008,1.8008,1.8008,1.8008,1.8008,1.8008,1.8008,1.8008,1.8008,1.8008,1.8008,1.8008,1.7647,1.6706,1.6919,1.666,1.5346,1.6358,1.7009,1.6594,1.6567,1.7158,1.8453,1.8562,1.9014,1.9863,1.9912,2.0117,2.0547,2.0557,2.0566,2.0566,2.0936,1.997,1.7803,1.8156,1.7121,2.8088,2.7547,2.6299,2.5344,2.3714,2.1889,2.0144,0.0,0.0,0.0,1.5693,1.59,1.7985,1.9672,2.1872,2.5386,2.794,0.0,0.0,0.0,0.0,0.0,0.0,0.0,0.0,0.0,0.0,0.0,0.0,0.0,2.3938,2.2991,2.1846,2.0497,2.0156,1.9708,1.9117,1.8946,1.8881,1.8987,1.8655,1.8667,1.8905,1.8625,1.8452,0.0,0.0,0.0,0.0,1.6332,1.6355,1.6652,1.6652,1.6929,1.7318,1.7451,1.7482,1.7543,1.7543,1.7704,1.793,1.782,1.8055,1.8269,1.8269,1.8066,1.7725,1.751,1.6664,1.5745,1.5745,1.5471,1.5125,1.5125,1.5879,1.6643,1.6797,1.7311,1.7948,1.8298,1.8437,1.8437,1.8437,1.8437,1.834,1.8057,1.8008,1.7968,1.7961,1.7537,1.7279,1.7506,1.7642,1.7097,1.578,1.704,1.7906,1.7682,1.8807,1.9629,1.9902,2.0195,2.042,2.0566,2.0566,2.0713,2.1025,2.1172,2.0255,1.8439,1.784,1.6867,0.0,2.7549,2.6402,2.5547,2.4111,0.0,0.0,0.0,0.0,0.0,0.0,1.6068,1.8035,1.9869,2.2304,2.5978,2.8871,0.0,0.0,0.0,0.0,0.0,0.0,0.0,0.0,0.0,0.0,0.0,0.0,0.0,2.3998,2.3275,2.2267,2.0845,2.0446,1.9914,1.9235,1.917,1.9117,1.9052,1.8999,1.9052,1.9117,1.8946,1.8839,0.0,0.0,0.0,0.0,1.6644,1.6601,1.6878,1.7052,1.7451,1.7842,1.7915,1.8018,1.8109,1.8109,1.81,1.8117,1.8071,1.8128,1.8134,1.793,1.7725,1.7442,1.7442,1.6603,1.5683,1.5683,1.5267,1.4927,1.4927,1.5513,1.618,1.6578,1.7082,1.7736,1.8463,1.8562,1.8691,1.8857,1.8887,1.8789,1.8535,1.8496,1.8584,1.8848,1.8499,1.8392,1.8825,1.8746,1.811,1.6866,1.8062,1.8658,1.822,1.9312,1.999,2.0156,2.042,2.0644,2.081,2.082,2.1035,2.1484,2.1119,2.0574,1.9686,1.8603,1.7552,0.0,0.0,0.0,0.0,0.0,0.0,0.0,0.0,0.0,0.0,0.0,1.6564,1.8091,2.0205,2.2687,2.5505,2.8795,0.0,0.0,0.0,0.0,0.0,0.0,0.0,0.0,0.0,0.0,0.0,0.0,0.0,2.4627,2.354,2.2267,2.0845,2.066,2.0169,1.9235,1.9052,1.9052,1.9182,1.9105,1.904,1.904,1.8583,1.8607,0.0,0.0,0.0,0.0,1.7265,1.7049,1.7121,1.7605,1.804,1.8433,1.8433,1.8702,1.9075,1.8875,1.8674,1.8482,1.8347,1.8134,1.7872,1.7382,1.6959,1.6603,1.6603,1.5621,1.4641,1.4673,1.5086,1.5434,1.5468,1.5876,1.6412,1.6959,1.7125,1.7394,1.8383,1.8611,1.8747,1.9258,1.9336,1.9316,1.9287,1.9287,1.9297,1.9326,1.9678,1.9766,1.9375,1.9707,1.9785,1.9365,1.9336,1.9502,1.9893,1.9941,2.0146,2.0547,2.0596,2.081,2.123,2.1289,2.1523,2.1934,2.1191,2.1029,2.1293,2.0034,1.8864,2.6559,0.0,2.5842,2.5022,0.0,0.0,0.0,0.0,0.0,0.0,0.0,1.6623,1.7029,1.8871,2.1037,2.3363,0.0,0.0,0.0,0.0,0.0,0.0,0.0,0.0,0.0,0.0,0.0,0.0,0.0,2.4791,2.4477,2.3807,2.262,2.0845,2.0746,2.0258,1.9235,1.917,1.917,1.9182,1.9263,1.9368,1.9473,1.9263,1.9223,0.0,0.0,0.0,1.8181,1.7706,1.7761,1.8071,1.8185,1.8506,1.8909,1.8909,1.8982,1.9065,1.9075,1.8875,1.8674,1.8405,1.793,1.752,1.7373,1.7235,1.695,1.6524,1.5833,1.5342,1.5607,1.5266,1.4856,1.521,1.5348,1.5551,1.584,1.6137,1.6729,1.8237,1.854,1.882,1.9623,1.9766,1.9658,1.9336,1.9287,1.9404,1.9727,1.9853,1.9873,1.9775,2.0156,2.0234,1.9805,1.9766,1.9814,1.9902,2.0225,2.0459,2.0634,2.0898,2.1123,2.123,2.1875,2.2266,2.2363,2.2515,2.2124,2.1293,2.0034,1.8864,2.5194,2.5488,2.5491,2.4871,2.3967,0.0,0.0,0.0,0.0,0.0,0.0,0.0,1.6255,0.0,0.0,0.0,0.0,0.0,0.0,0.0,0.0,0.0,0.0,0.0,0.0,0.0,0.0,0.0,0.0,2.5002,2.4477,2.3866,2.2665,2.0845,2.0795,2.0308,1.9328,1.9223,1.9182,1.9182,1.921,1.9251,1.9316,1.9242,1.9244,0.0,0.0,0.0,1.8405,1.8124,1.8164,1.8402,1.8609,1.8847,1.8998,1.9075,1.9008,1.8808,1.8942,1.8808,1.8607,1.8405,1.7862,1.7342,1.7171,1.6874,1.6546,1.6158,1.5621,1.5111,1.5299,1.5114,1.4943,1.5141,1.5189,1.5322,1.5863,1.601,1.6547,1.8397,1.8742,1.9024,2.0061,2.0215,2.0137,1.9912,1.9873,1.9951,2.0185,2.0215,2.0215,2.0215,2.042,2.0557,2.0527,2.0527,2.0527,2.0527,2.0547,2.0654,2.0869,2.1103,2.1426,2.1816,2.2471,2.2803,2.2803,2.3027,2.2765,2.212,2.0845,1.967,2.4006,2.4784,2.5272,2.4823,2.3918,2.2727,0.0,0.0,0.0,0.0,0.0,0.0,0.0,0.0,0.0,0.0,0.0,0.0,0.0,0.0,0.0,0.0,0.0,0.0,0.0,0.0,0.0,0.0,0.0,2.5333,2.4579,2.3835,2.2708,2.1109,2.0972,2.0515,1.9613,1.9401,1.9223,1.9182,1.9189,1.9214,1.9185,1.9177,1.916,1.9137,0.0,0.0,1.8507,1.8521,1.8485,1.8526,1.892,1.9008,1.8808,1.9008,1.8875,1.8549,1.8674,1.859,1.8436,1.8221,1.7686,1.7107,1.6794,1.6353,1.5896,1.5804,1.5297,1.4808,1.4863,1.507,1.5276,1.5324,1.53,1.5482,1.622,1.618,1.6536,1.8464,1.884,1.921,2.0411,2.0566,2.0566,2.0566,2.0566,2.0566,2.0566,2.0566,2.0566,2.0566,2.0625,2.082,2.1201,2.1299,2.1367,2.1426,2.0947,2.0869,2.1318,2.1396,2.1797,2.2598,2.2959,2.3135,2.3135,2.3135,2.3047,2.2775,2.1756,2.0657,2.2582,2.3864,2.4676,2.4109,2.2951,2.1649,0.0,0.0,0.0,0.0,0.0,0.0,0.0,0.0,0.0,0.0,0.0,0.0,0.0,0.0,0.0,0.0,0.0,0.0,0.0,0.0,0.0,0.0,0.0,2.4927,2.4694,2.4077,2.3294,2.2247,2.1751,2.1174,2.0572,1.9875,1.942,1.9235,1.9875,2.0151,2.0025,1.9889,1.9833,1.9806,0.0,1.8989,1.9,1.9007,1.8961,1.8971,1.9044,1.9008,1.8808,1.9008,1.8942,1.8741,1.8617,1.838,1.8066,1.7555,1.6829,1.6161,1.6147,1.5947,1.5739,1.5759,1.5591,1.5586,1.5888,1.5785,1.5674,1.5975,1.5825,1.5695,1.5819,1.5787,1.6242,1.7888,1.8208,1.872,2.0333,2.0566,2.0566,2.0566,2.0566,2.0566,2.0566,2.0566,2.0566,2.0566,2.0908,2.1162,2.123,2.1572,2.1943,2.2295,2.1572,2.1328,2.1768,2.2129,2.2539,2.3027,2.3105,2.3135,2.3135,2.3135,2.258,2.1569,2.1382,2.0657,2.0231,2.1233,2.1806,2.1739,2.245,0.0,0.0,0.0,0.0,0.0,0.0,0.0,0.0,0.0,0.0,0.0,0.0,0.0,0.0,0.0,0.0,0.0,0.0,0.0,0.0,0.0,0.0,0.0,0.0,0.0,2.4284,2.3983,2.3354,2.2348,2.1911,2.1425,2.0929,2.0539,2.0238,1.9944,2.0317,2.0314,1.9999,1.9901,1.9749,1.9493,0.0,1.9075,1.9075,1.9075,1.9075,1.8942,1.8942,1.8741,1.8569,1.8733,1.8672,1.8542,1.8516,1.8299,1.7996,1.7585,1.6996,1.6446,1.6573,1.6297,1.5999,1.619,1.5975,1.5713,1.588,1.5944,1.5999,1.6166,1.6079,1.6015,1.6206,1.6103,1.6455,1.8066,1.846,1.8906,2.0372,2.0566,2.0566,2.0566,2.0566,2.0566,2.0566,2.0566,2.0566,2.0566,2.0967,2.1328,2.1562,2.1982,2.2207,2.2178,2.2012,2.2012,2.2217,2.2412,2.2715,2.3135,2.3135,2.3135,2.3135,2.3135,2.2775,2.2217,2.1569,2.0657,1.7573,1.8532,1.9195,0.0,0.0,0.0,0.0,0.0,0.0,0.0,0.0,0.0,0.0,0.0,0.0,0.0,0.0,0.0,0.0,0.0,0.0,0.0,0.0,0.0,0.0,0.0,0.0,0.0,0.0,0.0,2.4002,2.3934,2.3433,2.242,2.2084,2.1699,2.1308,2.118,2.0955,2.061,2.0637,2.0393,2.0004,1.9879,1.9613,1.9286,1.9183,1.9075,1.9075,1.9075,1.907,1.9028,1.8826,1.8546,1.8191,1.8299,1.835,1.8305,1.8328,1.8146,1.7789,1.7471,1.7011,1.6698,1.6834,1.658,1.6404,1.6762,1.6412,1.592,1.592,1.6126,1.6349,1.6436,1.646,1.6555,1.6905,1.6706,1.6855,1.8334,1.8709,1.9163,2.0186,2.0566,2.0684,2.0576,2.0566,2.0605,2.0713,2.0723,2.0762,2.0859,2.1269,2.1709,2.2139,2.2471,2.2519,2.2197,2.248,2.2617,2.2519,2.2607,2.2812,2.3135,2.3135,2.296,2.2677,2.2677,2.2403,2.1774,2.1212,2.0215,1.4865,1.6818,1.8524,0.0,0.0,0.0,0.0,0.0,0.0,0.0,0.0,0.0,0.0,0.0,0.0,0.0,0.0,0.0,0.0,0.0,0.0,0.0,0.0,0.0,0.0,0.0,0.0,0.0,0.0,0.0,2.4312,2.4083,2.3716,2.3259,2.253,2.2139,2.2139,2.1608,2.1124,2.0622,2.0712,2.0684,2.0526,2.0101,1.9879,1.9824,1.932,1.9075,1.9075,1.9075,1.9323,1.9637,1.8854,1.8309,1.7926,1.7712,1.7938,1.8267,1.78,1.7462,1.7157,1.6759,1.6439,1.6253,1.6277,1.6436,1.677,1.7135,1.6961,1.6659,1.6659,1.6675,1.6778,1.7119,1.7199,1.7294,1.762,1.7437,1.7451,1.8129,1.8785,1.9317,1.9585,2.0502,2.1045,2.0625,2.0566,2.0713,2.1133,2.1182,2.1348,2.1748,2.2168,2.2588,2.3018,2.3076,2.3076,2.3057,2.3076,2.292,2.2529,2.2891,2.3105,2.3135,2.3135,2.258,2.1382,2.1382,2.0305,1.8141,1.9131,1.8956,1.2338,1.4343,1.6069,0.0,0.0,0.0,0.0,0.0,0.0,0.0,0.0,0.0,0.0,0.0,0.0,0.0,0.0,0.0,0.0,0.0,0.0,0.0,0.0,0.0,0.0,0.0,0.0,0.0,0.0,0.0,2.4289,2.3858,2.3386,2.2944,2.2543,2.2173,2.1827,2.1514,2.129,2.1032,2.078,2.0482,2.0176,1.9976,1.9736,1.9407,1.9198,1.9297,1.9499,1.8932,1.9273,1.9981,1.8942,1.8165,1.7596,1.7752,1.7778,1.7752,1.77,1.7448,1.7091,1.67,1.6581,1.6532,1.6532,1.6786,1.7104,1.7239,1.7326,1.7334,1.7127,1.7072,1.7104,1.7247,1.7278,1.731,1.7437,1.7366,1.7459,1.7796,1.8854,1.9722,1.9975,2.0924,2.1582,2.1416,2.1387,2.1445,2.1621,2.1641,2.1699,2.1865,2.2266,2.2685,2.3105,2.3135,2.3135,2.3135,2.3135,2.3066,2.291,2.3057,2.3135,2.3135,2.2403,2.1756,2.1293,2.0576,1.967,1.8864,1.9314,1.8864,1.0192,1.1742,1.3084,0.0,0.0,0.0,0.0,0.0,0.0,0.0,0.0,0.0,0.0,0.0,0.0,0.0,0.0,0.0,0.0,0.0,0.0,0.0,0.0,0.0,0.0,0.0,0.0,0.0,0.0,0.0,0.0,2.3551,2.3027,2.2482,2.2223,2.1889,2.1313,2.1071,2.0921,2.0853,2.049,2.0281,2.0083,1.9801,1.9473,1.9075,1.8941,1.9254,1.9699,1.8689,1.8711,1.9261,1.8629,1.7926,1.7209,1.7456,1.7388,1.7174,1.7363,1.7218,1.6973,1.6732,1.673,1.6754,1.6873,1.708,1.7326,1.754,1.7683,1.7747,1.7628,1.7517,1.7461,1.7572,1.7604,1.7636,1.7747,1.7683,1.7696,1.7853,1.888,1.9795,2.0071,2.1023,2.1771,2.1904,2.1885,2.1934,2.207,2.209,2.2139,2.2266,2.2539,2.2822,2.3115,2.3135,2.3135,2.3135,2.3135,2.3135,2.3135,2.3135,2.3135,2.3135,2.1933,2.1114,2.0755,1.9497,1.8672,1.8303,1.8303,1.7855,0.8483,0.9188,0.0,0.0,0.0,0.0,0.0,0.0,0.0,0.0,0.0,0.0,0.0,0.0,0.0,0.0,0.0,0.0,0.0,0.0,0.0,0.0,0.0,0.0,0.0,0.0,0.0,0.0,0.0,0.0,0.0,2.3374,2.2834,2.1939,2.1678,2.125,2.0571,2.0129,1.9878,1.9889,1.9823,2.0033,2.0479,1.9551,1.9085,1.9106,1.8715,1.8974,1.9661,1.8429,1.764,1.7318,1.7852,1.7448,1.673,1.673,1.673,1.673,1.673,1.673,1.673,1.673,1.6738,1.681,1.7167,1.7286,1.7429,1.8105,1.8049,1.7866,1.8216,1.8041,1.7866,1.8216,1.8295,1.8398,1.8748,1.8541,1.8295,1.8295,1.8921,1.9511,1.9727,2.0662,2.1485,2.187,2.1894,2.2051,2.2461,2.2519,2.2676,2.3096,2.3135,2.3135,2.3135,2.3135,2.3135,2.3135,2.3135,2.3135,2.3135,2.3135,2.3047,2.3047,2.1943,2.0666,1.9497,1.8226,1.7037,1.5832,1.5832,1.5832,0.8313,0.0,0.0,0.0,0.0,0.0,0.0,0.0,0.0,0.0,0.0,0.0,0.0,0.0,0.0,0.0,0.0,0.0,0.0,0.0,0.0,0.0,0.0,0.0,0.0,0.0,0.0,0.0,0.0,0.0,0.0,2.2871,2.2322,2.1577,2.1514,2.1008,2.0129,2.0257,2.0322,2.0237,2.0232,2.0128,2.0033,2.0014,1.9737,1.9171,1.9014,1.8947,1.8957,1.8905,1.8127,1.6984,1.7713,1.7448,1.673,1.673,1.673,1.673,1.673,1.673,1.673,1.673,1.6905,1.7135,1.7247,1.762,1.8033,1.824,1.8406,1.8451,1.8478,1.8514,1.8478,1.8335,1.8295,1.8327,1.843,1.8375,1.8134,1.7721,1.8213,1.8962,1.9852,2.043,2.1262,2.2515,2.2764,2.2812,2.2939,2.2949,2.2998,2.3125,2.3135,2.3135,2.3135,2.3135,2.3135,2.3135,2.3135,2.3135,2.3135,2.3135,2.2677,2.1845,2.0666,1.9405,1.8226,1.6943,1.6197,1.5832,1.5832,1.5832,0.8301,0.0,0.0,0.0,0.0,0.0,0.0,0.0,0.0,0.0,0.0,0.0,0.0,0.0,0.0,0.0,0.0,0.0,0.0,0.0,0.0,0.0,0.0,0.0,0.0,0.0,0.0,0.0,0.0,0.0,0.0,2.2249,2.1796,2.1164,2.1175,2.0719,1.9881,2.009,2.0021,1.9646,1.9828,1.9725,1.9357,1.9725,1.9476,1.882,1.8917,1.855,1.7926,1.8541,1.7997,1.673,1.7286,1.7123,1.673,1.673,1.673,1.673,1.673,1.6484,1.6252,1.6739,1.6836,1.6893,1.751,1.7705,1.7689,1.7902,1.7719,1.7598,1.7426,1.7512,1.7732,1.8292,1.8336,1.8328,1.7948,1.785,1.7523,1.6867,1.7125,1.768,1.8667,1.8969,1.9827,2.1845,2.2677,2.3135,2.3135,2.3135,2.3135,2.3135,2.3135,2.3135,2.3135,2.3135,2.3135,2.3135,2.3135,2.3135,2.3135,2.2677,2.2031,2.1293,1.967,1.8411,1.7692,1.6386,1.5885,1.6005,1.6005,1.6005,0.0,0.0,0.0,0.0,0.0,0.0,0.0,0.0,0.0,0.0,0.0,0.0,0.0,0.0,0.0,0.0,0.0,0.0,0.0,0.0,0.0,0.0,0.0,0.0,0.0,0.0,0.0,0.0,0.0,0.0,0.0,2.16,2.1335,2.0817,2.0804,2.0497,1.9889,1.9792,1.9384,1.866,1.9025,1.8985,1.8579,1.9041,1.886,1.8192,1.8348,1.7777,1.673,1.7521,1.7448,1.673,1.673,1.6754,1.6786,1.6786,1.6704,1.6613,1.6613,1.6004,1.5452,1.6638,1.6513,1.6124,1.7555,1.741,1.6755,1.7123,1.6546,1.5798,1.5798,1.5798,1.6177,1.7815,1.8195,1.8094,1.7397,1.7016,1.6553,1.5893,1.5704,1.5886,1.6713,1.6807,1.7624,2.0189,2.2031,2.3135,2.3135,2.3135,2.3135,2.3135,2.3135,2.3135,2.3135,2.3135,2.3135,2.3135,2.296,2.295,2.295,2.1845,2.1203,2.1114,1.8864,1.7707,1.7549,1.64,1.5992,1.6313,1.6286,1.6286,0.0,0.0,0.0,0.0,0.0,0.0,0.0,0.0,0.0,0.0,0.0,0.0,0.0,0.0,0.0,0.0,0.0,0.0,0.0,0.0,0.0,0.0,0.0,0.0,0.0,0.0,0.0,0.0,0.0,0.0,2.1451,2.1525,2.1263,2.0557,2.0924,2.0849,2.0286,1.9975,1.9787,0.0,1.9354,1.8985,1.8364,1.9141,1.9026,1.825,1.746,1.6985,1.673,1.6894,1.6894,1.673,1.673,1.6913,1.7159,1.7159,1.673,1.603,1.603,1.5261,1.4341,1.4905,1.5074,1.5253,1.5791,1.5982,1.6001,1.6062,1.5981,1.5798,1.552,1.5615,1.5893,1.6001,1.619,1.6466,1.6929,1.6459,1.5893,1.5527,1.5051,1.5038,1.6324,1.6129,1.6865,2.009,2.2031,2.3135,2.3135,2.3135,2.3135,2.3135,2.3135,2.3135,2.3135,2.3135,2.3135,2.3135,2.2217,2.1667,2.1667,2.148,2.0845,1.9943,1.8411,1.7348,1.656,1.6034,1.6099,1.6607,1.638,1.6393,0.0,0.0,0.0,0.0,0.0,0.0,0.0,0.0,0.0,0.0,0.0,0.0,0.0,0.0,0.0,0.0,0.0,0.0,0.0,0.0,0.0,0.0,0.0,0.0,0.0,0.0,0.0,0.0,0.0,2.125,2.0688,2.0908,2.0733,1.9908,2.036,2.0388,2.0022,1.9495,1.9222,1.9136,1.8569,1.8144,1.7781,1.8336,1.8175,1.7538,1.7057,1.6812,1.673,1.673,1.673,1.673,1.673,1.6695,1.6746,1.6568,1.6144,1.5647,1.5317,1.4554,1.3767,1.4349,1.432,1.4257,1.5133,1.5093,1.4961,1.5007,1.4758,1.4376,1.4196,1.4286,1.4376,1.4669,1.514,1.5615,1.5615,1.5229,1.4758,1.4292,1.3811,1.3811,1.4644,1.5102,1.6296,1.8983,2.0828,2.2208,2.296,2.2589,2.2217,2.2217,2.1765,2.14,2.14,2.14,2.14,2.14,2.0764,2.0473,2.0654,2.0113,1.9475,1.8832,1.7779,1.6995,1.648,1.6326,1.648,1.6914,1.676,1.6774,0.0,0.0,0.0,0.0,0.0,0.0,0.0,0.0,0.0,0.0,0.0,0.0,0.0,0.0,0.0,0.0,0.0,0.0,0.0,0.0,0.0,0.0,0.0,0.0,0.0,0.0,0.0,0.0,0.0,2.0828,1.9868,2.025,2.0156,1.9393,1.983,1.9944,1.9726,1.8877,1.833,1.8228,1.7526,1.7116,1.696,1.7115,1.7057,1.6812,1.6976,1.6844,1.657,1.6507,1.6523,1.6405,1.6405,1.627,1.5965,1.5836,1.5585,1.5232,1.4628,1.3868,1.3191,1.3943,1.3686,1.3242,1.4466,1.4285,1.3714,1.3945,1.3465,1.2813,1.2775,1.2791,1.3008,1.3534,1.4388,1.486,1.4292,1.4004,1.3522,1.2958,1.2764,1.2764,1.2764,1.4262,1.5934,1.7409,1.9174,2.0836,2.2315,2.1578,2.1025,2.1025,2.0184,1.9587,1.9587,1.9637,1.9678,1.9678,1.9494,1.9447,1.9636,1.8586,1.7955,1.7955,1.7096,1.6734,1.678,1.6734,1.6881,1.7221,1.7174,1.7174,0.0,0.0,0.0,0.0,0.0,0.0,0.0,0.0,0.0,0.0,0.0,0.0,0.0,0.0,0.0,0.0,0.0,0.0,0.0,0.0,0.0,0.0,0.0,0.0,0.0,0.0,0.0,0.0,2.088,2.0377,1.9671,2.0149,2.0358,2.0206,2.0341,2.0382,2.0382,1.8533,1.7752,1.8,1.7212,1.6605,1.6285,1.6254,1.655,1.7057,1.6812,1.6565,1.6129,1.5936,1.5646,1.5297,1.5297,1.5489,1.5711,1.5882,1.5277,1.4476,1.4628,1.3489,1.1998,1.2564,1.245,1.2323,1.2697,1.2835,1.2909,1.2948,1.3002,1.3012,1.2813,1.291,1.3007,1.3002,1.305,1.334,1.3811,1.3431,1.2958,1.2861,1.2764,1.2764,1.2764,1.4262,1.5657,1.623,1.781,1.9198,1.9852,1.9861,1.9761,1.9761,1.9769,1.9857,1.9857,2.0153,2.0238,2.0238,1.9283,1.8634,1.8679,1.7781,1.7333,1.7333,1.6914,1.6834,1.7088,1.6834,1.6987,1.7515,1.7268,1.7281,0.0,0.0,0.0,0.0,0.0,0.0,0.0,0.0,0.0,0.0,0.0,0.0,0.0,0.0,0.0,0.0,0.0,0.0,0.0,0.0,0.0,0.0,0.0,0.0,0.0,0.0,0.0,0.0,2.0042,1.9791,1.9208,1.9864,1.9847,1.9029,1.9391,1.9432,1.8966,1.7471,1.6826,1.6982,1.6179,1.5886,1.5932,1.5501,1.5643,1.6312,1.5974,1.5641,1.536,1.5311,1.5234,1.5116,1.529,1.5184,1.5008,1.5134,1.4733,1.401,1.3772,1.3107,1.2276,1.229,1.2048,1.1919,1.2301,1.2576,1.2764,1.2764,1.2926,1.305,1.2824,1.284,1.2888,1.2786,1.2764,1.2861,1.3238,1.305,1.2764,1.2764,1.2764,1.2764,1.2764,1.342,1.4453,1.5859,1.6793,1.781,1.9306,1.8956,1.8503,1.8503,1.815,1.7868,1.7868,1.8169,1.8353,1.8353,1.7775,1.7561,1.7736,1.7381,1.7228,1.7388,1.7261,1.7261,1.7388,1.7261,1.7328,1.7582,1.7455,1.7462,0.0,0.0,0.0,0.0,0.0,0.0,0.0,0.0,0.0,0.0,0.0,0.0,0.0,0.0,0.0,0.0,0.0,0.0,0.0,0.0,0.0,0.0,0.0,0.0,0.0,0.0,0.0,0.0,1.9462,1.9393,1.8836,1.9505,1.9389,1.8387,1.8596,1.8407,1.7772,1.6782,1.6206,1.5952,1.5728,1.5612,1.5524,1.4949,1.4901,1.5151,1.5061,1.4853,1.4528,1.4672,1.4688,1.4616,1.4816,1.4611,1.4161,1.4136,1.3932,1.3509,1.2974,1.2761,1.2597,1.2232,1.2064,1.1962,1.2377,1.2624,1.2775,1.2834,1.2974,1.305,1.2824,1.2807,1.2834,1.2478,1.2565,1.2764,1.2764,1.2764,1.2764,1.2764,1.2764,1.2764,1.2764,1.2813,1.3419,1.4827,1.5562,1.6375,1.7965,1.772,1.7465,1.7465,1.6891,1.6493,1.6493,1.676,1.6961,1.7041,1.7048,1.7148,1.7368,1.7382,1.7442,1.7582,1.7662,1.7662,1.7582,1.7582,1.7582,1.7582,1.7582,1.7582,0.0,0.0,0.0,0.0,0.0,0.0,0.0,0.0,0.0,0.0,0.0,0.0,0.0,0.0,0.0,0.0,0.0,0.0,0.0,0.0,0.0,0.0,0.0,0.0,0.0,0.0,0.0,0.0,1.9396,1.9385,1.8924,1.9085,1.9306,1.9506,1.8583,1.7997,1.7997,1.7107,1.6214,1.5253,1.6158,1.6126,1.5189,1.4849,1.4398,1.3815,1.4482,1.4477,1.4115,1.3861,1.3576,1.3233,1.3225,1.3241,1.3191,1.3246,1.3074,1.2875,1.2802,1.2517,1.214,1.2318,1.2379,1.2425,1.2667,1.2754,1.2807,1.3023,1.3093,1.305,1.2824,1.2926,1.2824,1.1614,1.2068,1.2764,1.2764,1.2764,1.2764,1.2764,1.2764,1.2764,1.2764,1.2942,1.2883,1.2368,1.3976,1.4945,1.45,1.5727,1.6753,1.6753,1.7029,1.7108,1.7108,1.7368,1.7662,1.7963,1.7976,1.7983,1.8003,1.8003,1.7869,1.7589,1.7869,1.7876,1.7582,1.7582,1.7582,1.7582,1.7582,1.7582,0.0,0.0,0.0,0.0,0.0,0.0,0.0,0.0,0.0,0.0,0.0,0.0,0.0,0.0,0.0,0.0,0.0,0.0,0.0,0.0,0.0,0.0,0.0,0.0,0.0,0.0,0.0,0.0,0.0,1.896,1.8576,1.8933,1.8948,1.8368,1.7996,1.7384,1.6517,1.6437,1.6095,1.5507,1.5707,1.5464,1.4821,1.435,1.373,1.3045,1.33,1.3266,1.3028,1.3114,1.2943,1.2721,1.3135,1.3211,1.2949,1.3122,1.3063,1.2758,1.259,1.2415,1.2253,1.2417,1.2438,1.2484,1.2867,1.3093,1.3238,1.3319,1.3346,1.3121,1.2319,1.2039,1.1663,1.0699,1.089,1.1194,1.1086,1.197,1.2764,1.2764,1.2764,1.2612,1.2058,1.1944,1.2239,1.277,1.3474,1.4349,1.5576,1.6293,1.6707,1.6707,1.6974,1.7228,1.7415,1.7709,1.8009,1.831,1.833,1.833,1.833,1.833,1.8277,1.817,1.8277,1.8083,1.7582,1.7782,1.7883,1.7876,1.7675,1.7689,0.0,0.0,0.0,0.0,0.0,0.0,0.0,0.0,0.0,0.0,0.0,0.0,0.0,0.0,0.0,0.0,0.0,0.0,0.0,0.0,0.0,0.0,0.0,0.0,0.0,0.0,0.0,0.0,0.0,0.0,1.8646,1.8864,1.8432,1.7252,1.7178,1.6689,1.5515,1.6087,1.6142,1.5682,1.5674,1.5435,1.4985,1.4566,1.3893,1.3045,1.296,1.2705,1.2375,1.2557,1.2598,1.2454,1.2957,1.2938,1.2769,1.2847,1.2774,1.2531,1.2351,1.2318,1.227,1.2334,1.2522,1.2721,1.3109,1.3346,1.3491,1.3257,1.3122,1.2833,1.162,1.0838,1.0293,1.0096,0.9908,0.9929,1.0082,1.1035,1.1893,1.1771,1.1786,1.1652,1.1047,1.1035,1.1223,1.1643,1.2764,1.3964,1.51,1.626,1.7001,1.7001,1.7275,1.7528,1.7722,1.8016,1.8323,1.8617,1.8637,1.8637,1.8637,1.8637,1.8591,1.8497,1.8591,1.839,1.7889,1.8096,1.8196,1.819,1.7983,1.7996,0.0,0.0,0.0,0.0,0.0,0.0,0.0,0.0,0.0,0.0,0.0,0.0,0.0,0.0,0.0,0.0,0.0,0.0,0.0,0.0,0.0,0.0,0.0,0.0,0.0,0.0,0.0,0.0,1.8922,1.9031,1.9248,1.8829,1.7933,1.6598,1.6337,1.588,1.5205,1.6198,1.6365,1.5697,1.6389,1.6312,1.5733,1.5733,1.4985,1.3737,1.3483,1.3052,1.2448,1.2363,1.2348,1.2348,1.24,1.2495,1.262,1.2499,1.2194,1.1993,1.2048,1.2135,1.2086,1.2328,1.2721,1.3152,1.3405,1.348,1.3328,1.2705,1.2292,1.1868,1.083,0.9642,0.8928,0.9706,0.9316,0.8965,0.994,1.0037,0.9867,0.9851,0.9786,0.9843,0.9912,1.0087,0.9881,0.881,1.1738,1.3696,1.2586,1.5512,1.7589,1.7595,1.7869,1.8056,1.807,1.8337,1.8631,1.8918,1.8938,1.8938,1.8938,1.8938,1.8804,1.8524,1.8791,1.8798,1.8517,1.851,1.8504,1.8504,1.8504,1.8504,-0.2682,0.0,0.0,0.0,0.0,0.0,0.0,0.0,0.0,0.0,0.0,0.0,0.0,0.0,0.0,0.0,0.0,0.0,0.0,0.0,0.0,0.0,0.0,0.0,0.0,0.0,0.0,0.0,1.9,1.8691,1.8809,1.8879,1.8285,1.7063,1.6929,1.6452,1.5547,1.5825,1.5999,1.6063,1.6261,1.6079,1.5733,1.5733,1.5235,1.4398,1.4398,1.3808,1.279,1.2289,1.2012,1.1882,1.2037,1.2169,1.2237,1.2216,1.2048,1.1798,1.1774,1.1903,1.2151,1.2124,1.2581,1.3152,1.3405,1.307,1.2499,1.249,1.1544,1.0381,0.9264,0.8445,0.7867,0.8161,0.8137,0.7979,0.8123,0.8021,0.8238,0.9721,0.9959,0.9743,0.9176,0.9152,0.9216,0.9543,1.147,1.3317,1.4132,1.6168,1.7669,1.7896,1.7996,1.8217,1.8644,1.8758,1.8931,1.9225,1.9245,1.9245,1.9245,1.9245,1.9205,1.9125,1.9199,1.9205,1.9125,1.8911,1.8804,1.8804,1.8804,1.8804,0.0,0.0,0.0,0.0,0.0,0.0,0.561,0.8538,0.0,0.0,0.0,0.0,0.0,0.0,0.0,0.0,0.0,0.0,0.0,0.0,0.0,0.0,0.0,0.0,0.0,2.056,1.9987,1.9846,1.9274,1.8923,1.8896,1.886,1.8357,1.7508,1.7197,1.6715,1.5971,1.5978,1.6081,1.6146,1.599,1.5928,1.594,1.594,1.5599,1.5151,1.5068,1.4391,1.3385,1.2625,1.2156,1.1833,1.1915,1.2084,1.2385,1.2292,1.214,1.2051,1.2167,1.2167,1.2215,1.2312,1.2565,1.2775,1.2915,1.2377,1.1713,1.1289,1.02,0.8859,0.8073,0.7544,0.7339,0.7263,0.7387,0.7465,0.7392,0.7258,0.7527,0.8547,0.8776,0.8638,0.8109,0.8036,0.8282,0.8693,1.0247,1.1749,1.2724,1.4412,1.5845,1.6792,1.7017,1.7626,1.8778,1.9038,1.9185,1.9359,1.9366,1.9366,1.9366,1.9366,1.9366,1.9366,1.9366,1.9366,1.9366,1.9192,1.9112,1.9112,1.9112,1.9112,0.0,0.0,0.0,0.0,0.0,0.0,-0.0077,0.2555,0.441,0.0,0.0,0.0,0.0,0.0,0.0,0.0,0.0,0.0,0.0,0.0,0.0,0.0,0.0,0.0,2.1487,2.0884,2.0357,1.9986,1.9624,1.9444,1.9336,1.8905,1.8413,1.7918,1.7279,1.6723,1.6368,1.6439,1.6404,1.6159,1.5861,1.5878,1.6221,1.619,1.5971,1.5681,1.5545,1.4977,1.4139,1.3294,1.2651,1.2166,1.1779,1.2161,1.2664,1.2498,1.2352,1.2389,1.2666,1.2587,1.2452,1.2657,1.2547,1.2304,1.2221,1.175,1.0941,0.9647,0.8384,0.7358,0.7126,0.7131,0.7138,0.6942,0.7143,0.7376,0.7191,0.7321,0.7311,0.7108,0.7005,0.704,0.7154,0.7173,0.7173,0.7173,0.8712,0.9805,0.9805,1.1475,1.3372,1.5209,1.5835,1.6821,1.8737,1.9219,1.9366,1.9366,1.9366,1.9366,1.9366,1.9366,1.9366,1.9366,1.9243,1.9127,1.9127,1.9366,1.9366,1.9366,1.9366,1.9269,0.0,0.0,0.0,0.0,0.0,0.0,-0.0378,0.0915,0.2748,0.0,0.0,0.0,0.0,0.0,0.0,0.0,0.0,0.0,0.0,0.0,0.0,0.0,0.0,0.0,2.216,2.0709,2.0047,2.0727,2.0143,1.9772,1.9785,1.971,1.9219,1.8422,1.7868,1.7288,1.6704,1.6474,1.6604,1.7156,1.6179,1.5888,1.6154,1.6063,1.5839,1.561,1.6032,1.556,1.4566,1.4398,1.3662,1.2543,1.1887,1.1961,1.2238,1.2344,1.2258,1.2183,1.2382,1.2452,1.2425,1.2468,1.2699,1.2803,1.2069,1.1216,1.0059,0.7921,0.7118,0.6931,0.6833,0.6862,0.6942,0.7039,0.7143,0.707,0.7191,0.711,0.7122,0.7103,0.7122,0.716,0.7279,0.7301,0.7301,0.7301,0.8752,0.9864,0.9864,1.1445,1.3486,1.5682,1.5926,1.6893,1.9137,1.9332,1.9366,1.9366,1.9366,1.9366,1.9366,1.9366,1.9366,1.9366,1.8163,1.7443,1.7443,1.8765,1.9366,1.9366,1.9366,1.877,0.0,0.0,0.0,-0.5631,0.0,0.0,0.0,-0.2571,-0.0935,0.0,0.0,0.0,0.0,0.0,0.0,0.0,0.0,0.0,0.0,0.0,0.0,0.0,0.0,0.0,2.1621,2.1251,2.0967,2.1015,2.0333,1.9912,1.9912,1.9912,1.9568,1.8922,1.8428,1.7953,1.7394,1.6982,1.6942,1.727,1.6419,1.6015,1.6088,1.6077,1.5968,1.5759,1.5927,1.5733,1.5151,1.4734,1.4142,1.341,1.247,1.2243,1.2393,1.2274,1.2231,1.2264,1.2506,1.2511,1.2436,1.2549,1.2506,1.2283,1.1883,1.0627,0.9086,0.7371,0.6771,0.6592,0.6573,0.6639,0.6656,0.6816,0.6933,0.6956,0.7079,0.7091,0.7086,0.7143,0.7154,0.7173,0.7236,0.7244,0.7244,0.7244,0.8021,0.8601,0.8558,0.9418,1.0918,1.3036,1.3513,1.4805,1.767,1.8163,1.8525,1.9366,1.9366,1.9366,1.9366,1.8642,1.7812,1.6979,1.6262,1.5784,1.5784,1.6623,1.7161,1.7161,1.7161,1.6697,0.0,0.0,0.0,0.0,0.0,-0.6066,0.0,0.0,0.0,0.0,0.0,0.0,0.0,0.0,0.0,0.0,0.0,0.0,0.0,0.0,0.0,0.0,0.0,0.0,2.0695,2.1658,2.1876,2.1055,2.0386,2.0061,2.0049,2.0026,1.9866,1.9297,1.901,1.8577,1.8018,1.7588,1.7304,1.7304,1.6724,1.6334,1.6152,1.6163,1.5996,1.5825,1.5733,1.565,1.5575,1.4901,1.4517,1.4311,1.2949,1.2626,1.2767,1.2281,1.2204,1.2441,1.263,1.2571,1.2463,1.2743,1.2239,1.1657,1.1615,1.0172,0.8384,0.7489,0.6856,0.6467,0.6442,0.6437,0.6467,0.6589,0.6714,0.6836,0.6959,0.7073,0.7154,0.7154,0.7154,0.7154,0.7154,0.7154,0.7154,0.7154,0.7173,0.7233,0.7355,0.7478,0.8292,1.0414,1.1025,1.2543,1.5762,1.6368,1.7091,1.8409,1.8532,1.8532,1.8532,1.7208,1.5902,1.4604,1.4286,1.4191,1.4191,1.4032,1.4231,1.4796,1.4841,1.4735,0.0,0.0,0.0,0.0,-0.6247,0.0,0.0,0.0,-0.3352,-0.1481,0.0,0.0,0.0,0.0,0.0,0.0,0.0,0.0,0.0,0.0,0.0,0.0,0.0,0.0,0.0,2.1063,2.142,2.0841,2.0761,2.068,2.0518,2.0637,2.029,1.9297,1.9425,1.8992,1.8008,1.794,1.7794,1.7638,1.7079,1.6751,1.6553,1.6113,1.5843,1.5606,1.5701,1.5575,1.5423,1.534,1.5071,1.4615,1.3218,1.2826,1.2951,1.234,1.2204,1.242,1.2441,1.2436,1.2395,1.2646,1.2059,1.1305,1.1345,0.9937,0.8295,0.8127,0.7322,0.6573,0.6464,0.6437,0.6467,0.6589,0.6714,0.6836,0.6959,0.7073,0.7154,0.7154,0.7154,0.7154,0.7154,0.7154,0.7154,0.7154,0.7247,0.7361,0.7483,0.7606,0.8432,1.0466,1.0978,1.2063,1.4212,1.4708,1.496,1.5079,1.5198,1.5198,1.5198,1.496,1.4842,1.4604,1.335,1.2707,1.2589,1.142,1.2162,1.4801,1.4873,1.4336,0.0,0.0,0.0,0.0,0.0,0.0,-0.5981,0.0,-0.4916,0.0,0.0,0.0,0.0,0.0,0.0,0.0,0.4836,0.0,0.0,0.0,0.0,0.0,0.0,0.0,0.0,0.0,0.0,0.0,2.1164,2.0636,2.044,2.0468,2.0391,2.0166,1.9591,1.9163,1.8932,1.8193,1.7852,1.7862,1.7501,1.6941,1.6281,1.6237,1.5819,1.5103,1.5375,1.5506,1.5431,1.5431,1.5336,1.5021,1.3465,1.2862,1.2757,1.1802,1.1551,1.1671,1.1942,1.1848,1.1853,1.2279,1.2216,1.1945,1.1348,1.0623,0.9653,0.8491,0.7782,0.7321,0.6639,0.6543,0.6592,0.6785,0.6872,0.694,0.7059,0.7122,0.7154,0.7154,0.7154,0.7154,0.7154,0.7154,0.7154,0.7154,0.7198,0.7298,0.7494,0.7565,0.8019,0.893,0.9319,1.0404,1.2307,1.268,1.3407,1.4485,1.4604,1.4123,1.3292,1.3172,1.2746,1.1894,1.136,1.108,1.1176,1.071,1.1126,1.2308,1.2385,1.2138,-0.7354,0.0,0.0,0.0,0.0,0.0,0.0,0.0,0.0,0.0,0.0,0.0,0.0,0.0,0.0,0.0,0.0,0.1679,0.0,0.0,0.0,0.0,0.0,0.0,0.0,0.0,0.0,2.1659,2.0849,2.0226,1.9882,2.0479,2.0658,2.0436,1.9905,1.9551,1.9273,1.832,1.7841,1.7872,1.7725,1.7088,1.6061,1.6302,1.5888,1.4955,1.5309,1.5431,1.5431,1.5431,1.5257,1.4915,1.3464,1.2673,1.2187,1.1305,1.0929,1.1045,1.1429,1.1611,1.1591,1.2025,1.227,1.2328,1.1308,1.0806,1.0268,0.8603,0.7938,0.7409,0.6799,0.6643,0.6722,0.6934,0.6986,0.7016,0.713,0.7154,0.7154,0.7154,0.7154,0.7165,0.7198,0.7176,0.7165,0.7198,0.7233,0.7331,0.754,0.7595,0.7682,0.7853,0.8244,0.8967,1.04,1.0887,1.1732,1.3168,1.3287,1.284,1.1687,1.157,1.1172,1.0107,1.0151,1.0226,1.0337,1.0483,1.0555,1.0555,1.0555,1.0616,0.0,0.0,0.0,-0.822,0.0,0.0,0.0,0.0,-0.6757,0.0,0.0,0.0,0.0,0.0,0.0,-0.5237,0.0,0.0,0.0,0.0,0.0,0.0,0.0,0.0,0.0,0.0,1.9172,1.9274,1.9668,1.9579,1.8665,2.0817,2.1181,1.9421,2.0619,2.0339,1.837,1.8138,1.7858,1.7539,1.7539,1.7097,1.6263,1.6377,1.6109,1.5551,1.5464,1.5431,1.5431,1.5431,1.4915,1.4055,1.3105,1.218,1.1262,1.0911,1.0798,1.102,1.1242,1.1686,1.2191,1.2221,1.2168,1.1948,1.1026,0.9985,0.9026,0.8268,0.733,0.6613,0.6619,0.6709,0.6828,0.6956,0.6986,0.7016,0.713,0.7154,0.7154,0.7154,0.7154,0.7192,0.7309,0.7233,0.7195,0.7312,0.7432,0.7551,0.7679,0.7793,0.7861,0.7869,0.8244,0.8613,0.8973,0.9217,0.9579,0.994,0.994,1.0009,1.0036,1.0042,1.0114,1.027,1.0409,1.048,1.0483,1.0636,1.0714,1.0714,1.0714,1.0714,0.0,0.0,-0.8861,-0.8999,0.0,0.0,0.0,0.0,0.0,0.0,0.0,0.0,0.0,0.0,-0.6226,-0.6274,-0.4481,0.0,0.0,0.0,0.0,0.0,0.0,0.0,0.0,0.0,0.0,1.8285,1.8876,1.8728,1.7594,1.9502,2.0536,2.0273,1.9944,1.9969,2.0328,1.8701,1.7868,1.7868,1.7088,1.6385,1.5771,1.5715,1.5289,1.4628,1.5056,1.5082,1.4908,1.4482,1.4132,1.3704,1.2345,1.158,1.1241,1.0467,1.0348,1.059,1.0944,1.1346,1.172,1.172,1.1457,1.1071,1.0835,1.0184,0.9357,0.839,0.7978,0.7697,0.7051,0.6893,0.6953,0.707,0.7097,0.713,0.7249,0.7211,0.7179,0.7258,0.7274,0.7288,0.7328,0.7369,0.741,0.7451,0.7491,0.7562,0.7687,0.7736,0.7788,0.7861,0.7994,0.8241,0.8854,0.9426,0.9808,0.9829,0.9917,0.9947,0.99,0.9995,1.012,1.0276,1.0419,1.0541,1.0643,1.0697,1.0721,1.0721,1.0721,1.0721,-1.1321,-1.0691,0.0,-1.025,-0.9136,0.0,-0.8118,0.0,-0.7359,0.0,0.0,0.0,0.0,0.0,0.0,-0.6848,-0.5537,-0.4079,0.0,-0.0254,0.0,0.0,0.0,0.0,0.0,0.0,1.6221,1.5456,1.6836,1.7499,0.0,0.0,1.9709,2.0844,1.9697,1.9583,2.0565,1.8781,1.7796,1.7548,1.6572,1.5675,1.4919,1.4922,1.4565,1.4002,1.4356,1.4386,1.4307,1.362,1.3105,1.2772,1.1666,1.1121,1.085,1.0328,1.0249,1.0542,1.0882,1.1231,1.1414,1.1212,1.0799,1.0474,0.9799,0.9322,0.8864,0.7945,0.7777,0.7733,0.718,0.7016,0.7065,0.7138,0.7154,0.7176,0.7255,0.7211,0.7179,0.7255,0.7307,0.735,0.7394,0.7502,0.7584,0.7584,0.7584,0.7627,0.7747,0.7763,0.779,0.7861,0.7872,0.8133,0.8919,0.962,1.0008,0.991,1.0046,1.0086,0.9988,1.0127,1.0304,1.0514,1.0555,1.0649,1.0802,1.0748,1.0721,1.0721,1.0721,1.0721]},{"header":{"parameterUnit":"m.s-1","parameterCategory":1,"la1":30.6,"la2":29.2853,"lo1":-89.7004,"lo2":-87.6739,"dy":0.0162,"dx":0.0183,"nx":112,"ny":82,"refTime":"2023-04-30T12:00:00:Z","depth":0,"parameterNumber":3,"parameterNumberName":"V-component_of_WINDS"},"data":[0.0,0.0,0.0,0.0,0.0,0.0,0.0,0.0,0.0,0.0,0.0,0.0,0.0,0.0,0.0,0.0,0.0,0.0,0.0,0.0,0.0,0.0,0.0,0.0,0.0,0.0,0.0,0.0,0.0,0.0,0.0,0.0,0.0,0.0,0.0,0.0,0.0,0.0,0.0,0.0,0.0,0.0,0.0,0.0,0.0,0.0,0.0,0.0,0.0,0.0,0.0,0.0,0.0,0.0,0.0,0.0,0.0,0.0,0.0,0.0,0.0,0.0,0.0,0.0,0.0,0.0,0.0,0.0,0.0,0.0,0.0,0.0,0.0,0.0,0.0,0.0,0.0,0.0,0.0,0.0,0.0,0.0,0.0,0.0,0.0,0.0,0.0,0.0,0.0,0.0,-3.0834,-2.9347,-2.9787,-3.0236,-3.0297,-3.0618,-3.1639,-3.3616,0.0,0.0,0.0,0.0,0.0,0.0,0.0,0.0,0.0,0.0,0.0,0.0,0.0,0.0,0.0,0.0,0.0,0.0,0.0,0.0,0.0,0.0,0.0,0.0,0.0,0.0,0.0,0.0,0.0,0.0,0.0,0.0,0.0,0.0,0.0,0.0,0.0,0.0,0.0,0.0,0.0,0.0,0.0,0.0,0.0,0.0,0.0,0.0,0.0,0.0,0.0,0.0,0.0,0.0,0.0,0.0,0.0,0.0,0.0,0.0,0.0,0.0,0.0,0.0,0.0,0.0,0.0,0.0,0.0,0.0,0.0,0.0,0.0,0.0,0.0,0.0,0.0,0.0,0.0,0.0,0.0,0.0,0.0,0.0,0.0,0.0,0.0,0.0,0.0,0.0,0.0,0.0,0.0,0.0,0.0,0.0,0.0,0.0,0.0,0.0,0.0,0.0,0.0,0.0,-3.1035,-3.0118,-3.0136,-3.0374,-3.0756,-3.0483,-3.118,-3.325,0.0,0.0,0.0,0.0,0.0,0.0,0.0,0.0,0.0,0.0,0.0,0.0,0.0,0.0,0.0,0.0,0.0,0.0,0.0,0.0,0.0,0.0,0.0,0.0,0.0,0.0,0.0,0.0,0.0,0.0,0.0,0.0,0.0,0.0,0.0,0.0,0.0,0.0,0.0,0.0,0.0,0.0,0.0,0.0,0.0,0.0,0.0,0.0,0.0,0.0,0.0,0.0,0.0,0.0,0.0,0.0,0.0,0.0,0.0,0.0,0.0,0.0,0.0,0.0,0.0,0.0,0.0,0.0,0.0,0.0,0.0,0.0,0.0,0.0,0.0,0.0,0.0,0.0,0.0,0.0,0.0,0.0,0.0,0.0,0.0,0.0,0.0,0.0,0.0,0.0,0.0,0.0,0.0,0.0,0.0,0.0,0.0,0.0,0.0,0.0,0.0,0.0,0.0,-3.0595,-2.9971,-2.9604,-2.9549,-2.946,-2.9285,-2.9089,-2.9825,-3.1817,-3.2523,0.0,0.0,0.0,0.0,0.0,0.0,0.0,0.0,0.0,0.0,0.0,0.0,0.0,0.0,0.0,0.0,0.0,0.0,0.0,0.0,0.0,0.0,0.0,0.0,0.0,0.0,0.0,0.0,0.0,0.0,0.0,0.0,0.0,0.0,0.0,0.0,0.0,0.0,0.0,0.0,0.0,0.0,0.0,0.0,0.0,0.0,0.0,0.0,0.0,0.0,0.0,0.0,0.0,0.0,0.0,0.0,0.0,0.0,0.0,0.0,0.0,0.0,0.0,0.0,0.0,0.0,0.0,0.0,0.0,0.0,0.0,0.0,0.0,0.0,0.0,0.0,0.0,0.0,0.0,0.0,0.0,0.0,0.0,0.0,0.0,0.0,0.0,0.0,0.0,0.0,0.0,0.0,0.0,0.0,0.0,0.0,0.0,0.0,0.0,0.0,0.0,0.0,-2.9622,-2.8994,-2.8994,-2.8994,-2.87,-2.7954,-2.7982,-2.8723,-3.0402,-3.1114,0.0,0.0,0.0,0.0,0.0,0.0,0.0,0.0,0.0,0.0,0.0,0.0,0.0,0.0,0.0,0.0,0.0,0.0,0.0,0.0,0.0,0.0,0.0,0.0,0.0,0.0,0.0,0.0,0.0,0.0,0.0,0.0,0.0,0.0,0.0,0.0,0.0,0.0,0.0,0.0,0.0,0.0,0.0,0.0,0.0,0.0,0.0,0.0,0.0,0.0,0.0,0.0,0.0,0.0,0.0,0.0,0.0,0.0,0.0,0.0,0.0,0.0,0.0,0.0,0.0,0.0,0.0,0.0,0.0,0.0,0.0,0.0,0.0,0.0,0.0,0.0,0.0,0.0,0.0,0.0,0.0,0.0,0.0,0.0,0.0,0.0,0.0,0.0,0.0,0.0,0.0,0.0,0.0,0.0,0.0,0.0,0.0,0.0,0.0,0.0,0.0,0.0,-2.9971,-2.8994,-2.8994,-2.8994,-2.87,-2.7954,-2.8183,-2.8734,-2.9638,-3.0783,0.0,0.0,0.0,0.0,0.0,0.0,0.0,0.0,0.0,0.0,0.0,0.0,0.0,0.0,0.0,0.0,0.0,0.0,0.0,0.0,0.0,0.0,0.0,0.0,0.0,0.0,0.0,0.0,0.0,0.0,0.0,0.0,0.0,0.0,0.0,0.0,0.0,0.0,0.0,0.0,0.0,0.0,0.0,0.0,0.0,0.0,0.0,0.0,0.0,0.0,0.0,0.0,0.0,0.0,0.0,0.0,0.0,0.0,0.0,0.0,0.0,0.0,0.0,0.0,0.0,0.0,0.0,0.0,0.0,0.0,0.0,0.0,0.0,0.0,0.0,0.0,0.0,0.0,0.0,0.0,0.0,0.0,0.0,0.0,0.0,0.0,0.0,0.0,0.0,0.0,0.0,0.0,0.0,0.0,0.0,0.0,0.0,0.0,0.0,0.0,0.0,0.0,-3.043,-2.9567,0.0,-2.8558,-2.7955,-2.7272,-2.6828,-2.712,-2.8391,0.0,0.0,0.0,0.0,0.0,0.0,0.0,0.0,0.0,0.0,0.0,0.0,0.0,0.0,0.0,0.0,0.0,0.0,0.0,0.0,0.0,0.0,0.0,0.0,0.0,0.0,0.0,0.0,0.0,0.0,0.0,0.0,0.0,0.0,0.0,0.0,0.0,0.0,0.0,0.0,0.0,0.0,0.0,0.0,0.0,0.0,0.0,0.0,0.0,0.0,0.0,0.0,0.0,0.0,0.0,0.0,0.0,0.0,0.0,0.0,0.0,0.0,0.0,0.0,0.0,0.0,0.0,0.0,0.0,0.0,0.0,0.0,0.0,0.0,0.0,0.0,0.0,0.0,0.0,0.0,0.0,0.0,0.0,0.0,0.0,0.0,0.0,0.0,0.0,0.0,0.0,0.0,0.0,0.0,0.0,0.0,0.0,0.0,0.0,0.0,0.0,0.0,-3.1458,-3.0467,-2.9622,0.0,-2.8196,-2.7411,-2.6845,-2.5923,-2.6011,-2.7555,0.0,0.0,0.0,0.0,0.0,0.0,0.0,0.0,0.0,0.0,0.0,0.0,0.0,0.0,0.0,0.0,0.0,0.0,0.0,0.0,0.0,0.0,0.0,0.0,0.0,0.0,0.0,0.0,0.0,0.0,0.0,0.0,0.0,0.0,0.0,0.0,0.0,0.0,0.0,0.0,0.0,0.0,0.0,0.0,0.0,0.0,0.0,0.0,0.0,0.0,0.0,0.0,0.0,0.0,0.0,0.0,0.0,0.0,0.0,0.0,0.0,0.0,0.0,0.0,0.0,0.0,0.0,0.0,0.0,0.0,0.0,0.0,0.0,0.0,0.0,0.0,0.0,0.0,0.0,0.0,0.0,0.0,0.0,0.0,0.0,0.0,0.0,0.0,0.0,0.0,0.0,0.0,0.0,0.0,0.0,0.0,0.0,0.0,0.0,0.0,0.0,0.0,-3.1384,-2.9989,-2.8975,-2.8957,-2.796,-2.7137,-2.6783,-2.5732,-2.5715,0.0,0.0,0.0,0.0,0.0,0.0,0.0,0.0,0.0,0.0,0.0,0.0,0.0,0.0,0.0,0.0,0.0,0.0,0.0,0.0,0.0,0.0,0.0,0.0,0.0,0.0,0.0,0.0,0.0,0.0,0.0,0.0,0.0,0.0,0.0,0.0,0.0,0.0,0.0,0.0,0.0,0.0,0.0,0.0,0.0,0.0,0.0,0.0,0.0,0.0,0.0,0.0,0.0,0.0,0.0,0.0,0.0,0.0,0.0,0.0,0.0,0.0,0.0,0.0,0.0,0.0,0.0,0.0,0.0,0.0,0.0,0.0,0.0,0.0,0.0,0.0,0.0,0.0,0.0,0.0,0.0,0.0,0.0,0.0,0.0,0.0,0.0,0.0,0.0,0.0,0.0,0.0,0.0,0.0,0.0,0.0,0.0,0.0,0.0,0.0,0.0,0.0,0.0,-3.0632,-2.9145,-2.7848,-2.704,-2.6168,-2.5398,-2.4883,-2.3946,-2.4178,-2.597,0.0,0.0,0.0,0.0,0.0,0.0,0.0,0.0,0.0,0.0,0.0,0.0,0.0,0.0,0.0,0.0,0.0,0.0,0.0,0.0,0.0,0.0,0.0,0.0,0.0,0.0,0.0,0.0,0.0,0.0,0.0,0.0,0.0,0.0,0.0,0.0,0.0,0.0,0.0,0.0,0.0,0.0,0.0,0.0,0.0,0.0,0.0,0.0,0.0,0.0,0.0,0.0,0.0,0.0,0.0,0.0,0.0,0.0,0.0,0.0,0.0,0.0,0.0,0.0,0.0,0.0,0.0,0.0,0.0,0.0,0.0,0.0,0.0,0.0,0.0,0.0,0.0,0.0,0.0,0.0,0.0,0.0,0.0,0.0,0.0,0.0,0.0,0.0,0.0,0.0,0.0,0.0,0.0,0.0,0.0,0.0,0.0,0.0,0.0,0.0,0.0,0.0,-3.0301,-2.8796,-2.7368,-2.6217,-2.526,-2.4515,-2.4059,-2.3091,-2.323,-2.4868,0.0,0.0,0.0,0.0,0.0,0.0,0.0,0.0,0.0,0.0,0.0,0.0,0.0,0.0,0.0,0.0,0.0,0.0,0.0,0.0,0.0,0.0,0.0,0.0,0.0,0.0,0.0,0.0,0.0,0.0,0.0,0.0,0.0,0.0,0.0,0.0,0.0,0.0,0.0,0.0,0.0,0.0,0.0,0.0,0.0,0.0,0.0,0.0,0.0,0.0,0.0,0.0,0.0,0.0,0.0,0.0,0.0,0.0,0.0,0.0,0.0,0.0,0.0,0.0,0.0,0.0,0.0,0.0,0.0,0.0,0.0,0.0,0.0,0.0,0.0,0.0,0.0,0.0,0.0,0.0,0.0,0.0,0.0,0.0,0.0,0.0,0.0,0.0,0.0,0.0,0.0,0.0,0.0,0.0,0.0,0.0,0.0,0.0,0.0,0.0,0.0,0.0,-3.0221,-2.8658,-2.7171,-2.6046,-2.4939,-2.4186,-2.3911,-2.2918,-2.2767,-2.3873,0.0,0.0,0.0,0.0,0.0,0.0,0.0,0.0,0.0,0.0,0.0,0.0,0.0,0.0,0.0,0.0,0.0,0.0,0.0,0.0,0.0,0.0,0.0,0.0,0.0,0.0,0.0,0.0,0.0,0.0,0.0,0.0,0.0,0.0,0.0,0.0,0.0,0.0,0.0,0.0,0.0,0.0,0.0,0.0,0.0,0.0,0.0,0.0,0.0,0.0,0.0,0.0,0.0,0.0,0.0,0.0,0.0,0.0,0.0,0.0,-3.0664,0.0,0.0,0.0,0.0,0.0,0.0,0.0,0.0,0.0,0.0,0.0,0.0,0.0,0.0,0.0,0.0,0.0,0.0,0.0,0.0,0.0,0.0,0.0,0.0,0.0,0.0,0.0,0.0,0.0,0.0,0.0,0.0,0.0,0.0,0.0,0.0,0.0,0.0,0.0,0.0,0.0,-2.9622,-2.7545,-2.5708,-2.4572,-2.3853,-2.3334,-2.3007,-2.2566,-2.2643,-2.3488,-2.4906,0.0,0.0,0.0,0.0,0.0,0.0,0.0,0.0,0.0,0.0,0.0,0.0,0.0,0.0,0.0,0.0,0.0,0.0,0.0,0.0,0.0,0.0,0.0,0.0,0.0,0.0,0.0,0.0,0.0,0.0,0.0,0.0,0.0,0.0,0.0,0.0,0.0,0.0,0.0,0.0,0.0,0.0,0.0,0.0,0.0,0.0,0.0,0.0,0.0,0.0,0.0,0.0,0.0,0.0,0.0,0.0,0.0,0.0,0.0,0.0,-3.1344,0.0,0.0,0.0,0.0,0.0,0.0,0.0,0.0,0.0,0.0,0.0,0.0,0.0,0.0,0.0,0.0,0.0,0.0,0.0,0.0,0.0,0.0,0.0,0.0,0.0,0.0,0.0,0.0,0.0,0.0,0.0,0.0,0.0,0.0,0.0,0.0,0.0,0.0,0.0,0.0,-3.0245,-2.7959,-2.5946,-2.4744,-2.4008,-2.3406,-2.2996,-2.2652,-2.2672,-2.3048,-2.4305,0.0,0.0,0.0,0.0,0.0,0.0,0.0,0.0,0.0,0.0,0.0,0.0,0.0,0.0,0.0,0.0,0.0,0.0,0.0,0.0,0.0,0.0,0.0,0.0,0.0,0.0,0.0,0.0,0.0,0.0,0.0,0.0,0.0,0.0,0.0,0.0,0.0,0.0,0.0,0.0,0.0,0.0,0.0,0.0,0.0,0.0,0.0,0.0,0.0,0.0,0.0,0.0,0.0,-2.8592,-2.8746,-2.8995,-2.8883,-2.9308,-3.0094,-2.9916,-3.0307,-3.1093,-3.1621,0.0,0.0,0.0,0.0,0.0,0.0,0.0,0.0,0.0,0.0,0.0,0.0,0.0,0.0,0.0,0.0,0.0,0.0,0.0,0.0,0.0,0.0,0.0,0.0,-3.4503,-3.3427,0.0,0.0,0.0,0.0,0.0,0.0,0.0,0.0,0.0,0.0,0.0,0.0,-3.0956,-2.8644,-2.666,-2.5595,-2.4598,-2.3832,-2.3379,-2.3003,-2.2797,-2.2797,-2.3859,-2.5216,0.0,0.0,0.0,0.0,0.0,0.0,0.0,0.0,0.0,0.0,0.0,0.0,0.0,0.0,0.0,0.0,0.0,0.0,0.0,0.0,0.0,0.0,0.0,0.0,0.0,0.0,0.0,0.0,0.0,0.0,0.0,0.0,-2.9043,-2.9006,0.0,0.0,0.0,0.0,0.0,0.0,0.0,0.0,0.0,0.0,0.0,0.0,0.0,-2.8435,-2.8241,-2.8037,-2.8049,-2.8277,-2.7918,-2.7924,-2.8258,-2.8226,-2.8334,-2.8502,-2.8481,0.0,-3.1965,-3.1193,0.0,0.0,0.0,0.0,0.0,0.0,0.0,0.0,0.0,0.0,0.0,0.0,0.0,0.0,0.0,0.0,0.0,0.0,0.0,0.0,0.0,0.0,-3.0739,-3.2077,-3.2275,-3.1936,0.0,-3.2335,-3.3535,-3.3412,-3.3014,0.0,0.0,0.0,0.0,0.0,0.0,0.0,-3.0371,-2.8057,-2.6439,-2.6266,-2.4901,-2.3969,-2.3911,-2.3428,-2.3141,-2.3141,-2.4188,-2.5564,-2.7181,-2.8377,0.0,0.0,0.0,0.0,0.0,0.0,0.0,0.0,0.0,0.0,0.0,0.0,0.0,0.0,0.0,0.0,0.0,0.0,0.0,0.0,0.0,0.0,0.0,0.0,0.0,0.0,0.0,0.0,0.0,-2.7816,-2.8281,-2.796,-2.8663,-2.9202,0.0,0.0,0.0,0.0,0.0,0.0,0.0,0.0,0.0,-2.7944,-2.7975,-2.7867,-2.7474,-2.7466,-2.7512,-2.7584,-2.7514,-2.763,-2.7864,-2.7996,-2.8301,-2.871,-2.8927,-2.9759,-3.0898,-3.0113,-3.0109,-3.0546,0.0,0.0,0.0,0.0,-2.9449,-2.9338,-2.9063,-2.911,0.0,-2.9892,0.0,0.0,0.0,0.0,0.0,0.0,0.0,0.0,0.0,0.0,-3.0045,-3.1515,-3.1532,-3.1126,-3.0743,-3.1414,-3.2179,0.0,-3.3125,-3.3674,-3.3962,0.0,0.0,0.0,0.0,-3.1845,-3.1849,-2.9583,-2.7759,-2.719,-2.6026,-2.5017,-2.4337,-2.389,-2.3801,-2.4127,-2.4617,-2.561,-2.723,-2.8401,-2.9714,0.0,0.0,0.0,0.0,0.0,0.0,0.0,0.0,0.0,0.0,0.0,0.0,0.0,0.0,0.0,0.0,0.0,0.0,0.0,0.0,0.0,0.0,0.0,0.0,0.0,0.0,0.0,0.0,-2.7476,-2.8032,-2.7387,-2.8404,-2.9244,0.0,0.0,0.0,0.0,0.0,0.0,-2.8255,-2.8039,-2.7788,-2.7442,-2.7489,-2.7288,-2.6839,-2.6989,-2.7103,-2.7166,-2.7386,-2.7642,-2.7869,-2.8083,-2.8504,-2.904,-2.9132,-2.9282,-2.9454,-2.9455,-2.9641,-2.9926,-2.9987,-2.9985,-2.9957,-2.9796,-2.9676,-2.9562,-2.9302,-2.9284,-2.9407,-2.9677,-2.9832,-2.989,-2.9757,0.0,0.0,0.0,0.0,-2.8379,-2.9664,-2.97,-2.9764,-3.1198,-3.1146,-3.0762,-3.0752,-3.1002,-3.1363,0.0,-3.3004,-3.404,-3.4425,0.0,0.0,0.0,0.0,-3.2413,-3.2837,-3.0782,-2.8902,-2.7913,-2.6918,-2.5863,-2.4682,-2.43,-2.4392,-2.498,-2.5212,-2.5914,-2.7206,-2.8377,-2.9337,-3.0033,0.0,0.0,0.0,0.0,0.0,0.0,0.0,0.0,0.0,0.0,0.0,0.0,0.0,0.0,0.0,0.0,0.0,0.0,0.0,0.0,0.0,0.0,0.0,0.0,0.0,0.0,0.0,0.0,0.0,-2.8096,-2.8421,0.0,0.0,0.0,0.0,-2.8889,-2.8555,-2.8093,-2.7584,-2.7361,-2.7072,-2.6674,-2.6488,-2.6488,-2.6725,-2.6657,-2.6892,-2.7404,-2.7654,-2.7964,-2.8272,-2.8554,-2.8755,-2.8858,-2.8054,-2.782,-2.812,-2.9768,-3.0041,-2.9435,-2.9645,-2.9682,-2.9569,-2.8977,-2.8774,-2.8727,-2.8436,-2.8521,-2.8924,-3.0074,-3.02,-2.9738,-2.8931,-2.82,0.0,0.0,-2.807,-2.8616,-2.8821,-2.9557,-3.0309,-3.0521,-3.0726,-3.0894,-3.0877,-3.1551,-3.2109,0.0,-3.2167,-3.2783,-3.4247,0.0,-3.4537,-3.4562,-3.3796,-3.2948,-3.2151,-3.056,-2.9127,-2.8193,-2.7073,-2.5967,-2.4875,-2.4591,-2.4744,-2.5328,-2.6096,-2.6717,-2.7193,-2.8377,-2.9205,-2.9628,-3.0063,0.0,0.0,0.0,0.0,0.0,0.0,0.0,0.0,0.0,0.0,0.0,0.0,0.0,0.0,0.0,0.0,0.0,0.0,0.0,0.0,0.0,0.0,0.0,0.0,0.0,0.0,0.0,0.0,-2.7789,-2.8216,0.0,-2.9074,-2.8909,-2.8679,-2.8485,-2.8104,-2.7684,-2.7141,-2.6811,-2.6556,-2.6417,-2.6452,-2.6521,-2.6623,-2.7132,-2.7474,-2.7654,-2.8057,-2.8376,-2.8609,-2.8223,-2.8121,-2.8218,-2.7567,-2.7326,-2.7475,-2.8835,-2.9119,-2.8707,-2.8875,-2.9194,-2.9589,-2.9397,-2.9265,-2.9138,-2.8989,-2.9027,-2.9251,-2.9813,-3.0244,-3.0302,-2.9045,-2.8867,-2.8996,-2.8568,-2.8557,-2.8815,-2.9511,-3.0009,-3.0343,-3.0525,-3.0739,-3.0897,-3.0895,-3.1073,-3.1387,-3.1899,-3.2541,-3.3124,-3.3641,-3.3786,-3.4198,-3.5298,-3.4273,-3.3249,-3.2931,-3.1846,-3.0348,-2.8372,-2.7726,-2.6773,-2.5126,-2.4818,-2.4947,-2.5542,-2.6217,-2.69,-2.7556,-2.8489,-2.9057,-2.9217,-2.935,-3.0742,0.0,0.0,0.0,0.0,0.0,0.0,0.0,0.0,0.0,0.0,0.0,0.0,0.0,0.0,0.0,0.0,0.0,0.0,0.0,0.0,0.0,0.0,0.0,0.0,0.0,0.0,-2.5615,-2.6119,-2.6638,-2.7415,-2.8579,-2.8358,-2.8099,-2.8015,-2.771,-2.7282,-2.6724,-2.6436,-2.633,-2.6417,-2.6555,-2.6742,-2.6989,-2.7547,-2.7936,-2.813,-2.8535,-2.8718,-2.8624,-2.8491,-2.8183,-2.7698,-2.7382,-2.7072,-2.6849,-2.7343,-2.7759,-2.8137,-2.8766,-2.9146,-2.9378,-2.9677,-2.9717,-2.9608,-2.957,-2.9608,-2.9663,-2.9789,-3.0203,-3.0445,-2.9433,-2.9516,-2.9836,-2.9415,-2.9221,-2.9296,-2.9988,-3.0281,-3.0405,-3.0534,-3.0733,-3.0898,-3.0898,-3.0788,-3.0864,-3.1415,-3.2501,-3.3411,-3.3651,-3.3968,-3.4671,-3.6113,-3.4644,-3.3476,-3.3769,-3.2539,-3.0741,-2.841,-2.8098,-2.7209,-2.5168,-2.537,-2.5609,-2.5616,-2.6733,-2.7468,-2.7575,-2.9025,-2.9777,-2.9637,-3.0009,-3.1403,-3.3807,0.0,0.0,0.0,0.0,0.0,0.0,0.0,0.0,0.0,0.0,0.0,0.0,0.0,0.0,0.0,0.0,0.0,0.0,0.0,0.0,0.0,0.0,0.0,-2.1092,-2.2647,-2.366,-2.3261,-2.3707,-2.5149,-2.7913,-2.6878,-2.6452,-2.7461,-2.7348,-2.6956,-2.6365,-2.633,-2.6417,-2.6606,-2.6708,-2.7083,-2.7811,-2.7897,-2.8236,-2.8838,-2.9089,-2.8891,-2.8346,-2.9404,-2.8973,-2.7424,-2.7495,-2.7039,-2.6203,-2.5519,-2.6185,-2.7771,-2.9317,-2.9478,-2.8946,-2.9707,-3.0007,-3.0007,-3.0075,-3.0109,-3.0109,-3.0109,-3.0128,-3.0113,-3.0026,-3.0026,-3.0045,-3.0026,-3.0026,-3.0064,-3.0128,-3.036,-3.0572,-3.0554,-3.075,-3.0937,-3.0898,-3.0782,-3.0671,-3.0602,-3.1987,-3.3462,-3.4319,-3.5125,-3.5962,-3.6833,-3.4882,0.0,-3.4453,-3.2422,-3.0227,-2.8383,-2.817,-2.728,-2.5096,-2.634,-2.6725,-2.5498,-2.764,-2.8438,-2.7272,-2.9862,-3.1177,-3.0875,-3.2054,-3.3036,-3.3807,0.0,0.0,0.0,0.0,0.0,0.0,0.0,0.0,0.0,0.0,0.0,0.0,0.0,0.0,0.0,0.0,0.0,0.0,0.0,0.0,0.0,0.0,-2.0904,-2.2204,-2.1923,-2.2057,-2.335,-2.3543,-2.4168,-2.5627,-2.6257,-2.6601,-2.6656,-2.7118,-2.7261,-2.6891,-2.6891,-2.7004,-2.7238,-2.747,-2.7747,-2.8085,-2.8579,-2.8946,-2.9161,-2.9533,-2.938,-2.8755,-2.909,-2.8718,-2.7836,-2.7902,-2.7793,-2.7616,-2.8039,-2.8125,-2.7995,-2.8249,-2.8918,-2.9775,-2.9985,-3.008,-3.008,-3.0095,-3.0095,-3.0095,-3.0095,-3.0519,-3.092,-3.0271,-3.0505,-3.0901,-3.0356,-3.0603,-3.104,-3.1149,-3.1785,-3.223,-3.1583,-3.1651,-3.1633,-3.0916,-3.0684,-3.0602,-3.054,-3.1852,-3.3089,-3.3431,-3.4234,-3.5102,-3.5925,-3.4977,0.0,-3.3639,-3.2439,-3.1193,-3.0049,-2.9868,-2.9098,-2.7278,-2.7751,-2.7476,-2.5918,-2.728,-2.7981,-2.7657,-2.8934,-2.9886,-3.038,-3.2415,-3.3587,0.0,0.0,0.0,0.0,0.0,0.0,0.0,0.0,0.0,0.0,0.0,0.0,0.0,0.0,0.0,0.0,0.0,0.0,0.0,0.0,0.0,0.0,-1.9448,-1.8305,-1.9478,-1.9575,-2.0177,-2.1952,-2.2291,-2.3155,-2.528,-2.6041,-2.657,-2.6906,-2.7449,-2.7624,-2.7258,-2.7348,-2.7465,-2.7666,-2.7986,-2.8312,-2.8657,-2.9167,-2.9494,-2.9687,-2.9927,-2.9717,-2.9089,-2.9496,-2.907,-2.8067,-2.8469,-2.8443,-2.8139,-2.8644,-2.8767,0.0,0.0,0.0,0.0,0.0,-3.0317,-3.0309,-3.0316,-3.0333,-3.034,-3.029,-3.0648,-3.1003,-3.0467,-3.0922,-3.1526,-3.1081,-3.1543,-3.2177,-3.2251,-3.2717,-3.2972,-3.2119,-3.2027,-3.1864,-3.0912,-3.0636,-3.0539,-3.0521,-3.1525,0.0,-3.2936,-3.4057,-3.5205,-3.6007,-3.5152,-3.4231,-3.3732,-3.2635,-3.1424,-3.0159,-2.9679,-2.9002,-2.7934,-2.8226,0.0,0.0,0.0,-2.9108,-2.9787,-3.0265,0.0,0.0,0.0,-3.4137,-3.3807,0.0,0.0,0.0,-3.9481,-4.0656,0.0,0.0,0.0,0.0,0.0,0.0,0.0,0.0,0.0,0.0,0.0,0.0,0.0,0.0,0.0,0.0,-1.6384,-1.4895,-1.5197,-1.6834,-1.8531,-2.0015,-2.0741,-2.2443,-2.5883,-2.6111,-2.653,-2.7695,-2.8085,-2.8066,-2.7601,0.0,0.0,0.0,0.0,-2.8876,-2.94,-2.9631,-2.9909,-3.0217,-3.0306,-2.9967,-2.935,-3.0217,-2.9745,-2.8318,-2.918,-2.9127,-2.8407,-2.8393,-2.8851,-2.9635,-3.0341,-3.0173,-2.9629,-3.0343,-3.061,-3.0613,-3.0616,0.0,0.0,-3.0567,-3.0602,-3.071,-3.0754,-3.1301,-3.1928,-3.2025,-3.2693,-3.3361,-3.3355,-3.3479,-3.3383,-3.2454,-3.2209,-3.1888,-3.0902,-3.0583,-3.0506,-3.0487,-3.1218,-3.2064,-3.2776,-3.4257,-3.5641,-3.6449,-3.5268,-3.4249,-3.4141,-3.282,-3.1261,-2.9652,0.0,0.0,-2.7944,-2.8395,-2.8237,-2.7139,-2.8956,-3.076,-3.2284,-3.243,-3.3183,-3.4697,-3.4807,-3.4523,-3.3807,-3.5423,-3.6482,-3.7116,-3.9848,-4.1184,0.0,0.0,0.0,0.0,0.0,0.0,0.0,0.0,0.0,0.0,0.0,0.0,0.0,0.0,0.0,-1.8074,-1.6125,-1.5052,-1.5981,-1.7637,-1.9019,-1.994,-2.1405,-2.3047,-2.4846,-2.625,-2.7211,-2.7609,-2.8288,-2.8676,-2.87,-2.8699,-2.8819,-2.9098,-2.9285,-2.9584,-2.9942,-3.0042,-3.0182,-3.0366,0.0,0.0,-2.9414,-3.0271,-3.0178,-2.9354,-3.017,-3.0428,-3.0289,-3.0273,-3.0389,-3.0547,-3.0638,-3.0593,-3.0464,-3.0625,-3.0686,-3.0686,-3.0671,-3.0687,-3.0701,-3.0664,-3.068,-3.0826,-3.152,-3.1845,0.0,-3.2828,-3.3659,-3.4322,-3.4333,-3.4865,-3.5027,-3.35,-3.31,-3.2605,-3.0979,-3.0564,-3.0487,-3.0417,-3.1641,-3.2718,-3.2872,-3.3757,-3.4737,-3.5603,-3.4872,-3.3968,-3.3256,-3.2333,-3.1602,-3.1256,-3.1083,-3.0686,-2.992,-3.0247,-2.9809,-2.8212,-2.882,-2.9677,-3.0632,-3.1292,-3.2082,-3.3054,-3.3715,-3.3954,-3.3807,-3.5043,-3.5834,-3.6207,-3.8742,-4.0191,0.0,0.0,0.0,0.0,0.0,0.0,0.0,0.0,0.0,0.0,0.0,-2.3093,0.0,0.0,-1.6895,-1.5753,-1.4697,-1.4542,-1.6054,-1.8127,-1.9947,-2.1191,-2.2761,-2.4421,-2.6127,-2.7298,-2.8129,-2.852,-2.9082,-2.9362,-2.926,-2.9383,-2.9511,-2.96,-2.9823,-3.004,-3.025,-3.0379,-3.0463,-3.0498,-3.0575,-3.0193,-2.9451,-2.9863,-2.9863,-2.957,-2.9977,-3.0359,-3.0682,-3.0626,-3.0642,-3.0707,-3.0664,-3.0691,-3.0745,-3.0751,-3.0751,-3.0747,-3.0719,-3.075,-3.0794,-3.0712,-3.0716,-3.0829,-3.1223,-3.1958,-3.2746,-3.3178,-3.4232,-3.5245,-3.5259,-3.5568,-3.5583,-3.4291,-3.3614,-3.2883,-3.1549,-3.1176,-3.0968,-3.0475,-3.2006,-3.3245,-3.2955,-3.3868,-3.4836,-3.5416,-3.5141,-3.4545,-3.366,-3.2814,-3.216,-3.1737,-3.0929,-3.041,-3.0398,-3.0358,-2.987,-2.8759,-2.8876,-2.9549,-3.0742,-3.1182,-3.1971,-3.3183,-3.3605,-3.3807,-3.3807,-3.4766,-3.5399,-3.5747,-3.7517,-3.8936,0.0,0.0,0.0,0.0,0.0,0.0,0.0,0.0,-2.4739,-2.5009,-2.3082,-2.0813,-1.9016,-1.7006,-1.5121,-1.3606,-1.3787,-1.4721,-1.6568,-1.925,-2.1622,-2.3239,-2.4637,-2.615,-2.7957,-2.8624,-2.9123,-2.9618,-2.992,-2.995,-2.9671,-2.9907,-3.0011,-2.9922,-3.0199,-3.036,-3.0443,-3.0595,-3.0625,-3.0582,-3.059,-3.0186,-2.9447,-2.9398,-2.9304,-2.9194,-2.9341,-2.976,-3.0308,-3.0365,-3.0431,-3.0541,-3.0539,-3.0599,-3.0708,-3.078,-3.0806,-3.079,-3.0742,-3.0781,-3.0898,-3.0957,-3.101,-3.1109,-3.1372,-3.2433,-3.359,-3.3757,-3.4827,-3.5896,-3.5907,-3.591,-3.5636,-3.4596,-3.3886,-3.3158,-3.2122,-3.1785,-3.1513,-3.0919,-3.2278,-3.342,-3.3063,-3.4124,-3.5122,-3.5446,-3.5493,-3.5199,-3.4314,-3.3583,-3.2776,-3.1795,-3.0429,-2.9771,-3.0235,-2.9864,-2.9456,-2.904,-2.8994,-2.9732,-3.1329,-3.1384,-3.2155,-3.377,-3.3807,-3.3807,-3.3807,-3.4468,-3.4932,-3.5272,-3.6359,-3.7737,-2.7106,-2.7264,-2.8277,-2.6984,-2.7654,-2.8458,0.0,0.0,-2.4197,-2.461,-2.1637,-1.8709,-1.7771,-1.6094,-1.4644,-1.3704,-1.5434,-1.751,-1.9307,-2.2341,-2.4787,-2.5932,-2.7047,-2.8064,-2.8898,-2.9668,-3.0132,-3.0215,-3.0241,-3.0256,-3.0212,-3.0251,-3.0283,-3.0333,-3.0435,-3.0515,-3.0586,-3.0533,-3.0525,-3.051,-3.0515,-3.0062,-2.9233,-2.922,-2.88,-2.8115,-2.8837,-2.9195,-2.9312,-3.0023,-3.0312,-3.0323,-3.0323,-3.0334,-3.0385,-3.0681,-3.0799,-3.08,-3.0782,-3.0806,-3.0944,-3.1698,-3.1943,-3.2227,-3.3699,-3.4299,-3.4622,-3.5393,-3.5755,-3.5903,-3.5904,-3.5891,-3.5485,-3.3837,-3.3867,-3.3812,-3.2165,-3.1756,-3.1802,-3.2195,-3.2473,-3.2792,-3.3261,-3.4111,-3.4926,-3.5432,-3.5493,-3.5199,-3.4314,-3.4103,-3.3449,-3.1872,-3.1525,-3.0956,-2.9872,-2.957,-2.931,-2.9017,-2.8994,-2.9732,-3.1329,-3.1384,-3.2155,-3.377,-3.3807,-3.3807,-3.3807,-3.3899,-3.4083,-3.4367,-3.5512,-3.7089,-3.0637,-2.9718,0.0,0.0,-2.8271,-2.7664,-2.5651,-2.3607,-2.2094,-2.1919,-1.9969,-1.7856,-1.6568,-1.567,-1.5123,0.0,-1.6598,-1.8455,-2.0834,-2.3351,-2.5245,-2.5993,-2.7136,-2.8009,-2.8372,-2.9162,-2.9769,-2.9988,-3.0115,-3.0215,-3.0305,-3.033,-3.0351,-3.0331,-3.0406,-3.0462,-3.0481,-3.0335,-3.0269,-3.0246,-2.9709,-2.9044,-2.8259,-2.7788,-2.7383,-2.7116,-2.7811,-2.844,-2.8995,-2.9049,-2.9497,-3.0171,-3.0098,-3.0164,-3.0329,-3.0535,-3.063,-3.0637,-3.0709,-3.0748,-3.0795,-3.1068,-3.1514,-3.2028,-3.2666,-3.3534,-3.4287,-3.4187,-3.4497,-3.4737,-3.4284,-3.4216,-3.4187,-3.3942,-3.3362,-3.2905,-3.3012,-3.2565,-3.2195,-3.2253,-3.2921,-3.3463,-3.3409,-3.3966,-3.4553,-3.4981,-3.5034,-3.4901,-3.4539,-3.3644,-3.2578,-3.1362,-3.0916,-3.0579,-3.0245,-2.9734,-2.9289,-2.9017,-2.8994,-2.9732,-3.1329,-3.1384,-3.2155,-3.377,-3.3807,-3.3807,-3.3807,-3.3807,-3.3868,-3.3986,-3.4624,-3.5725,-3.1223,0.0,0.0,-2.8461,-2.779,-2.6591,-2.4158,-2.238,-2.1176,-2.0793,-1.9801,-1.8706,-1.7634,-1.7101,-1.7093,-1.7724,-1.8821,-2.0302,-2.2317,-2.4553,-2.5982,-2.6067,-2.7004,-2.7588,-2.7419,-2.8246,-2.9022,-2.9533,-2.9699,-2.9897,-3.0146,-3.023,-3.0238,-3.0152,-2.9997,-2.9902,-2.989,-2.9487,-2.9292,-2.9265,-2.8578,-2.7827,-2.7048,-2.6217,-2.5869,-2.597,-2.6854,-2.7657,-2.8324,-2.8464,-2.9044,-2.9861,-2.9763,-2.9893,-3.0112,-3.0222,-3.0342,-3.0451,-3.0548,-3.0597,-3.0608,-3.0758,-3.1214,-3.1749,-3.191,-3.2782,-3.3628,-3.3064,-3.3308,-3.3615,-3.3051,-3.2968,-3.3175,-3.3692,-3.3056,-3.2615,-3.3551,-3.3227,-3.2727,-3.2691,-3.3325,-3.3794,-3.3534,-3.3827,-3.4171,-3.4416,-3.4461,-3.4526,-3.4674,-3.343,-3.2279,-3.1657,-3.0746,-3.0279,-3.0588,-2.9795,-2.9222,-2.9017,-2.9195,-2.9953,-3.1329,-3.1604,-3.2375,-3.377,-3.3807,-3.3807,-3.3807,-3.3807,-3.3807,-3.3807,-3.4093,-3.4899,0.0,0.0,-2.6731,-2.4915,-2.4875,-2.5029,-2.4025,-2.308,-2.2528,-2.276,-2.2166,-2.1711,-2.2028,-2.1365,-2.0845,-2.1202,-2.2691,-2.388,-2.4102,-2.6591,-2.7992,-2.6895,-2.7203,-2.7173,0.0,-2.712,-2.8091,-2.8964,-2.9036,-2.9269,-2.9794,-2.9875,-2.9875,-2.9813,-2.9055,-2.8627,-2.8548,-2.771,-2.7258,-2.7184,-2.7148,-2.6666,-2.5721,-2.4867,-2.4461,-2.4535,-2.6135,-2.6823,-2.6991,-2.8608,-2.9295,-2.9334,-2.9314,-2.9397,-2.9551,-2.9678,-2.9965,-3.0306,-3.0306,-3.0302,-3.0463,-3.1295,-3.1545,-3.1686,-3.2589,-3.2846,-3.2859,-3.2897,-3.2865,-3.284,-3.2897,-3.2909,-3.284,-3.2626,-3.3157,-3.3682,-3.345,-3.3392,-3.3518,-3.4045,-3.3543,-3.3202,-3.3703,-3.3797,-3.3815,-3.3815,-3.3815,-3.4055,-3.4632,-3.3919,-3.3353,-3.3334,-3.1686,-3.0586,-3.0583,-2.9621,-2.9017,-2.8994,-2.9732,-3.054,-3.1366,-3.2155,-3.2963,-3.377,-3.3807,-3.3807,-3.3807,-3.3807,-3.3807,-3.3807,-3.4093,-3.5075,0.0,0.0,-2.7369,-2.6557,-2.6635,-2.6535,-2.5077,-2.4695,-2.4612,-2.4205,-2.3626,-2.2832,-2.1713,-2.0868,-2.0432,-2.0589,-2.2094,-2.3704,-2.495,-2.6812,-2.7878,-2.7457,-2.727,0.0,0.0,0.0,0.0,-2.7831,-2.8328,-2.8738,-2.904,-2.9438,-2.9358,-2.8758,-2.8479,-2.8068,-2.7505,-2.7083,-2.686,-2.6842,-2.6265,-2.556,-2.4852,-2.5095,-2.4909,-2.4482,-2.5965,-2.6648,-2.6801,-2.7695,-2.847,-2.9148,-2.902,-2.9064,-2.931,-2.9932,-3.0242,-3.0357,-3.02,-3.0428,-3.0727,-3.0434,-3.1345,-3.2506,-3.2204,-3.2959,-3.3715,-3.2654,-3.2422,-3.2226,-3.1188,-3.0939,-3.1236,-3.2254,-3.2295,-3.2439,-3.3841,-3.3618,-3.3291,-3.3839,-3.3707,-3.3607,-3.3778,-3.3807,-3.3807,-3.3807,-3.3807,-3.3666,-3.3339,-3.3212,-3.2866,-3.2145,-3.1191,-3.0538,-3.0337,-2.9504,-2.9214,-2.9769,-3.0063,-3.0797,-3.2137,-3.2467,-3.2981,-3.377,-3.3807,-3.3807,-3.3807,-3.3807,-3.3807,-3.3825,-3.4428,-3.5147,-2.6991,-2.737,-2.7448,-2.7278,-2.7404,-2.7337,-2.6467,-2.6265,-2.6194,-2.5932,-2.5094,-2.4136,-2.329,-2.2475,-2.1834,-2.1601,-2.3001,-2.4325,-2.4933,-2.6584,-2.7713,-2.7727,-2.754,-2.7642,0.0,0.0,0.0,-2.7648,-2.7984,-2.8088,-2.7912,-2.8463,-2.8468,-2.7869,-2.7311,-2.6925,-2.6745,-2.6051,-2.5697,-2.566,-2.5379,-2.5032,-2.4633,-2.5443,-2.5536,-2.5093,-2.6202,-2.6767,-2.6936,-2.7405,-2.8087,-2.8832,-2.8707,-2.8761,-2.9058,-2.9955,-3.0277,-3.0357,-3.0584,-3.092,-3.1092,-3.0246,-3.0971,-3.2039,-3.1452,-3.2113,-3.2854,-3.1829,-3.1592,-3.1354,-3.0094,-2.9786,-3.0158,-3.1467,-3.16,-3.1845,-3.3426,-3.3523,-3.3395,-3.3723,-3.3807,-3.3807,-3.3807,-3.3807,-3.3807,-3.3807,-3.3807,-3.3605,-3.3109,-3.3172,-3.3019,-3.2327,-3.1684,-3.114,-3.0674,-3.0155,-2.9971,-3.0191,-3.0742,-3.1531,-3.2577,-3.2889,-3.3275,-3.3788,-3.3807,-3.3807,-3.3807,-3.3807,-3.3954,-3.4247,-3.4752,-3.5441,-2.653,-2.672,-2.7035,-2.6988,-2.7118,-2.7417,-2.8072,-2.7711,-2.7341,-2.7774,-2.6534,-2.5649,0.0,0.0,-2.4664,-2.3819,-2.4927,-2.5442,-2.4045,-2.5913,-2.751,0.0,0.0,0.0,0.0,0.0,0.0,-2.8377,0.0,-2.7366,-2.6578,-2.7107,-2.7314,-2.7119,-2.5691,-2.5334,-2.615,-2.466,-2.3855,-2.3795,-2.4552,-2.4946,-2.501,-2.5791,-2.6157,-2.617,-2.677,-2.7136,-2.7281,-2.7772,-2.8156,-2.8353,-2.838,-2.851,-2.8778,-2.9653,-3.0033,-3.0312,-3.1344,-3.1686,-3.1515,-3.0787,-3.0539,-3.0549,-3.058,-3.0583,-3.0587,-3.055,-3.0513,-3.0352,-2.9716,-2.9531,-2.9716,-3.0445,-3.1262,-3.1974,-3.2467,-3.323,-3.3807,-3.3807,-3.3807,-3.3807,-3.3807,-3.3807,-3.3807,-3.3807,-3.3752,-3.3752,-3.3788,-3.3752,-3.3715,-3.3678,-3.2963,-3.2155,-3.1347,-3.1311,-3.1017,-3.032,-3.1733,-3.2632,-3.2669,-3.3385,-3.3807,-3.3807,-3.3807,-3.3807,-3.3807,-3.3844,-3.4266,-3.499,-3.5082,-3.5991,-2.7844,-2.8446,-2.8832,-2.8181,-2.8615,-2.9078,-2.8675,-2.8695,-2.882,-2.8767,-2.7508,-2.6179,0.0,0.0,0.0,-1.9641,-2.0288,0.0,-2.1638,-2.3826,0.0,-2.665,0.0,-2.8081,-2.8781,-2.8178,0.0,0.0,-2.8111,-2.736,-2.6987,-2.7419,-2.7174,-2.5949,-2.5508,-2.4903,-2.4162,-2.388,-2.3725,-2.3743,-2.3791,-2.4093,-2.467,-2.5311,-2.557,-2.5597,-2.6947,-2.7183,-2.6697,-2.7568,-2.7943,-2.7961,-2.8164,-2.8291,-2.8434,-2.9305,-2.9656,-2.9891,-3.1411,-3.2092,-3.2129,-3.1366,-3.1788,-3.2529,-3.1937,-3.1869,-3.1868,-3.125,-3.0757,-3.0391,-3.0216,-3.012,-3.045,-3.1895,-3.236,-3.2674,-3.3442,-3.3721,-3.3807,-3.3807,-3.3807,-3.3807,-3.3807,-3.3807,-3.3807,-3.3807,-3.3293,-3.3128,-3.3715,-3.3293,-3.2687,-3.2082,-3.1292,-3.0485,-2.9696,-3.0173,-3.0668,-3.1072,-3.2045,-3.2871,-3.3476,-3.3697,-3.3807,-3.3807,-3.3807,-3.3807,-3.3807,-3.4412,-3.4789,-3.5027,-3.6285,-3.7074,-2.8083,-2.8434,-2.8608,-2.8489,-2.8957,-2.9179,-2.8073,-2.8003,-2.8019,-2.7503,-2.6072,0.0,0.0,0.0,0.0,0.0,0.0,0.0,-1.9346,-2.1816,-2.3928,0.0,-2.6116,0.0,-2.7283,-2.7244,-2.7241,0.0,-2.7468,-2.7161,-2.6488,-2.6625,-2.6224,-2.5147,-2.476,-2.4138,-2.3295,-2.3365,-2.3389,-2.3407,-2.3655,-2.4173,-2.4892,-2.5587,-2.6086,-2.6409,0.0,-2.7278,-2.6958,-2.739,-2.7654,-2.7818,-2.795,-2.8099,-2.8316,-2.9168,-2.9715,-3.0173,-3.1139,-3.1852,-3.2192,-3.1801,-3.2172,-3.2737,-3.2343,-3.2254,-3.2165,-3.1399,-3.1185,-3.1041,-3.0446,-3.0478,-3.0889,-3.19,-3.239,-3.2768,-3.313,-3.3523,-3.3807,-3.3807,-3.3807,-3.3807,-3.3807,-3.3807,-3.3807,-3.3807,-3.3421,-3.3293,-3.3733,-3.2797,-3.1898,-3.1439,-3.0999,-3.054,-3.0099,-3.0797,-3.1458,-3.1898,-3.2687,-3.325,-3.3532,-3.3707,-3.3707,-3.355,-3.3707,-3.3972,-3.4339,-3.477,-3.5385,-3.6119,-3.7055,-3.7679,-2.7358,-2.7296,-2.7303,-2.8085,-2.8508,-2.8325,-2.6816,-2.6572,-2.6375,-2.5276,0.0,-2.2565,-2.2117,0.0,-1.8196,-1.5448,0.0,-1.7019,-1.6961,-1.9497,-2.1753,-2.2701,-2.4249,-2.5099,-2.471,-2.5465,-2.5711,-2.514,-2.6292,-2.6574,-2.5584,-2.5407,-2.5125,-2.4683,-2.3913,-2.344,-2.3333,-2.3195,-2.3109,-2.3127,-2.385,-2.4515,-2.5087,-2.5911,-2.6708,-2.7395,-2.7224,-2.7276,-2.7444,-2.7213,-2.7338,-2.7701,-2.773,-2.7893,-2.8187,-2.9055,-2.9773,-3.0337,-3.0603,-3.1153,-3.1763,-3.2007,-3.2101,-3.2119,-3.2267,-3.2202,-3.1957,-3.1291,-3.1554,-3.1745,-3.0644,-3.0782,-3.1283,-3.1508,-3.2153,-3.2647,-3.2418,-3.3067,-3.3662,-3.3634,-3.3634,-3.3634,-3.3634,-3.368,-3.3707,-3.3707,-3.367,-3.3642,-3.3642,-3.2412,-3.1513,-3.1403,-3.1292,-3.1237,-3.1237,-3.199,-3.2504,-3.2596,-3.3295,-3.355,-3.3214,-3.3632,-3.3715,-3.3376,-3.3852,-3.4486,-3.5155,-3.5265,-3.6083,-3.7507,-3.7606,-3.8028,-2.5042,-2.569,-2.6289,-2.6951,-2.7476,-2.7391,-2.5679,-2.6237,0.0,0.0,0.0,-2.3374,-2.244,-1.9127,0.0,-1.4683,0.0,0.0,0.0,0.0,-1.8154,0.0,0.0,0.0,0.0,0.0,0.0,0.0,0.0,-2.4956,-2.516,-2.5341,-2.531,-2.4946,-2.4052,-2.3887,-2.4494,-2.4019,-2.3734,-2.3734,-2.3736,-2.3762,-2.383,-2.4492,-2.5178,-2.5926,-2.652,0.0,-2.6891,-2.7021,-2.7135,-2.7166,-2.7448,-2.7522,-2.7561,-2.8439,-2.8452,-2.8255,-2.9717,-3.0247,-3.0462,-3.1631,-3.2013,-3.2121,-3.2751,-3.2517,-3.1995,-3.1851,-3.1438,-3.1132,-3.1567,-3.1766,-3.2036,-3.2792,-3.3114,-3.3252,-3.3194,-3.3112,-3.2996,-3.2777,-3.2745,-3.2745,-3.2745,-3.3045,-3.3302,-3.3302,-3.3031,-3.2816,-3.2816,-3.2577,-3.2137,-3.1458,-3.0797,-3.0411,-3.0411,-3.1146,-3.188,-3.2577,-3.3057,-3.3273,-3.3214,-3.3924,-3.4268,-3.4207,-3.5305,-3.5936,-3.6083,-3.6725,-3.7202,-3.7514,-3.8175,-3.8579,-2.298,-2.3671,-2.4413,-2.509,-2.5881,-2.6007,-2.4028,0.0,0.0,0.0,0.0,-2.1697,-2.022,0.0,0.0,0.0,0.0,0.0,0.0,0.0,0.0,0.0,0.0,0.0,0.0,0.0,0.0,0.0,0.0,-2.4305,-2.4611,-2.4471,-2.4398,-2.4463,-2.3968,-2.3905,-2.4271,-2.4133,-2.4054,-2.4054,-2.3964,-2.4093,-2.4467,-2.4757,-2.5295,-2.6034,-2.6438,0.0,-2.6589,-2.6725,-2.6808,-2.6923,-2.7053,-2.7181,-2.731,-2.7722,-2.791,-2.808,-2.892,-2.9458,-2.9946,-3.1062,-3.1817,-3.2416,-3.2947,-3.2852,-3.2463,-3.2098,-3.2002,-3.202,-3.2002,-3.229,-3.2685,-3.3093,-3.3073,-3.3024,-3.3129,-3.2827,-3.255,-3.2517,-3.2484,-3.2484,-3.2484,-3.2681,-3.2921,-3.3154,-3.3052,-3.2985,-3.3193,-3.322,-3.2761,-3.1513,-3.1035,-3.0999,-3.1421,-3.1608,-3.2047,-3.2847,-3.2859,-3.2745,-3.2466,-3.3461,-3.402,-3.4053,-3.5245,-3.6243,-3.6927,-3.7294,-3.7716,-3.812,-3.8524,-3.8707,-2.0313,-2.1157,-2.2087,-2.2903,-2.4162,-2.4588,-2.2399,-2.2797,0.0,0.0,0.0,-2.0099,0.0,0.0,0.0,0.0,0.0,0.0,0.0,0.0,0.0,0.0,0.0,0.0,0.0,0.0,0.0,0.0,0.0,0.0,-2.4224,-2.3756,-2.3709,-2.4182,-2.401,-2.3996,-2.4177,-2.4282,-2.4298,-2.4232,-2.4363,-2.4629,-2.493,-2.5163,-2.5631,-2.6216,-2.6453,0.0,0.0,-2.652,-2.6589,-2.6691,-2.6725,-2.6858,-2.7038,-2.7209,-2.7585,-2.8012,-2.8249,-2.88,-2.9541,-3.0369,-3.1339,-3.2309,-3.2731,-3.2866,-3.2791,-3.2263,-3.2576,-3.2929,-3.2337,-3.2624,-3.3055,-3.2993,-3.277,-3.2555,-3.2616,-3.2384,-3.2179,-3.2231,-3.2213,-3.2213,-3.2213,-3.2282,-3.2484,-3.284,-3.2983,-3.3196,-3.3606,-3.368,-3.3213,-3.2045,-3.1751,-3.1891,-3.2436,-3.2172,-3.2295,-3.3009,-3.2616,-3.2249,-3.2067,-3.3106,-3.3812,-3.4058,-3.5256,-3.6392,-3.7453,-3.7453,-3.7812,-3.8546,-3.8546,-3.8669,-1.6307,-1.7882,-1.9611,-2.0607,-2.2496,-2.3452,-2.1197,0.0,0.0,0.0,-2.0571,-2.0632,-1.9329,0.0,0.0,0.0,0.0,-0.9041,0.0,0.0,0.0,0.0,0.0,0.0,0.0,0.0,0.0,0.0,0.0,0.0,-2.4353,-2.4268,-2.4321,-2.4808,-2.4463,-2.462,-2.5345,-2.5032,-2.4634,-2.4277,-2.4978,-2.473,-2.3681,-2.4746,-2.5263,-2.5363,-2.6201,0.0,0.0,-2.6554,-2.6486,-2.6365,-2.6468,-2.6452,-2.6484,-2.7276,-2.7194,-2.6808,-2.7811,-2.8438,-2.8901,-2.9524,-3.0317,-3.1185,-3.19,-3.2318,-3.2523,-3.2486,-3.2669,-3.2898,-3.2827,-3.2862,-3.2884,-3.2705,-3.242,-3.2162,-3.186,-3.1731,-3.1617,-3.1351,-3.1329,-3.1329,-3.1329,-3.1603,-3.1897,-3.1915,-3.2298,-3.2745,-3.3214,-3.3243,-3.3335,-3.356,-3.2926,-3.2373,-3.2068,-3.2011,-3.2158,-3.253,-3.2127,-3.2173,-3.2864,-3.372,-3.4471,-3.5149,-3.6421,-3.7108,-3.7234,-3.7234,-3.747,-3.798,-3.798,-3.8649,-1.4461,-1.5713,-1.7367,-1.8927,-2.0988,-2.2309,-2.098,0.0,0.0,-2.0716,-2.0621,-2.0361,-1.8754,0.0,0.0,0.0,0.0,0.0,0.0,0.0,0.0,0.0,0.0,0.0,0.0,0.0,0.0,0.0,0.0,0.0,-2.3048,-2.3301,-2.3636,-2.409,-2.4333,-2.4689,-2.5059,-2.5034,-2.4965,-2.4852,-2.5151,-2.5005,-2.4563,-2.4968,-2.5334,-2.553,-2.5914,0.0,0.0,-2.6382,-2.6365,-2.6295,-2.6347,-2.6347,-2.6329,-2.6662,-2.6614,-2.6482,-2.736,-2.8152,-2.8878,-2.9559,-3.037,-3.1202,-3.1771,-3.2056,-3.2197,-3.2197,-3.2266,-3.2403,-3.2623,-3.2787,-3.2884,-3.2852,-3.2454,-3.2039,-3.1896,-3.16,-3.1329,-3.123,-3.119,-3.119,-3.119,-3.1312,-3.1507,-3.1752,-3.1951,-3.223,-3.2713,-3.3014,-3.3136,-3.3027,-3.2984,-3.2993,-3.3076,-3.2326,-3.2049,-3.2466,-3.2239,-3.2252,-3.2559,-3.3721,-3.4655,-3.5312,-3.622,-3.6882,-3.719,-3.719,-3.7433,-3.7911,-3.8381,-3.9088,-1.3415,-1.4401,-1.5894,-1.7696,-1.971,-2.1161,0.0,0.0,0.0,-2.0727,-2.0543,-2.0166,-1.8691,-1.7379,-1.5684,-1.3187,0.0,-1.1476,0.0,0.0,0.0,0.0,0.0,0.0,0.0,0.0,0.0,0.0,0.0,0.0,-2.1639,-2.2356,-2.2979,-2.3595,-2.4078,-2.441,-2.4655,-2.4895,-2.4997,-2.4918,-2.5137,-2.5192,-2.5075,-2.5269,-2.5422,-2.5572,-2.5758,0.0,0.0,-2.6225,-2.6295,-2.6277,-2.6277,-2.6393,-2.6593,-2.6554,-2.6687,-2.6992,-2.7598,-2.8323,-2.9139,-2.9719,-3.0448,-3.1173,-3.1524,-3.1731,-3.1913,-3.1967,-3.2144,-3.2335,-3.2557,-3.2639,-3.2654,-3.2687,-3.2231,-3.1768,-3.1768,-3.1466,-3.119,-3.119,-3.119,-3.119,-3.119,-3.119,-3.1291,-3.1565,-3.1623,-3.1789,-3.2248,-3.2778,-3.298,-3.2553,-3.2894,-3.3154,-3.3196,-3.2348,-3.1984,-3.2406,-3.2329,-3.2476,-3.2916,-3.3931,-3.4789,-3.5373,-3.5907,-3.6333,-3.6724,-3.6951,-3.7394,-3.8062,-3.8869,-3.9586,-1.2913,-1.3944,-1.5389,-1.7036,-1.8794,-2.0116,0.0,0.0,0.0,-2.0478,-2.0388,-2.0193,-1.9523,-1.726,-1.5063,-1.3708,-1.1882,0.0,0.0,0.0,0.0,0.0,0.0,0.0,0.0,0.0,0.0,0.0,0.0,0.0,-2.0523,-2.1583,-2.2632,-2.3551,-2.3595,-2.3809,-2.4302,-2.4719,-2.4719,-2.4302,-2.5036,-2.5192,-2.4815,-2.5422,-2.5497,-2.5269,0.0,0.0,0.0,-2.6154,-2.6241,-2.622,-2.622,-2.6651,-2.73,-2.73,-2.7765,-2.8395,-2.8624,-2.9092,-2.9615,-2.9811,-3.0409,-3.1015,-3.1015,-3.1274,-3.1654,-3.1932,-3.2437,-3.2884,-3.2884,-3.2437,-3.2003,-3.2003,-3.16,-3.119,-3.119,-3.119,-3.119,-3.119,-3.119,-3.119,-3.119,-3.119,-3.119,-3.119,-3.119,-3.1351,-3.1752,-3.2501,-3.2875,-3.2539,-3.2808,-3.2674,-3.1877,-3.1825,-3.1932,-3.2286,-3.2313,-3.2933,-3.4404,-3.4489,-3.4844,-3.5588,-3.5605,-3.5622,-3.5622,-3.6446,-3.7361,-3.8398,-3.916,-4.0091,-1.2875,-1.3065,-1.3983,-1.5684,-1.7468,-1.9028,-1.9795,0.0,0.0,0.0,-2.092,-2.0443,-1.9627,-1.8425,-1.7243,-1.6095,-1.3778,0.0,0.0,0.0,0.0,0.0,0.0,0.0,0.0,0.0,0.0,0.0,0.0,0.0,-1.9997,-2.0701,-2.1657,-2.2965,-2.329,-2.3696,-2.425,-2.4359,-2.4385,-2.4302,-2.4533,-2.4549,-2.4416,-2.4605,-2.471,0.0,0.0,0.0,0.0,-2.6137,-2.6559,-2.7042,-2.7042,-2.7491,-2.8123,-2.8063,-2.8251,-2.8489,-2.8489,-2.9032,-2.9694,-2.9805,-3.0348,-3.1015,-3.1015,-3.1134,-3.1329,-3.1428,-3.1841,-3.2283,-3.2283,-3.2437,-3.2621,-3.2621,-3.2739,-3.2664,-3.1925,-3.2049,-3.2212,-3.2015,-3.1935,-3.1935,-3.1935,-3.1935,-3.1765,-3.1275,-3.119,-3.1438,-3.2071,-3.2638,-3.2841,-3.241,-3.3179,-3.3375,-3.2353,-3.2216,-3.2303,-3.2737,-3.341,-3.3998,-3.4472,-3.4979,-3.5368,-3.5622,-3.5622,-3.5876,-3.6417,-3.6671,-3.7895,-3.9997,-4.0545,-4.1487,0.0,-1.3288,-1.4038,-1.5502,-1.7119,0.0,0.0,0.0,0.0,0.0,0.0,-2.1518,-2.0838,-2.0043,-1.8965,-1.744,-1.471,0.0,0.0,0.0,0.0,0.0,0.0,0.0,0.0,0.0,0.0,0.0,0.0,0.0,-2.0047,-2.0411,-2.1224,-2.2649,-2.3009,-2.3523,-2.4181,-2.4208,-2.425,-2.4276,-2.4317,-2.4276,-2.425,-2.4359,-2.4441,0.0,0.0,0.0,0.0,-2.6379,-2.6959,-2.7408,-2.769,-2.8201,-2.8832,-2.881,-2.8976,-2.9264,-2.9264,-2.9682,-3.0151,-3.0224,-3.0622,-3.1095,-3.1213,-3.1329,-3.1466,-3.1466,-3.1894,-3.2335,-3.2335,-3.2555,-3.2755,-3.2755,-3.2892,-3.2809,-3.2017,-3.2127,-3.2329,-3.2303,-3.2313,-3.2374,-3.2662,-3.2713,-3.2544,-3.2104,-3.2036,-3.2188,-3.2645,-3.3202,-3.3351,-3.2771,-3.3646,-3.3882,-3.2923,-3.2752,-3.2978,-3.3556,-3.4134,-3.4624,-3.4912,-3.5368,-3.5757,-3.6045,-3.6062,-3.6434,-3.7212,-3.7712,-3.8898,-4.0813,-4.1296,-4.2114,0.0,0.0,0.0,0.0,0.0,0.0,0.0,0.0,0.0,0.0,0.0,-2.3115,-2.2845,-2.1858,-2.0338,-1.8192,-1.507,0.0,0.0,0.0,0.0,0.0,0.0,0.0,0.0,0.0,0.0,0.0,0.0,0.0,-2.0482,-2.0553,-2.1224,-2.2649,-2.2844,-2.3304,-2.4181,-2.4276,-2.4276,-2.4223,-2.4234,-2.4261,-2.4261,-2.4661,-2.4692,0.0,0.0,0.0,0.0,-2.6841,-2.7417,-2.7533,-2.8174,-2.887,-2.9499,-2.9499,-2.993,-3.0526,-3.0651,-3.0773,-3.0912,-3.0992,-3.1095,-3.1269,-3.1521,-3.1728,-3.1894,-3.1894,-3.2386,-3.2884,-3.2955,-3.2725,-3.2541,-3.2611,-3.2371,-3.2037,-3.1728,-3.1706,-3.1871,-3.2326,-3.2398,-3.2635,-3.3355,-3.3491,-3.3457,-3.3406,-3.3406,-3.3423,-3.3474,-3.4083,-3.4235,-3.3558,-3.4134,-3.4269,-3.3541,-3.3491,-3.3778,-3.4455,-3.4539,-3.4895,-3.5588,-3.5673,-3.6045,-3.6772,-3.6874,-3.728,-3.799,-3.9233,-4.0181,-4.0903,-4.1534,-4.2121,-1.6355,0.0,-1.477,-1.5941,0.0,0.0,0.0,0.0,0.0,0.0,0.0,-2.288,-2.2702,-2.269,-2.2363,-2.1222,0.0,0.0,0.0,0.0,0.0,0.0,0.0,0.0,0.0,0.0,0.0,0.0,0.0,-1.9282,-2.063,-2.0243,-2.0818,-2.2649,-2.274,-2.3201,-2.4181,-2.4208,-2.4208,-2.4223,-2.4109,-2.4024,-2.394,-2.4879,-2.5279,0.0,0.0,0.0,-2.7339,-2.7927,-2.8423,-2.892,-2.9102,-2.9615,-3.0261,-3.0261,-3.0377,-3.051,-3.0526,-3.0651,-3.0773,-3.0935,-3.1213,-3.1445,-3.1504,-3.1579,-3.1711,-3.1913,-3.2283,-3.2714,-3.328,-3.3115,-3.298,-3.357,-3.3679,-3.3349,-3.2476,-3.2722,-3.319,-3.3414,-3.3447,-3.3605,-3.4159,-3.4235,-3.4049,-3.3491,-3.3406,-3.3609,-3.4167,-3.4387,-3.4421,-3.4252,-3.4912,-3.5047,-3.4303,-3.4235,-3.432,-3.4472,-3.503,-3.5436,-3.556,-3.6197,-3.6586,-3.6772,-3.7889,-3.8565,-3.8734,-3.9593,-4.0326,-4.0903,-4.1534,-4.2121,-1.7888,-1.6552,-1.5929,-1.6776,-1.7979,0.0,0.0,0.0,0.0,0.0,0.0,0.0,-2.3,0.0,0.0,0.0,0.0,0.0,0.0,0.0,0.0,0.0,0.0,0.0,0.0,0.0,0.0,0.0,0.0,-1.9359,-2.0721,-2.0204,-2.0769,-2.2649,-2.2694,-2.3157,-2.4082,-2.4166,-2.4223,-2.4223,-2.4151,-2.4094,-2.4067,-2.5191,-2.5654,0.0,0.0,0.0,-2.7939,-2.8586,-2.9069,-2.945,-2.9781,-3.0162,-3.0551,-3.0526,-3.0568,-3.0692,-3.0609,-3.0692,-3.0814,-3.0935,-3.1252,-3.161,-3.2125,-3.2414,-3.2473,-3.2231,-3.2386,-3.2778,-3.3186,-3.3357,-3.3562,-3.4008,-3.4115,-3.4013,-3.3634,-3.3565,-3.3739,-3.4238,-3.4339,-3.4497,-3.4922,-3.5013,-3.4878,-3.4489,-3.4421,-3.4556,-3.4962,-3.5013,-3.5013,-3.5013,-3.5368,-3.5605,-3.5554,-3.5554,-3.5554,-3.5554,-3.5588,-3.5774,-3.6146,-3.6552,-3.711,-3.7787,-3.892,-3.9495,-3.9495,-3.9884,-4.0237,-4.0528,-4.1133,-4.1707,-1.9267,-1.8255,-1.7778,-1.8201,-1.9282,-2.0644,0.0,0.0,0.0,0.0,0.0,0.0,0.0,0.0,0.0,0.0,0.0,0.0,0.0,0.0,0.0,0.0,0.0,0.0,0.0,0.0,0.0,0.0,0.0,-1.9793,-2.0993,-2.072,-2.1269,-2.2936,-2.3088,-2.3496,-2.4329,-2.4173,-2.4166,-2.4223,-2.4342,-2.4372,-2.4445,-2.5681,-2.6251,-2.634,0.0,0.0,-2.8363,-2.9213,-2.9582,-2.9648,-3.0278,-3.0568,-3.0692,-3.0568,-3.0651,-3.0871,-3.0773,-3.0938,-3.1143,-3.1089,-3.1419,-3.2004,-3.296,-3.3529,-3.3705,-3.2949,-3.2993,-3.3259,-3.3384,-3.3847,-3.4311,-3.4418,-3.4365,-3.4369,-3.4783,-3.4306,-3.4092,-3.491,-3.5063,-3.5197,-3.5531,-3.5622,-3.5622,-3.5622,-3.5622,-3.5622,-3.5622,-3.5622,-3.5622,-3.5622,-3.5723,-3.6062,-3.6721,-3.6891,-3.7009,-3.711,-3.6282,-3.6146,-3.6924,-3.706,-3.7753,-3.914,-3.9766,-4.007,-4.007,-4.007,-4.0121,-4.0254,-4.0703,-4.1206,-2.0512,-2.0024,-1.9805,-1.9263,-2.0306,-2.1744,0.0,0.0,0.0,0.0,0.0,0.0,0.0,0.0,0.0,0.0,0.0,0.0,0.0,0.0,0.0,0.0,0.0,0.0,0.0,0.0,0.0,0.0,0.0,-2.0732,-2.2137,-2.255,-2.3193,-2.4278,-2.4802,-2.5347,-2.5863,-2.4544,-2.3982,-2.4181,-2.4544,-2.4773,-2.495,-2.7001,-2.7933,-2.8024,0.0,-3.0096,-3.0112,-3.027,-3.0344,-3.0361,-3.0477,-3.0568,-3.0692,-3.0568,-3.0609,-3.0733,-3.0831,-3.1516,-3.2258,-3.1671,-3.2327,-3.3319,-3.3477,-3.4199,-3.4939,-3.478,-3.4813,-3.5007,-3.5685,-3.5453,-3.5204,-3.5882,-3.5543,-3.5044,-3.5117,-3.5046,-3.5031,-3.5296,-3.5352,-3.5393,-3.5576,-3.5622,-3.5622,-3.5622,-3.5622,-3.5622,-3.5622,-3.5622,-3.5622,-3.5622,-3.6214,-3.6654,-3.6772,-3.7364,-3.8007,-3.8616,-3.7364,-3.6941,-3.7702,-3.8328,-3.9039,-3.9884,-4.002,-4.007,-4.007,-4.007,-4.0319,-4.078,-4.0856,-4.1206,-2.2468,-2.1606,-2.1336,-2.193,-2.2158,0.0,0.0,0.0,0.0,0.0,0.0,0.0,0.0,0.0,0.0,0.0,0.0,0.0,0.0,0.0,0.0,0.0,0.0,0.0,0.0,0.0,0.0,0.0,0.0,0.0,-2.2844,-2.316,-2.3766,-2.482,-2.5206,-2.5646,-2.6077,-2.5363,-2.5104,-2.5413,-2.5542,-2.5768,-2.6063,-2.7644,-2.8469,-2.8763,0.0,-3.0526,-3.0526,-3.0526,-3.0526,-3.0609,-3.0609,-3.0733,-3.0905,-3.1331,-3.123,-3.1012,-3.207,-3.2508,-3.2633,-3.29,-3.3537,-3.4287,-3.4746,-3.535,-3.5935,-3.6363,-3.5882,-3.5293,-3.5667,-3.581,-3.5935,-3.631,-3.6114,-3.5971,-3.6399,-3.6167,-3.59,-3.6038,-3.6035,-3.5935,-3.5644,-3.5622,-3.5622,-3.5622,-3.5622,-3.5622,-3.5622,-3.5622,-3.5622,-3.5622,-3.6315,-3.6941,-3.7347,-3.8075,-3.8464,-3.8413,-3.8125,-3.8125,-3.8481,-3.8819,-3.9343,-4.007,-4.007,-4.007,-4.007,-4.007,-4.0254,-4.0497,-4.078,-4.1206,-2.4411,-2.3193,-2.2775,0.0,0.0,0.0,0.0,0.0,0.0,0.0,0.0,0.0,0.0,0.0,0.0,0.0,0.0,0.0,0.0,0.0,0.0,0.0,0.0,0.0,0.0,0.0,0.0,0.0,0.0,0.0,-2.3587,-2.3934,-2.4586,-2.5565,-2.5857,-2.6206,-2.655,-2.6627,-2.6581,-2.638,-2.6533,-2.6818,-2.7158,-2.8259,-2.8941,-2.9277,-3.0112,-3.0526,-3.0526,-3.0526,-3.0667,-3.09,-3.1024,-3.1328,-3.1828,-3.2508,-3.2434,-3.219,-3.3408,-3.3596,-3.3455,-3.4106,-3.4686,-3.5206,-3.5897,-3.6381,-3.6845,-3.7648,-3.6863,-3.5757,-3.5757,-3.6221,-3.672,-3.6916,-3.697,-3.7184,-3.7969,-3.7523,-3.6985,-3.6974,-3.6917,-3.6617,-3.5861,-3.5802,-3.5825,-3.5639,-3.5622,-3.569,-3.5876,-3.5893,-3.596,-3.6129,-3.684,-3.7601,-3.8345,-3.892,-3.9005,-3.8447,-3.8937,-3.9174,-3.9005,-3.9157,-3.9512,-4.007,-4.007,-4.0171,-4.0286,-4.0286,-4.0417,-4.0737,-4.0967,-4.1446,-2.5878,-2.4701,-2.4141,0.0,0.0,0.0,0.0,0.0,0.0,0.0,0.0,0.0,0.0,0.0,0.0,0.0,0.0,0.0,0.0,0.0,0.0,0.0,0.0,0.0,0.0,0.0,0.0,0.0,0.0,0.0,-2.4632,-2.5826,-2.6688,-2.7113,-2.7822,-2.8209,-2.8209,-2.8545,-2.7906,-2.6395,-2.7238,-2.77,-2.7866,-2.9247,-2.9892,-2.9951,-3.0326,-3.0526,-3.0526,-3.0526,-3.0924,-3.158,-3.2008,-3.2861,-3.3891,-3.4025,-3.4458,-3.4904,-3.4376,-3.4833,-3.557,-3.4939,-3.5456,-3.6292,-3.6346,-3.6916,-3.7666,-3.8487,-3.8094,-3.7416,-3.7416,-3.7452,-3.7684,-3.8451,-3.8629,-3.8843,-3.9575,-3.9165,-3.8516,-3.8223,-3.7883,-3.7307,-3.626,-3.6423,-3.6451,-3.5723,-3.5622,-3.5876,-3.6603,-3.6688,-3.6975,-3.7669,-3.8396,-3.9123,-3.9868,-3.9969,-3.9969,-3.9935,-3.9969,-3.9698,-3.9022,-3.9648,-4.002,-4.007,-4.007,-4.0319,-4.0856,-4.0856,-4.1402,-4.248,-4.1979,-4.208,-2.7388,-2.6416,-2.6094,0.0,0.0,0.0,0.0,0.0,0.0,0.0,0.0,0.0,0.0,0.0,0.0,0.0,0.0,0.0,0.0,0.0,0.0,0.0,0.0,0.0,0.0,0.0,0.0,0.0,0.0,0.0,-2.582,-2.6614,-2.7261,-2.771,-2.8088,-2.8381,-2.8574,-2.8811,-2.8904,-2.8948,-2.8865,-2.8981,-2.9219,-2.9756,-3.0103,-3.0316,-3.0426,-3.0733,-3.1205,-3.1508,-3.1918,-3.2447,-3.2974,-3.363,-3.4349,-3.484,-3.4892,-3.484,-3.5696,-3.5972,-3.6035,-3.6433,-3.6809,-3.7131,-3.7131,-3.7702,-3.8415,-3.8719,-3.8915,-3.8933,-3.8469,-3.8344,-3.8415,-3.8736,-3.8808,-3.8879,-3.9165,-3.9004,-3.8534,-3.7733,-3.8023,-3.8087,-3.6981,-3.7172,-3.7381,-3.7094,-3.7043,-3.7144,-3.7449,-3.7483,-3.7584,-3.7872,-3.8565,-3.9292,-4.002,-4.007,-4.007,-4.007,-4.007,-3.9952,-3.9681,-3.9935,-4.007,-4.007,-4.0417,-4.0703,-4.0903,-4.1268,-4.1707,-4.2121,-4.1895,-4.2121,-2.8195,-2.733,-2.7126,0.0,0.0,0.0,0.0,0.0,0.0,0.0,0.0,0.0,0.0,0.0,0.0,0.0,0.0,0.0,0.0,0.0,0.0,0.0,0.0,0.0,0.0,0.0,0.0,0.0,0.0,0.0,0.0,-2.7093,-2.7565,-2.8137,-2.8317,-2.8527,-2.8935,-2.9136,-2.9603,-3.0341,-3.0235,-3.021,-3.0342,-3.0201,-3.0274,-3.0526,-3.0908,-3.1266,-3.1679,-3.2534,-3.324,-3.3871,-3.449,-3.4992,-3.548,-3.599,-3.5849,-3.5606,-3.6814,-3.6925,-3.6608,-3.7362,-3.7577,-3.763,-3.7898,-3.8362,-3.8915,-3.9397,-3.9718,-3.986,-3.9593,-3.9343,-3.9218,-3.9468,-3.9539,-3.9611,-3.986,-3.9718,-3.9284,-3.8504,-3.8925,-3.906,-3.7948,-3.8123,-3.8286,-3.7939,-3.7905,-3.799,-3.8227,-3.8261,-3.8345,-3.8565,-3.9039,-3.9529,-4.0037,-4.007,-4.007,-4.007,-4.007,-4.007,-4.007,-4.007,-4.007,-4.007,-4.0607,-4.0995,-4.1178,-4.181,-4.2185,-4.2346,-4.2346,-4.258,-2.8185,-2.7263,0.0,0.0,0.0,0.0,0.0,0.0,0.0,0.0,0.0,0.0,0.0,0.0,0.0,0.0,0.0,0.0,0.0,0.0,0.0,0.0,0.0,0.0,0.0,0.0,0.0,0.0,0.0,0.0,0.0,-2.7246,-2.77,-2.8463,-2.8638,-2.8982,-2.9515,-2.9842,-3.0033,-3.0049,-3.1116,-3.1446,-3.1087,-3.0688,-3.0543,-3.0576,-3.1773,-3.2051,-3.1772,-3.3419,-3.4809,-3.5905,-3.6601,-3.7206,-3.7577,-3.7577,-3.7577,-3.7577,-3.7577,-3.7577,-3.7577,-3.7577,-3.7594,-3.7755,-3.8558,-3.8826,-3.9147,-4.0663,-4.0538,-4.0128,-4.0913,-4.0521,-4.0128,-4.0913,-4.1092,-4.1324,-4.2109,-4.1645,-4.1092,-4.1092,-4.0807,-4.0225,-3.9138,-3.9271,-3.9162,-3.8072,-3.7922,-3.8193,-3.8903,-3.9005,-3.9276,-4.0003,-4.007,-4.007,-4.007,-4.007,-4.007,-4.007,-4.007,-4.007,-4.007,-4.007,-4.0121,-4.0121,-4.0625,-4.1223,-4.181,-4.2422,-4.2976,-4.3497,-4.3497,-4.3497,-2.9231,0.0,0.0,0.0,0.0,0.0,0.0,0.0,0.0,0.0,0.0,0.0,0.0,0.0,0.0,0.0,0.0,0.0,0.0,0.0,0.0,0.0,0.0,0.0,0.0,0.0,0.0,0.0,0.0,0.0,0.0,-2.7745,-2.8189,-2.8764,-2.8811,-2.9182,-2.9842,-3.0461,-3.1144,-3.1918,-3.2221,-3.2056,-3.1446,-3.1874,-3.2207,-3.2547,-3.2933,-3.3488,-3.4199,-3.5184,-3.616,-3.7055,-3.6929,-3.7206,-3.7577,-3.7577,-3.7577,-3.7577,-3.7577,-3.7577,-3.7577,-3.7577,-3.7969,-3.8487,-3.8736,-3.9575,-4.0503,-4.0967,-4.1341,-4.1685,-4.1993,-4.1828,-4.1502,-4.1181,-4.1092,-4.1163,-4.1395,-4.127,-4.0971,-4.0513,-4.1149,-4.1369,-4.0036,-4.0314,-4.0412,-3.9593,-3.9428,-3.9512,-3.9732,-3.9749,-3.9834,-4.0054,-4.007,-4.007,-4.007,-4.007,-4.007,-4.007,-4.007,-4.007,-4.007,-4.007,-4.0286,-4.0655,-4.1223,-4.1853,-4.2422,-4.3014,-4.3321,-4.3497,-4.3497,-4.3497,-2.9681,0.0,0.0,0.0,0.0,0.0,0.0,0.0,0.0,0.0,0.0,0.0,0.0,0.0,0.0,0.0,0.0,0.0,0.0,0.0,0.0,0.0,0.0,0.0,0.0,0.0,0.0,0.0,0.0,0.0,0.0,-2.8222,-2.8794,-2.9671,-2.9687,-3.0006,-3.0615,-3.1084,-3.1731,-3.2536,-3.2837,-3.299,-3.3026,-3.299,-3.3229,-3.3605,-3.3953,-3.4887,-3.6151,-3.6388,-3.69,-3.7577,-3.7281,-3.7356,-3.7577,-3.7577,-3.7577,-3.7577,-3.7577,-3.7685,-3.7828,-3.8043,-3.8491,-3.9084,-3.956,-4.0477,-4.142,-4.1669,-4.2255,-4.275,-4.2862,-4.2806,-4.2546,-4.1819,-4.1672,-4.1654,-4.1776,-4.1797,-4.1787,-4.1487,-4.2121,-4.242,-4.1439,-4.1624,-4.1568,-4.0655,-4.0286,-4.007,-4.007,-4.007,-4.007,-4.007,-4.007,-4.007,-4.007,-4.007,-4.007,-4.007,-4.007,-4.007,-4.007,-4.0286,-4.0577,-4.0903,-4.1707,-4.2342,-4.2711,-4.325,-4.3644,-4.3975,-4.3975,-4.3975,0.0,0.0,0.0,0.0,0.0,0.0,0.0,0.0,0.0,0.0,0.0,0.0,0.0,0.0,0.0,0.0,0.0,0.0,0.0,0.0,0.0,0.0,0.0,0.0,0.0,0.0,0.0,0.0,0.0,0.0,0.0,-2.8795,-2.95,-3.0862,-3.0989,-3.1263,-3.1676,-3.1828,-3.2101,-3.2483,-3.3287,-3.425,-3.5313,-3.4175,-3.385,-3.4214,-3.5059,-3.6247,-3.7577,-3.715,-3.7206,-3.7577,-3.7577,-3.763,-3.7702,-3.7702,-3.7738,-3.7757,-3.7757,-3.7934,-3.8246,-3.8726,-3.914,-3.966,-4.0861,-4.1517,-4.1996,-4.2648,-4.3105,-4.3406,-4.3406,-4.3406,-4.3266,-4.2745,-4.2606,-4.2627,-4.279,-4.2922,-4.3123,-4.3371,-4.344,-4.3353,-4.2978,-4.2941,-4.2549,-4.1394,-4.0577,-4.007,-4.007,-4.007,-4.007,-4.007,-4.007,-4.007,-4.007,-4.007,-4.007,-4.007,-4.0171,-4.0154,-4.0154,-4.0655,-4.0949,-4.0995,-4.2121,-4.2747,-4.2897,-4.3286,-4.3938,-4.4819,-4.4745,-4.4745,0.0,0.0,0.0,0.0,0.0,0.0,0.0,0.0,0.0,0.0,0.0,0.0,0.0,0.0,0.0,0.0,0.0,0.0,0.0,0.0,0.0,0.0,0.0,0.0,0.0,0.0,0.0,0.0,0.0,0.0,-2.8858,-2.9627,-3.0366,-3.1059,-3.1613,-3.2105,-3.2464,-3.3409,-3.3929,0.0,-3.5095,-3.5894,-3.6434,-3.5811,-3.5783,-3.6207,-3.6811,-3.7269,-3.7577,-3.7503,-3.7503,-3.7577,-3.7577,-3.7987,-3.854,-3.854,-3.8707,-3.8939,-3.8939,-3.8743,-3.8614,-3.9341,-4.005,-4.0796,-4.1679,-4.2463,-4.3082,-4.3246,-4.3318,-4.3406,-4.3526,-4.3493,-4.3371,-4.3373,-4.3303,-4.3178,-4.2977,-4.3159,-4.3371,-4.3545,-4.3712,-4.3675,-4.3086,-4.3138,-4.2814,-4.142,-4.0577,-4.007,-4.007,-4.007,-4.007,-4.007,-4.007,-4.007,-4.007,-4.007,-4.007,-4.007,-4.0497,-4.075,-4.075,-4.0827,-4.1133,-4.1578,-4.2342,-4.321,-4.4291,-4.3756,-4.4232,-4.5626,-4.5002,-4.5039,0.0,0.0,0.0,0.0,0.0,0.0,0.0,0.0,0.0,0.0,0.0,0.0,0.0,0.0,0.0,0.0,0.0,0.0,0.0,0.0,0.0,0.0,0.0,0.0,0.0,0.0,0.0,0.0,0.0,-2.8982,-2.9409,-3.028,-3.1177,-3.217,-3.2901,-3.3434,-3.3654,-3.4457,-3.4856,-3.4881,-3.5671,-3.6392,-3.7069,-3.6776,-3.6856,-3.7185,-3.7429,-3.754,-3.7577,-3.7577,-3.7577,-3.7577,-3.7577,-3.8168,-3.8977,-3.9031,-3.9462,-3.9977,-3.9644,-3.9452,-3.9423,-3.9693,-4.016,-4.0824,-4.186,-4.2621,-4.3144,-4.3582,-4.3791,-4.3918,-4.4017,-4.3968,-4.3918,-4.3841,-4.366,-4.3493,-4.3493,-4.3609,-4.3791,-4.3986,-4.414,-4.414,-4.3767,-4.355,-4.3012,-4.1896,-4.1098,-4.048,-4.0171,-4.0336,-4.0497,-4.0497,-4.072,-4.0891,-4.0891,-4.0891,-4.0891,-4.0891,-4.1196,-4.1515,-4.1883,-4.2168,-4.2488,-4.2798,-4.3731,-4.4564,-4.5278,-4.4856,-4.5278,-4.6471,-4.6049,-4.6085,0.0,0.0,0.0,0.0,0.0,0.0,0.0,0.0,0.0,0.0,0.0,0.0,0.0,0.0,0.0,0.0,0.0,0.0,0.0,0.0,0.0,0.0,0.0,0.0,0.0,0.0,0.0,0.0,0.0,-2.9335,-3.0017,-3.0887,-3.1946,-3.3254,-3.4175,-3.4718,-3.4865,-3.5132,-3.5399,-3.5583,-3.5934,-3.6498,-3.7216,-3.7339,-3.7429,-3.754,-3.7466,-3.7611,-3.7882,-3.7739,-3.7775,-3.7954,-3.7954,-3.8564,-3.9514,-3.9692,-4.0336,-4.1013,-4.0464,-4.0277,-4.0298,-4.021,-4.0318,-4.0754,-4.2013,-4.2693,-4.3167,-4.3893,-4.4389,-4.4684,-4.4552,-4.4608,-4.4627,-4.4266,-4.3955,-4.3777,-4.3986,-4.4079,-4.4229,-4.4458,-4.4515,-4.4515,-4.4515,-4.3893,-4.319,-4.2553,-4.1831,-4.1115,-4.0466,-4.0797,-4.1041,-4.1041,-4.1613,-4.2005,-4.2005,-4.2111,-4.22,-4.22,-4.2285,-4.2672,-4.3337,-4.4052,-4.444,-4.444,-4.5424,-4.5975,-4.6104,-4.5975,-4.6379,-4.7315,-4.7186,-4.7186,0.0,0.0,0.0,0.0,0.0,0.0,0.0,0.0,0.0,0.0,0.0,0.0,0.0,0.0,0.0,0.0,0.0,0.0,0.0,0.0,0.0,0.0,0.0,0.0,0.0,0.0,0.0,0.0,-2.9273,-2.9649,-3.0146,-3.1627,-3.258,-3.2813,-3.4532,-3.548,-3.548,-3.5602,-3.5997,-3.6702,-3.7122,-3.7077,-3.6577,-3.7381,-3.7613,-3.7429,-3.754,-3.8097,-3.894,-3.8238,-3.8484,-3.9337,-3.9337,-3.9829,-4.0664,-4.1373,-4.1974,-4.234,-4.2184,-4.1516,-4.0832,-4.1417,-4.1696,-4.1938,-4.2866,-4.3681,-4.429,-4.4421,-4.4974,-4.5378,-4.4684,-4.5021,-4.5359,-4.4608,-4.4411,-4.4325,-4.414,-4.4277,-4.4458,-4.4487,-4.4515,-4.4515,-4.4515,-4.3893,-4.3311,-4.3121,-4.2472,-4.1884,-4.1621,-4.1639,-4.1664,-4.1664,-4.2395,-4.2827,-4.2827,-4.3465,-4.3899,-4.3899,-4.4348,-4.471,-4.4818,-4.602,-4.667,-4.667,-4.6159,-4.625,-4.6948,-4.625,-4.6673,-4.8122,-4.7443,-4.748,0.0,0.0,0.0,0.0,0.0,0.0,0.0,0.0,0.0,0.0,0.0,0.0,0.0,0.0,0.0,0.0,0.0,0.0,0.0,0.0,0.0,0.0,0.0,0.0,0.0,0.0,0.0,0.0,-2.9853,-3.0044,-3.0443,-3.1945,-3.3031,-3.3464,-3.5164,-3.6165,-3.6433,-3.6221,-3.6289,-3.6626,-3.6987,-3.7199,-3.7307,-3.7889,-3.8,-3.7739,-3.7862,-3.8233,-3.8746,-3.887,-3.9173,-3.9637,-4.0093,-4.0884,-4.1801,-4.2151,-4.2788,-4.3441,-4.3025,-4.2211,-4.1443,-4.1825,-4.1672,-4.1567,-4.29,-4.3857,-4.4515,-4.4515,-4.5078,-4.551,-4.4721,-4.4777,-4.4946,-4.459,-4.4515,-4.4487,-4.4335,-4.4411,-4.4515,-4.4515,-4.4515,-4.4515,-4.4515,-4.424,-4.3831,-4.3279,-4.2905,-4.2472,-4.1877,-4.208,-4.2302,-4.2302,-4.3282,-4.3948,-4.3948,-4.469,-4.5142,-4.5142,-4.5415,-4.5749,-4.6205,-4.6798,-4.7333,-4.7774,-4.7425,-4.7425,-4.7774,-4.7425,-4.7609,-4.8306,-4.7957,-4.7976,0.0,0.0,0.0,0.0,0.0,0.0,0.0,0.0,0.0,0.0,0.0,0.0,0.0,0.0,0.0,0.0,0.0,0.0,0.0,0.0,0.0,0.0,0.0,0.0,0.0,0.0,0.0,0.0,-3.0258,-3.0441,-3.1041,-3.2302,-3.3415,-3.422,-3.5723,-3.6719,-3.7052,-3.6825,-3.6399,-3.5828,-3.6608,-3.723,-3.7711,-3.8194,-3.8318,-3.8219,-3.8234,-3.8441,-3.8857,-3.9241,-3.9548,-3.9887,-4.0708,-4.1549,-4.2323,-4.2557,-4.3199,-4.3845,-4.3109,-4.2399,-4.1856,-4.1965,-4.1728,-4.1717,-4.3163,-4.4026,-4.4552,-4.4759,-4.5247,-4.551,-4.4721,-4.4665,-4.4759,-4.4616,-4.4551,-4.4515,-4.4515,-4.4515,-4.4515,-4.4515,-4.4515,-4.4515,-4.4515,-4.4684,-4.4587,-4.3994,-4.3947,-4.3797,-4.3105,-4.3312,-4.35,-4.35,-4.4583,-4.5314,-4.5314,-4.6049,-4.6599,-4.6819,-4.6838,-4.7113,-4.7719,-4.7755,-4.7921,-4.8306,-4.8526,-4.8526,-4.8306,-4.8306,-4.8306,-4.8306,-4.8306,-4.8306,0.0,0.0,0.0,0.0,0.0,0.0,0.0,0.0,0.0,0.0,0.0,0.0,0.0,0.0,0.0,0.0,0.0,0.0,0.0,0.0,0.0,0.0,0.0,0.0,0.0,0.0,0.0,0.0,-3.03,-3.0724,-3.1967,-3.2891,-3.3778,-3.4653,-3.6082,-3.69,-3.69,-3.7321,-3.6417,-3.4258,-3.6506,-3.7309,-3.6898,-3.794,-3.851,-3.8743,-3.8478,-3.898,-3.986,-3.9142,-3.9427,-4.0428,-4.1314,-4.1678,-4.1837,-4.2659,-4.31,-4.3119,-4.2202,-4.1921,-4.1991,-4.1919,-4.2471,-4.3332,-4.4177,-4.4477,-4.4665,-4.5416,-4.566,-4.551,-4.4721,-4.5078,-4.5472,-4.4909,-4.4648,-4.4515,-4.4515,-4.4515,-4.4515,-4.4515,-4.4515,-4.4515,-4.4515,-4.5134,-4.5679,-4.576,-4.6071,-4.6341,-4.6339,-4.5999,-4.5718,-4.5718,-4.647,-4.7003,-4.7003,-4.7719,-4.8526,-4.9352,-4.9389,-4.9407,-4.9462,-4.9462,-4.9095,-4.8324,-4.9095,-4.9114,-4.8306,-4.8306,-4.8306,-4.8306,-4.8306,-4.8306,0.0,0.0,0.0,0.0,0.0,0.0,0.0,0.0,0.0,0.0,0.0,0.0,0.0,0.0,0.0,0.0,0.0,0.0,0.0,0.0,0.0,0.0,0.0,0.0,0.0,0.0,0.0,0.0,0.0,-3.1399,-3.1379,-3.3294,-3.436,-3.4364,-3.6094,-3.6653,-3.5829,-3.6488,-3.6149,-3.4829,-3.6341,-3.7334,-3.7867,-3.8382,-3.8773,-3.8989,-3.8902,-3.9079,-3.9509,-3.9769,-4.0132,-4.0654,-4.1977,-4.2547,-4.2688,-4.2922,-4.3062,-4.3072,-4.2164,-4.1911,-4.204,-4.2602,-4.3023,-4.3538,-4.4871,-4.566,-4.6167,-4.6448,-4.6542,-4.6525,-4.638,-4.5727,-4.5098,-4.4995,-4.4929,-4.4895,-4.4881,-4.4674,-4.4515,-4.4515,-4.4515,-4.472,-4.5398,-4.5772,-4.6078,-4.644,-4.6607,-4.657,-4.6215,-4.6009,-4.5902,-4.5902,-4.6636,-4.7333,-4.7847,-4.8655,-4.9481,-5.0306,-5.0362,-5.0362,-5.0362,-5.0362,-5.0215,-4.9921,-5.0215,-4.9682,-4.8306,-4.8857,-4.9132,-4.9114,-4.8563,-4.86,0.0,0.0,0.0,0.0,0.0,0.0,0.0,0.0,0.0,0.0,0.0,0.0,0.0,0.0,0.0,0.0,0.0,0.0,0.0,0.0,0.0,0.0,0.0,0.0,0.0,0.0,0.0,0.0,0.0,0.0,-3.1813,-3.3512,-3.4484,-3.4414,-3.6015,-3.6201,-3.4847,-3.6131,-3.6256,-3.5221,-3.6482,-3.7494,-3.8285,-3.8446,-3.8695,-3.8989,-3.9017,-3.9101,-3.9248,-3.9825,-4.0262,-4.0736,-4.2053,-4.2651,-4.2763,-4.3025,-4.2782,-4.2304,-4.2031,-4.1919,-4.2096,-4.3013,-4.367,-4.4364,-4.5716,-4.6542,-4.7049,-4.74,-4.7316,-4.7071,-4.7043,-4.6026,-4.503,-4.5074,-4.5156,-4.5252,-4.5478,-4.5095,-4.4775,-4.511,-4.5167,-4.5464,-4.6459,-4.6863,-4.72,-4.758,-4.7636,-4.7522,-4.7173,-4.689,-4.6709,-4.6709,-4.7462,-4.8159,-4.8691,-4.9499,-5.0343,-5.1151,-5.1206,-5.1206,-5.1206,-5.1206,-5.1077,-5.082,-5.1077,-5.0527,-4.915,-4.9719,-4.9994,-4.9976,-4.9407,-4.9444,0.0,0.0,0.0,0.0,0.0,0.0,0.0,0.0,0.0,0.0,0.0,0.0,0.0,0.0,0.0,0.0,0.0,0.0,0.0,0.0,0.0,0.0,0.0,0.0,0.0,0.0,0.0,0.0,-3.1491,-3.247,-3.3339,-3.3622,-3.4086,-3.4799,-3.5847,-3.5667,-3.4151,-3.6381,-3.6756,-3.5257,-3.6809,-3.7739,-3.7984,-3.7984,-3.8285,-3.8792,-3.8881,-3.9007,-3.9183,-3.921,-3.9768,-4.0707,-4.1528,-4.1846,-4.1931,-4.2883,-4.2179,-4.0813,-4.1672,-4.1972,-4.2149,-4.2994,-4.4364,-4.5866,-4.6749,-4.7012,-4.7258,-4.8258,-4.7961,-4.7162,-4.6449,-4.5853,-4.54,-4.518,-4.5282,-4.5592,-4.6268,-4.5748,-4.5445,-4.6347,-4.6541,-4.6808,-4.7652,-4.8493,-4.9113,-4.9337,-4.9366,-4.9386,-4.9559,-4.8826,-4.8324,-4.8343,-4.9095,-4.9609,-4.9646,-5.038,-5.1187,-5.1977,-5.2032,-5.2032,-5.2032,-5.2032,-5.1665,-5.0894,-5.1628,-5.1646,-5.0875,-5.0857,-5.0839,-5.0839,-5.0839,-5.0839,-3.3153,0.0,0.0,0.0,0.0,0.0,0.0,0.0,0.0,0.0,0.0,0.0,0.0,0.0,0.0,0.0,0.0,0.0,0.0,0.0,0.0,0.0,0.0,0.0,0.0,0.0,0.0,0.0,-3.1466,-3.2374,-3.2577,-3.3884,-3.4938,-3.5573,-3.5895,-3.5687,-3.4918,-3.5543,-3.5935,-3.6078,-3.6524,-3.7201,-3.7984,-3.7984,-3.8186,-3.851,-3.851,-3.8725,-3.9073,-3.9275,-3.9911,-4.0765,-4.0963,-4.1413,-4.1983,-4.2254,-4.1672,-4.0809,-4.106,-4.1511,-4.2029,-4.228,-4.3876,-4.5866,-4.6749,-4.7532,-4.8332,-4.9181,-4.8549,-4.7312,-4.605,-4.6128,-4.6388,-4.5703,-4.5568,-4.5834,-4.6661,-4.6679,-4.6721,-4.7253,-4.7363,-4.7886,-4.9508,-4.9989,-5.0335,-5.087,-5.0691,-5.0136,-4.9283,-4.8674,-4.8545,-4.9169,-4.9444,-5.005,-5.1224,-5.1536,-5.2013,-5.2821,-5.2876,-5.2876,-5.2876,-5.2876,-5.2766,-5.2546,-5.2747,-5.2766,-5.2546,-5.1958,-5.1665,-5.1665,-5.1665,-5.1665,0.0,0.0,0.0,0.0,0.0,0.0,-3.3082,-3.243,0.0,0.0,0.0,0.0,0.0,0.0,0.0,0.0,0.0,0.0,0.0,0.0,0.0,0.0,0.0,0.0,0.0,-2.9499,-2.9913,-2.9984,-3.1299,-3.2285,-3.273,-3.385,-3.4525,-3.4547,-3.4681,-3.4461,-3.3864,-3.4658,-3.5084,-3.5226,-3.5704,-3.6415,-3.7325,-3.7325,-3.7659,-3.8219,-3.8252,-3.8491,-3.8873,-3.9147,-4.0072,-4.1267,-4.0877,-4.1458,-4.249,-4.2517,-4.1991,-4.1346,-4.2085,-4.2431,-4.26,-4.2938,-4.4551,-4.6459,-4.6968,-4.7859,-4.8789,-4.939,-4.8509,-4.7223,-4.6373,-4.6323,-4.6336,-4.5854,-4.5992,-4.6475,-4.7336,-4.7851,-4.8205,-4.8471,-4.8529,-4.899,-5.0486,-5.0735,-5.0853,-5.126,-5.0933,-5.0387,-4.9645,-4.9446,-4.9498,-4.9824,-5.0491,-5.1191,-5.1944,-5.2307,-5.2711,-5.3188,-5.3206,-5.3206,-5.3206,-5.3206,-5.3206,-5.3206,-5.3206,-5.3206,-5.3206,-5.2729,-5.2509,-5.2509,-5.2509,-5.2509,0.0,0.0,0.0,0.0,0.0,0.0,-3.5254,-3.4378,-3.35,0.0,0.0,0.0,0.0,0.0,0.0,0.0,0.0,0.0,0.0,0.0,0.0,0.0,0.0,0.0,-2.9171,-2.9414,-2.9758,-3.0196,-3.1404,-3.2521,-3.3491,-3.3758,-3.3562,-3.2831,-3.3017,-3.2821,-3.2125,-3.3705,-3.4199,-3.3688,-3.4604,-3.5454,-3.6221,-3.6363,-3.695,-3.7857,-3.7998,-3.8267,-3.8585,-3.8884,-4.0123,-4.174,-4.1079,-4.1721,-4.31,-4.323,-4.2723,-4.2163,-4.3811,-4.3895,-4.3426,-4.4139,-4.563,-4.7151,-4.7254,-4.8017,-4.8848,-4.906,-4.8162,-4.7124,-4.6982,-4.6329,-4.5715,-4.5765,-4.6407,-4.724,-4.8118,-4.8987,-4.966,-4.9788,-4.9842,-5.0094,-5.0906,-5.1041,-5.1041,-5.1041,-5.0702,-5.0442,-5.0442,-5.071,-5.0789,-5.0534,-5.1793,-5.2549,-5.2187,-5.2803,-5.3206,-5.3206,-5.3206,-5.3206,-5.3206,-5.3206,-5.3206,-5.3206,-5.323,-5.3272,-5.3272,-5.3206,-5.3206,-5.3206,-5.3206,-5.3304,0.0,0.0,0.0,0.0,0.0,0.0,-3.4685,-3.4929,-3.4911,0.0,0.0,0.0,0.0,0.0,0.0,0.0,0.0,0.0,0.0,0.0,0.0,0.0,0.0,0.0,-3.0783,-3.0416,-3.0577,-3.1765,-3.3195,-3.4074,-3.4269,-3.4312,-3.4142,-3.3579,-3.308,-3.2859,-3.2962,-3.2684,-3.3122,-3.4222,-3.4111,-3.4463,-3.5244,-3.6078,-3.6645,-3.6998,-3.754,-3.8034,-3.8446,-3.851,-3.9398,-4.0709,-4.0783,-4.1372,-4.2329,-4.305,-4.275,-4.2141,-4.3182,-4.3426,-4.3332,-4.3482,-4.4655,-4.6168,-4.7091,-4.8104,-4.8898,-4.8636,-4.8346,-4.7801,-4.6414,-4.5916,-4.5765,-4.5731,-4.6407,-4.7307,-4.8118,-4.9038,-4.9885,-5.0538,-5.0674,-5.0945,-5.1796,-5.195,-5.195,-5.195,-5.1607,-5.1346,-5.1346,-5.1097,-5.1223,-5.2105,-5.2501,-5.2772,-5.2936,-5.3115,-5.3206,-5.3206,-5.3206,-5.3206,-5.3206,-5.3206,-5.3206,-5.3206,-5.3505,-5.3683,-5.3683,-5.3359,-5.3206,-5.3206,-5.3206,-5.375,0.0,0.0,0.0,-3.5553,0.0,0.0,0.0,-3.565,-3.571,0.0,0.0,0.0,0.0,0.0,0.0,0.0,0.0,0.0,0.0,0.0,0.0,0.0,0.0,0.0,-3.1021,-3.0921,-3.1232,-3.2207,-3.3673,-3.4489,-3.4489,-3.4489,-3.4236,-3.3615,-3.2906,-3.2388,-3.2204,-3.1938,-3.2202,-3.3,-3.2931,-3.3389,-3.4305,-3.5279,-3.6077,-3.668,-3.7521,-3.7984,-3.8219,-3.8382,-3.8854,-3.9505,-3.9852,-4.133,-4.3219,-4.2806,-4.2656,-4.2769,-4.3613,-4.3632,-4.3369,-4.3764,-4.5095,-4.6652,-4.7219,-4.7938,-4.8432,-4.7893,-4.7429,-4.6902,-4.6037,-4.5791,-4.5907,-4.6298,-4.709,-4.7975,-4.8825,-4.9672,-5.0422,-5.0828,-5.0906,-5.1041,-5.1486,-5.1544,-5.1544,-5.1544,-5.137,-5.1395,-5.1837,-5.2085,-5.249,-5.3272,-5.3697,-5.3841,-5.3587,-5.3505,-5.3422,-5.3206,-5.3206,-5.3206,-5.3206,-5.3381,-5.3623,-5.3851,-5.4032,-5.4153,-5.4153,-5.4371,-5.4429,-5.4429,-5.4429,-5.5043,0.0,0.0,0.0,0.0,0.0,-3.4847,0.0,0.0,0.0,0.0,0.0,0.0,0.0,0.0,0.0,0.0,0.0,0.0,0.0,0.0,0.0,0.0,0.0,0.0,-3.1716,-3.2109,-3.2433,-3.2577,-3.4097,-3.4922,-3.4726,-3.4513,-3.4064,-3.3423,-3.2596,-3.1854,-3.1207,-3.1406,-3.1542,-3.1542,-3.1787,-3.2405,-3.3301,-3.4465,-3.5509,-3.6396,-3.7518,-3.8018,-3.807,-3.8318,-3.8569,-3.8792,-3.9268,-4.1297,-4.3802,-4.2479,-4.2562,-4.3388,-4.4045,-4.3839,-4.3463,-4.4439,-4.6078,-4.7637,-4.7467,-4.7857,-4.8162,-4.7282,-4.6568,-4.6013,-4.5838,-4.58,-4.6013,-4.6883,-4.7773,-4.8643,-4.9513,-5.0326,-5.0906,-5.0906,-5.0906,-5.0906,-5.0906,-5.0906,-5.0906,-5.0906,-5.1041,-5.1467,-5.2337,-5.3207,-5.3877,-5.4204,-5.48,-5.4874,-5.4078,-5.3959,-5.3796,-5.3462,-5.344,-5.344,-5.344,-5.3758,-5.4118,-5.4503,-5.4749,-5.4874,-5.4874,-5.5761,-5.6034,-5.5705,-5.5875,-5.6468,0.0,0.0,0.0,0.0,-3.543,0.0,0.0,0.0,-3.5624,-3.5711,0.0,0.0,0.0,0.0,0.0,0.0,0.0,0.0,0.0,0.0,0.0,0.0,0.0,0.0,0.0,-3.558,-3.5298,-3.3844,-3.5599,-3.6367,-3.5537,-3.4516,-3.3768,-3.3423,-3.2328,-3.1608,-3.119,-3.123,-3.1291,-3.1334,-3.162,-3.1839,-3.214,-3.4164,-3.517,-3.5468,-3.7214,-3.807,-3.8174,-3.8207,-3.8755,-3.9617,-4.0084,-4.0989,-4.2034,-4.1994,-4.2562,-4.3313,-4.3388,-4.3369,-4.3584,-4.5218,-4.7053,-4.8485,-4.7713,-4.8305,-4.8911,-4.7295,-4.6893,-4.6767,-4.5993,-4.58,-4.6013,-4.6883,-4.7773,-4.8643,-4.9513,-5.0326,-5.0906,-5.0906,-5.0906,-5.0906,-5.0906,-5.0906,-5.0906,-5.0906,-5.1563,-5.2376,-5.3246,-5.4116,-5.4784,-5.5128,-5.5188,-5.4981,-5.4465,-5.4414,-5.4406,-5.4373,-5.434,-5.434,-5.434,-5.4406,-5.4439,-5.4503,-5.5607,-5.6158,-5.6205,-5.741,-5.7218,-5.5724,-5.6493,-5.7497,0.0,0.0,0.0,0.0,0.0,0.0,-3.6228,0.0,-3.554,0.0,0.0,0.0,0.0,0.0,0.0,0.0,-3.3875,0.0,0.0,0.0,0.0,0.0,0.0,0.0,0.0,0.0,0.0,0.0,-3.5929,-3.6661,-3.5762,-3.5273,-3.4617,-3.3728,-3.3093,-3.237,-3.1508,-3.1354,-3.1235,-3.1252,-3.1411,-3.1694,-3.2126,-3.4041,-3.5117,-3.558,-3.735,-3.814,-3.8192,-3.8192,-3.844,-3.8879,-3.9383,-4.0486,-4.1726,-4.1499,-4.1651,-4.2083,-4.3062,-4.3088,-4.3107,-4.5825,-4.7235,-4.7908,-4.8194,-4.7918,-4.7446,-4.6953,-4.6502,-4.6221,-4.6501,-4.6554,-4.6902,-4.8275,-4.8894,-4.9378,-5.0229,-5.0674,-5.0906,-5.0906,-5.0906,-5.0906,-5.0906,-5.0906,-5.0906,-5.0906,-5.1215,-5.1931,-5.3323,-5.3826,-5.4471,-5.5596,-5.569,-5.5458,-5.4947,-5.4922,-5.479,-5.4535,-5.4503,-5.4609,-5.4838,-5.4867,-5.5208,-5.5957,-5.6466,-5.6999,-5.7498,-5.85,-5.8601,-5.7905,-5.8268,-5.8999,-3.6971,0.0,0.0,0.0,0.0,0.0,0.0,0.0,0.0,0.0,0.0,0.0,0.0,0.0,0.0,0.0,0.0,-3.6622,0.0,0.0,0.0,0.0,0.0,0.0,0.0,0.0,0.0,-3.483,-3.6293,-3.6867,-3.6053,-3.565,-3.5071,-3.4181,-3.3792,-3.3026,-3.1918,-3.1732,-3.1533,-3.1269,-3.1329,-3.1637,-3.2214,-3.3988,-3.5065,-3.5663,-3.7419,-3.8192,-3.8192,-3.8192,-3.8241,-3.8354,-3.8826,-3.9891,-4.1143,-4.0766,-4.0788,-4.1222,-4.2655,-4.3335,-4.4027,-4.6497,-4.7443,-4.767,-4.8022,-4.7277,-4.6317,-4.6416,-4.6198,-4.6127,-4.6892,-4.727,-4.7831,-4.9339,-4.9707,-4.9919,-5.0732,-5.0906,-5.0906,-5.0906,-5.0906,-5.0983,-5.1215,-5.1061,-5.0983,-5.1215,-5.1467,-5.2163,-5.3652,-5.4039,-5.4658,-5.5877,-5.5998,-5.5827,-5.5439,-5.5365,-5.5193,-5.4848,-5.4819,-5.5066,-5.5581,-5.5626,-5.6165,-5.7319,-5.7569,-5.7992,-5.8627,-5.9454,-5.9858,-5.9858,-5.9858,-6.0204,0.0,0.0,0.0,-3.6328,0.0,0.0,0.0,0.0,-3.6906,0.0,0.0,0.0,0.0,0.0,0.0,-3.7862,0.0,0.0,0.0,0.0,0.0,0.0,0.0,0.0,0.0,0.0,-3.7426,-3.6249,-3.6991,-3.7214,-3.6632,-3.534,-3.4735,-3.4857,-3.3979,-3.319,-3.2468,-3.2554,-3.2217,-3.1479,-3.1479,-3.1654,-3.2091,-3.3952,-3.4942,-3.5343,-3.7334,-3.8192,-3.8192,-3.8192,-3.8354,-3.8615,-3.8886,-3.9227,-3.9602,-3.9679,-4.0297,-4.1127,-4.1957,-4.4386,-4.714,-4.7254,-4.7912,-4.837,-4.6825,-4.6478,-4.6435,-4.5723,-4.6278,-4.7057,-4.7096,-4.7734,-4.8585,-4.9494,-4.9707,-4.9919,-5.0732,-5.0906,-5.0906,-5.0906,-5.0906,-5.1177,-5.2008,-5.1467,-5.1196,-5.2028,-5.2879,-5.373,-5.4639,-5.5451,-5.5935,-5.5993,-5.5998,-5.5962,-5.5866,-5.5826,-5.5745,-5.5662,-5.5662,-5.6047,-5.6915,-5.6953,-5.7357,-5.8242,-5.9031,-5.9435,-5.9454,-6.0319,-6.0762,-6.0762,-6.0762,-6.0762,0.0,0.0,-3.8004,-3.8594,0.0,0.0,0.0,0.0,0.0,0.0,0.0,0.0,0.0,0.0,-3.7712,-3.8001,-3.7861,0.0,0.0,0.0,0.0,0.0,0.0,0.0,0.0,0.0,0.0,-3.6474,-3.7248,-3.7563,-3.7094,-3.6105,-3.5391,-3.5115,-3.4718,-3.4071,-3.3173,-3.2887,-3.2569,-3.2234,-3.197,-3.1985,-3.2335,-3.4285,-3.5372,-3.5756,-3.75,-3.8289,-3.8336,-3.8478,-3.8566,-3.87,-3.9154,-3.9408,-3.9526,-3.9758,-4.0375,-4.1321,-4.2702,-4.4675,-4.6575,-4.6575,-4.6822,-4.7015,-4.6468,-4.6415,-4.6509,-4.6396,-4.7043,-4.7921,-4.8632,-4.9049,-4.9475,-5.0306,-5.05,-5.0732,-5.1583,-5.1312,-5.108,-5.1641,-5.1757,-5.1854,-5.2144,-5.2434,-5.2724,-5.3014,-5.3304,-5.3807,-5.4697,-5.5045,-5.5412,-5.5935,-5.5995,-5.5979,-5.5905,-5.6326,-5.634,-5.5742,-5.6242,-5.6415,-5.6145,-5.6684,-5.7396,-5.828,-5.9088,-5.9781,-6.0358,-6.0666,-6.08,-6.08,-6.08,-6.08,-3.9158,-3.9213,0.0,-3.9633,-3.9183,0.0,-3.9028,0.0,-3.8303,0.0,0.0,0.0,0.0,0.0,0.0,-3.8834,-3.8786,-3.881,0.0,-3.8866,0.0,0.0,0.0,0.0,0.0,0.0,-3.7756,-3.7084,-3.7593,-3.7527,0.0,0.0,-3.5925,-3.5211,-3.5352,-3.4968,-3.4058,-3.3536,-3.3119,-3.2831,-3.235,-3.2317,-3.2737,-3.4318,-3.5381,-3.6006,-3.7398,-3.8222,-3.8523,-3.873,-3.8886,-3.9017,-3.9383,-3.9763,-4.0141,-4.0299,-4.1105,-4.228,-4.3644,-4.5047,-4.6209,-4.6258,-4.6316,-4.6291,-4.6099,-4.6337,-4.6685,-4.6851,-4.775,-4.8825,-4.9521,-4.9919,-5.0268,-5.079,-5.0906,-5.1061,-5.1621,-5.1312,-5.108,-5.1621,-5.1989,-5.2298,-5.2608,-5.3382,-5.3962,-5.3962,-5.3962,-5.4271,-5.5122,-5.5238,-5.5432,-5.5935,-5.6012,-5.6093,-5.631,-5.6729,-5.6761,-5.6203,-5.6973,-5.7203,-5.6646,-5.7434,-5.8434,-5.9627,-5.9858,-6.0396,-6.1262,-6.0954,-6.08,-6.08,-6.08,-6.08]}]]